[[{"header":{"parameterUnit":"m.s-1","parameterCategory":1,"la1":30.6,"la2":28.766,"lo1":-90.7593,"lo2":-88.6598,"dy":0.0162,"dx":0.0183,"nx":116,"ny":114,"refTime":"2023-03-06T18:00:00:Z","depth":0,"parameterNumber":2,"parameterNumberName":"U-component_of_WINDS"},"data":[0.0,0.0,0.0,0.0,0.0,0.0,0.0,0.0,0.0,0.0,0.0,0.0,0.0,0.0,0.0,0.0,0.0,0.0,0.0,0.0,0.0,0.0,0.0,0.0,0.0,0.0,0.0,0.0,0.0,0.0,0.0,0.0,0.0,0.0,0.0,0.0,0.0,0.0,0.0,0.0,0.0,0.0,0.0,0.0,0.0,0.0,0.0,0.0,0.0,0.0,0.0,0.0,0.0,0.0,0.0,0.0,0.0,0.0,0.0,0.0,0.0,0.0,0.0,0.0,0.0,0.0,0.0,0.0,0.0,0.0,0.0,0.0,0.0,0.0,0.0,0.0,0.0,0.0,0.0,0.0,0.0,0.0,0.0,0.0,0.0,0.0,0.0,0.0,0.0,0.0,0.0,0.0,0.0,0.0,0.0,0.0,0.0,0.0,0.0,0.0,0.0,0.0,0.0,0.0,0.0,0.0,0.0,0.0,0.0,0.0,0.0,0.0,0.0,0.0,0.0,0.0,0.0,0.0,0.0,0.0,0.0,0.0,0.0,0.0,0.0,0.0,0.0,0.0,0.0,0.0,0.0,0.0,0.0,0.0,0.0,0.0,0.0,0.0,0.0,0.0,0.0,0.0,0.0,0.0,0.0,0.0,0.0,0.0,0.0,0.0,0.0,0.0,0.0,0.0,0.0,0.0,0.0,0.0,0.0,0.0,0.0,0.0,0.0,0.0,0.0,0.0,0.0,0.0,0.0,0.0,0.0,0.0,0.0,0.0,0.0,0.0,0.0,0.0,0.0,0.0,0.0,0.0,0.0,0.0,0.0,0.0,0.0,0.0,0.0,0.0,0.0,0.0,0.0,0.0,0.0,0.0,0.0,0.0,0.0,0.0,0.0,0.0,0.0,0.0,0.0,0.0,0.0,0.0,0.0,0.0,0.0,0.0,0.0,0.0,0.0,0.0,0.0,0.0,0.0,0.0,0.0,0.0,0.0,0.0,0.0,0.0,0.0,0.0,0.0,0.0,0.0,0.0,0.0,0.0,0.0,0.0,0.0,0.0,0.0,0.0,0.0,0.0,0.0,0.0,0.0,0.0,0.0,0.0,0.0,0.0,0.0,0.0,0.0,0.0,0.0,0.0,0.0,0.0,0.0,0.0,0.0,0.0,0.0,0.0,0.0,0.0,0.0,0.0,0.0,0.0,0.0,0.0,0.0,0.0,0.0,0.0,0.0,0.0,0.0,0.0,0.0,0.0,0.0,0.0,0.0,0.0,0.0,0.0,0.0,0.0,0.0,0.0,0.0,0.0,0.0,0.0,0.0,0.0,0.0,0.0,0.0,0.0,0.0,0.0,0.0,0.0,0.0,0.0,0.0,0.0,0.0,0.0,0.0,0.0,0.0,0.0,0.0,0.0,0.0,0.0,0.0,0.0,0.0,0.0,0.0,0.0,0.0,0.0,0.0,0.0,0.0,0.0,0.0,0.0,0.0,0.0,0.0,0.0,0.0,0.0,0.0,0.0,0.0,0.0,0.0,0.0,0.0,0.0,0.0,0.0,0.0,0.0,0.0,0.0,0.0,0.0,0.0,0.0,0.0,0.0,0.0,0.0,0.0,0.0,0.0,0.0,0.0,0.0,0.0,0.0,0.0,0.0,0.0,0.0,0.0,0.0,0.0,0.0,0.0,0.0,0.0,0.0,0.0,0.0,0.0,0.0,0.0,0.0,0.0,0.0,0.0,0.0,0.0,0.0,0.0,0.0,0.0,0.0,0.0,0.0,0.0,0.0,0.0,0.0,0.0,0.0,0.0,0.0,0.0,0.0,0.0,0.0,0.0,0.0,0.0,0.0,0.0,0.0,0.0,0.0,0.0,0.0,0.0,0.0,0.0,0.0,0.0,0.0,0.0,0.0,0.0,0.0,0.0,0.0,0.0,0.0,0.0,0.0,0.0,0.0,0.0,0.0,0.0,0.0,0.0,0.0,0.0,0.0,0.0,0.0,0.0,0.0,0.0,0.0,0.0,0.0,0.0,0.0,0.0,0.0,0.0,0.0,0.0,0.0,0.0,0.0,0.0,0.0,0.0,0.0,0.0,0.0,0.0,0.0,0.0,0.0,0.0,0.0,0.0,0.0,0.0,0.0,0.0,0.0,0.0,0.0,0.0,0.0,0.0,0.0,0.0,0.0,0.0,0.0,0.0,0.0,0.0,0.0,0.0,0.0,0.0,0.0,0.0,0.0,0.0,0.0,0.0,0.0,0.0,0.0,0.0,0.0,0.0,0.0,0.0,0.0,0.0,0.0,0.0,0.0,0.0,0.0,0.0,0.0,0.0,0.0,0.0,0.0,0.0,0.0,0.0,0.0,0.0,0.0,0.0,0.0,0.0,0.0,0.0,0.0,0.0,0.0,0.0,0.0,0.0,0.0,0.0,0.0,0.0,0.0,0.0,0.0,0.0,0.0,0.0,0.0,0.0,0.0,0.0,0.0,0.0,0.0,0.0,0.0,0.0,0.0,0.0,0.0,0.0,0.0,0.0,0.0,0.0,0.0,0.0,0.0,0.0,0.0,0.0,0.0,0.0,0.0,0.0,0.0,0.0,0.0,0.0,0.0,0.0,0.0,0.0,0.0,0.0,0.0,0.0,0.0,0.0,0.0,0.0,0.0,0.0,0.0,0.0,0.0,0.0,0.0,0.0,0.0,0.0,0.0,0.0,0.0,0.0,0.0,0.0,0.0,0.0,0.0,0.0,0.0,0.0,0.0,0.0,0.0,0.0,0.0,0.0,0.0,0.0,0.0,0.0,0.0,0.0,0.0,0.0,0.0,0.0,0.0,0.0,0.0,0.0,0.0,0.0,0.0,0.0,0.0,0.0,0.0,0.0,0.0,0.0,0.0,0.0,0.0,0.0,0.0,0.0,0.0,0.0,0.0,0.0,0.0,0.0,0.0,0.0,0.0,0.0,0.0,0.0,0.0,0.0,0.0,0.0,0.0,0.0,0.0,0.0,0.0,0.0,0.0,0.0,0.0,0.0,0.0,0.0,0.0,0.0,0.0,0.0,0.0,0.0,0.0,0.0,0.0,0.0,0.0,0.0,0.0,0.0,0.0,0.0,0.0,0.0,0.0,0.0,0.0,0.0,0.0,0.0,0.0,0.0,0.0,0.0,0.0,0.0,0.0,0.0,0.0,0.0,0.0,0.0,0.0,0.0,0.0,0.0,0.0,0.0,0.0,0.0,0.0,0.0,0.0,0.0,0.0,0.0,0.0,0.0,0.0,0.0,0.0,0.0,0.0,0.0,0.0,0.0,0.0,0.0,0.0,0.0,0.0,0.0,0.0,0.0,0.0,0.0,0.0,0.0,0.0,0.0,0.0,0.0,0.0,0.0,0.0,0.0,0.0,0.0,0.0,0.0,0.0,0.0,0.0,0.0,0.0,0.0,0.0,0.0,0.0,0.0,0.0,0.0,0.0,0.0,0.0,0.0,0.0,0.0,0.0,0.0,0.0,0.0,0.0,0.0,0.0,0.0,0.0,0.0,0.0,0.0,0.0,0.0,0.0,0.0,0.0,0.0,0.0,0.0,0.0,0.0,0.0,0.0,0.0,0.0,0.0,0.0,0.0,0.0,0.0,0.0,0.0,0.0,0.0,0.0,0.0,0.0,0.0,0.0,0.0,0.0,0.0,0.0,0.0,0.0,0.0,0.0,0.0,0.0,0.0,0.0,0.0,0.0,0.0,0.0,0.0,0.0,0.0,0.0,0.0,0.0,0.0,0.0,0.0,0.0,0.0,0.0,0.0,0.0,0.0,0.0,0.0,0.0,0.0,0.0,0.0,0.0,0.0,0.0,0.0,0.0,0.0,0.0,0.0,0.0,0.0,0.0,0.0,0.0,0.0,0.0,0.0,0.0,0.0,0.0,0.0,0.0,0.0,0.0,0.0,0.0,0.0,0.0,0.0,0.0,0.0,0.0,0.0,0.0,0.0,0.0,0.0,0.0,0.0,0.0,0.0,0.0,0.0,0.0,0.0,0.0,0.0,0.0,0.0,0.0,0.0,0.0,0.0,0.0,0.0,0.0,0.0,0.0,0.0,0.0,0.0,0.0,0.0,0.0,0.0,0.0,0.0,0.0,0.0,0.0,0.0,0.0,0.0,0.0,0.0,0.0,0.0,0.0,0.0,0.0,0.0,0.0,0.0,0.0,0.0,0.0,0.0,0.0,0.0,0.0,0.0,0.0,0.0,0.0,0.0,0.0,0.0,0.0,0.0,0.0,0.0,0.0,0.0,0.0,0.0,0.0,0.0,0.0,0.0,0.0,0.0,0.0,0.0,0.0,0.0,0.0,0.0,0.0,0.0,0.0,0.0,0.0,0.0,0.0,0.0,0.0,0.0,0.0,0.0,0.0,0.0,0.0,0.0,0.0,0.0,0.0,0.0,0.0,0.0,0.0,0.0,0.0,0.0,0.0,0.0,0.0,0.0,0.0,0.0,0.0,0.0,0.0,0.0,0.0,0.0,0.0,0.0,0.0,0.0,0.0,0.0,0.0,0.0,0.0,0.0,0.0,0.0,0.0,0.0,0.0,0.0,0.0,0.0,0.0,0.0,0.0,0.0,0.0,0.0,0.0,0.0,0.0,0.0,0.0,0.0,0.0,0.0,0.0,0.0,0.0,0.0,0.0,0.0,0.0,0.0,0.0,0.0,0.0,0.0,0.0,0.0,0.0,0.0,0.0,0.0,0.0,0.0,0.0,0.0,0.0,0.0,0.0,0.0,0.0,0.0,0.0,0.0,0.0,0.0,0.0,0.0,0.0,0.0,0.0,0.0,0.0,0.0,0.0,0.0,0.0,0.0,0.0,0.0,0.0,0.0,0.0,0.0,0.0,0.0,0.0,0.0,0.0,0.0,0.0,0.0,0.0,0.0,0.0,0.0,0.0,0.0,0.0,0.0,0.0,0.0,0.0,0.0,0.0,0.0,0.0,0.0,0.0,0.0,0.0,0.0,0.0,0.0,0.0,0.0,0.0,0.0,0.0,0.0,0.0,0.0,0.0,0.0,0.0,0.0,0.0,0.0,0.0,0.0,0.0,0.0,0.0,0.0,0.0,0.0,0.0,0.0,0.0,0.0,0.0,0.0,0.0,0.0,0.0,0.0,0.0,0.0,0.0,0.0,0.0,0.0,0.0,0.0,0.0,0.0,0.0,0.0,0.0,0.0,0.0,0.0,0.0,0.0,0.0,0.0,0.0,0.0,0.0,0.0,0.0,0.0,0.0,0.0,0.0,0.0,0.0,0.0,0.0,0.0,0.0,0.0,0.0,0.0,0.0,0.0,0.0,0.0,0.0,0.0,0.0,0.0,0.0,0.0,0.0,0.0,0.0,0.0,0.0,0.0,0.0,0.0,0.0,0.0,0.0,0.0,0.0,0.0,0.0,0.0,0.0,0.0,0.0,0.0,0.0,0.0,0.0,0.0,0.0,0.0,0.0,0.0,0.0,0.0,0.0,0.0,0.0,0.0,0.0,0.0,0.0,0.0,0.0,0.0,0.0,0.0,0.0,0.0,0.0,0.0,0.0,0.0,0.0,0.0,0.0,0.0,0.0,0.0,0.0,0.0,0.0,0.0,0.0,0.0,0.0,0.0,0.0,0.0,0.0,0.0,0.0,0.0,0.0,0.0,0.0,0.0,0.0,0.0,0.0,0.0,0.0,0.0,0.0,0.0,0.0,0.0,0.0,0.0,0.0,0.0,0.0,0.0,0.0,0.0,0.0,0.0,0.0,0.0,0.0,0.0,0.0,0.0,0.0,0.0,0.0,0.0,0.0,0.0,0.0,0.0,0.0,0.0,0.0,0.0,0.0,0.0,0.0,0.0,0.0,0.0,0.0,0.0,0.0,0.0,0.0,0.0,0.0,0.0,0.0,0.0,0.0,0.0,0.0,0.0,0.0,0.0,0.0,0.0,0.0,0.0,0.0,0.0,0.0,0.0,0.0,0.0,0.0,0.0,0.0,0.0,0.0,0.0,0.0,0.0,0.0,0.0,0.0,0.0,0.0,0.0,0.0,0.0,0.0,0.0,0.0,0.0,0.0,0.0,0.0,0.0,0.0,0.0,0.0,0.0,-3.3451,0.0,0.0,0.0,0.0,0.0,0.0,0.0,0.0,0.0,0.0,0.0,0.0,0.0,0.0,0.0,0.0,0.0,0.0,0.0,0.0,0.0,0.0,0.0,0.0,0.0,0.0,0.0,0.0,0.0,0.0,0.0,0.0,0.0,0.0,0.0,0.0,0.0,0.0,0.0,0.0,0.0,0.0,0.0,0.0,0.0,0.0,0.0,0.0,0.0,0.0,0.0,0.0,0.0,0.0,0.0,0.0,0.0,0.0,0.0,0.0,0.0,0.0,0.0,0.0,0.0,0.0,0.0,0.0,0.0,0.0,0.0,0.0,0.0,0.0,0.0,0.0,0.0,0.0,0.0,0.0,0.0,0.0,0.0,0.0,0.0,0.0,0.0,0.0,0.0,0.0,0.0,0.0,0.0,0.0,0.0,0.0,0.0,0.0,0.0,0.0,0.0,0.0,0.0,0.0,0.0,0.0,0.0,0.0,0.0,0.0,0.0,0.0,0.0,0.0,0.0,0.0,-3.3974,0.0,0.0,0.0,0.0,0.0,0.0,0.0,0.0,0.0,0.0,0.0,0.0,0.0,0.0,0.0,0.0,0.0,0.0,0.0,0.0,0.0,0.0,0.0,0.0,0.0,0.0,0.0,0.0,0.0,0.0,0.0,0.0,0.0,0.0,0.0,0.0,0.0,0.0,0.0,0.0,0.0,0.0,0.0,0.0,0.0,0.0,0.0,0.0,0.0,0.0,0.0,0.0,0.0,0.0,0.0,0.0,0.0,0.0,0.0,0.0,0.0,0.0,0.0,0.0,0.0,0.0,0.0,0.0,0.0,0.0,0.0,0.0,0.0,0.0,0.0,0.0,0.0,0.0,0.0,0.0,0.0,0.0,0.0,0.0,0.0,0.0,0.0,0.0,0.0,0.0,0.0,0.0,0.0,0.0,0.0,0.0,0.0,0.0,0.0,0.0,0.0,0.0,0.0,0.0,0.0,0.0,0.0,0.0,-3.763,-3.8276,-3.8383,-3.9716,-4.0217,-3.9846,-3.6888,-3.53,-3.4807,-3.4318,0.0,0.0,0.0,0.0,0.0,0.0,0.0,0.0,0.0,0.0,0.0,0.0,0.0,0.0,0.0,0.0,0.0,0.0,0.0,0.0,0.0,0.0,0.0,0.0,0.0,0.0,0.0,0.0,0.0,0.0,0.0,0.0,0.0,0.0,0.0,0.0,0.0,0.0,-3.499,-3.5771,-3.6217,-3.6279,-3.4375,0.0,0.0,0.0,0.0,0.0,0.0,0.0,0.0,0.0,0.0,0.0,0.0,0.0,0.0,0.0,0.0,0.0,0.0,0.0,0.0,0.0,0.0,0.0,0.0,0.0,0.0,0.0,0.0,0.0,0.0,0.0,0.0,0.0,0.0,0.0,0.0,0.0,0.0,0.0,0.0,0.0,0.0,0.0,-3.0489,-3.1108,0.0,0.0,0.0,0.0,0.0,0.0,0.0,0.0,0.0,0.0,0.0,0.0,0.0,-3.5939,-3.7539,-3.7557,-3.8276,-3.9734,-4.0004,-4.0113,-4.0077,-4.0348,-4.0329,-4.0049,-3.9407,0.0,-3.6477,-3.544,0.0,0.0,0.0,0.0,0.0,0.0,0.0,0.0,0.0,0.0,0.0,0.0,0.0,0.0,0.0,0.0,0.0,0.0,0.0,0.0,0.0,0.0,0.0,0.0,0.0,0.0,0.0,0.0,0.0,0.0,0.0,0.0,0.0,0.0,0.0,0.0,-3.4504,-3.637,-3.7355,-3.8224,-3.8775,-3.9027,-3.7701,-3.6255,-3.4765,-3.445,0.0,0.0,0.0,0.0,0.0,0.0,0.0,0.0,0.0,0.0,0.0,0.0,0.0,0.0,0.0,0.0,0.0,0.0,0.0,0.0,0.0,0.0,0.0,0.0,0.0,0.0,0.0,0.0,0.0,0.0,0.0,0.0,0.0,0.0,0.0,0.0,0.0,0.0,0.0,-3.0511,-3.1244,-3.1506,-3.1513,-3.1605,0.0,0.0,0.0,0.0,0.0,0.0,0.0,0.0,0.0,-3.708,-3.7134,-3.7914,-3.9511,-3.9529,-3.9909,-4.0634,-4.1105,-4.1306,-4.127,-4.1742,-4.1794,-4.1471,-4.0808,-3.9919,-3.8803,-3.721,-3.5928,-3.4912,0.0,0.0,0.0,0.0,-3.279,-3.2613,0.0,0.0,0.0,0.0,0.0,0.0,0.0,0.0,0.0,0.0,0.0,0.0,0.0,0.0,0.0,-2.6736,0.0,0.0,0.0,0.0,0.0,0.0,0.0,0.0,0.0,0.0,0.0,0.0,-3.6813,-3.8394,-3.9538,-4.0189,-4.0657,-4.0967,-4.0577,-3.9153,-3.7001,-3.6335,-3.5541,0.0,0.0,0.0,0.0,0.0,0.0,0.0,0.0,0.0,0.0,0.0,0.0,0.0,0.0,0.0,0.0,0.0,0.0,0.0,0.0,0.0,0.0,0.0,0.0,0.0,0.0,0.0,0.0,0.0,0.0,0.0,0.0,0.0,0.0,0.0,0.0,0.0,0.0,-3.1909,-3.2395,-3.2521,-3.2662,-3.2948,0.0,0.0,0.0,0.0,0.0,0.0,-3.6587,-3.6641,-3.7374,-3.8964,-3.9019,-3.9694,-4.1098,-4.1117,-4.1243,-4.1461,-4.2082,-4.2321,-4.2286,-4.2887,-4.2955,-4.2593,-4.1763,-4.1168,-4.0639,-3.8742,-3.7404,-3.6488,-3.5749,-3.5047,-3.4415,-3.4314,-3.4119,-3.3921,0.0,0.0,0.0,0.0,0.0,0.0,0.0,0.0,0.0,0.0,0.0,0.0,0.0,0.0,-2.7007,-2.6733,-2.6703,-2.6653,0.0,0.0,0.0,0.0,0.0,0.0,0.0,0.0,0.0,-3.7309,-3.8193,-3.9516,-4.1182,-4.1234,-4.1419,-4.1759,-4.1977,-4.0855,-3.8728,-3.8127,-3.6967,-3.5544,0.0,0.0,0.0,0.0,0.0,0.0,0.0,0.0,0.0,0.0,0.0,0.0,0.0,0.0,0.0,0.0,0.0,0.0,0.0,0.0,0.0,0.0,0.0,0.0,0.0,0.0,0.0,0.0,0.0,0.0,0.0,0.0,0.0,0.0,0.0,0.0,0.0,0.0,0.0,-3.5032,-3.574,0.0,0.0,0.0,0.0,-3.6229,-3.6229,-3.6864,-3.8308,-3.8366,-3.9081,-4.0624,-4.0679,-4.1098,-4.192,-4.1956,-4.2392,-4.3266,-4.3303,-4.3321,-4.3321,-4.3232,-4.305,-4.2764,-4.2394,-4.1984,-4.1407,-3.9648,-3.8597,-3.8094,-3.8019,-3.7787,-3.7477,-3.7477,-3.7388,-3.7242,0.0,0.0,0.0,0.0,0.0,0.0,0.0,0.0,0.0,0.0,0.0,0.0,0.0,-2.8301,-2.9033,-2.9911,-2.9392,0.0,0.0,0.0,0.0,0.0,0.0,0.0,0.0,0.0,-3.5817,-3.8339,-3.9648,-4.0956,-4.2214,-4.2764,-4.3193,-4.347,-4.3176,-4.2689,-4.2007,-4.0326,-3.9338,-3.8702,-3.6639,-3.5118,0.0,0.0,0.0,0.0,0.0,0.0,0.0,0.0,0.0,0.0,0.0,0.0,0.0,0.0,0.0,0.0,0.0,0.0,0.0,0.0,0.0,0.0,0.0,0.0,0.0,0.0,0.0,0.0,0.0,0.0,0.0,0.0,0.0,0.0,0.0,0.0,0.0,-3.6123,-3.6325,0.0,-3.7805,-3.7875,-3.8267,-3.9313,-3.9405,-3.9627,-4.0146,-4.0182,-4.0661,-4.1725,-4.178,-4.2147,-4.2952,-4.2971,-4.3135,-4.3463,-4.3463,-4.3393,-4.3269,-4.3233,-4.3012,-4.2649,-4.2409,-4.2019,-4.1529,-4.0747,-3.9859,-3.8914,-3.8401,-3.8044,-3.7834,-3.7834,-3.7745,-3.7623,0.0,0.0,0.0,0.0,0.0,0.0,0.0,0.0,0.0,0.0,0.0,-2.7476,-2.8917,-2.9623,-3.0494,-3.1727,-3.1202,0.0,0.0,0.0,0.0,0.0,0.0,0.0,0.0,-3.5216,-3.7286,-3.9242,-4.0864,-4.2176,-4.3144,-4.3729,-4.4158,-4.4421,-4.4095,-4.4097,-4.423,-4.2513,-4.1362,-4.052,-3.8384,-3.6868,-3.5655,0.0,0.0,0.0,0.0,0.0,0.0,0.0,0.0,0.0,0.0,0.0,0.0,0.0,0.0,0.0,0.0,0.0,0.0,0.0,0.0,0.0,0.0,0.0,0.0,0.0,0.0,0.0,0.0,0.0,0.0,0.0,0.0,0.0,0.0,0.0,-3.7621,-3.7463,-3.7887,-3.8559,-3.9525,-3.9574,-3.9987,-4.1022,-4.1095,-4.1224,-4.148,-4.1515,-4.1882,-4.2671,-4.269,-4.2947,-4.3496,-4.3515,-4.3515,-4.3515,-4.3515,-4.3428,-4.3269,-4.3233,-4.3012,-4.2649,-4.2409,-4.2019,-4.1582,-4.13,-4.0654,-3.9723,-3.917,-3.8857,-3.8633,-3.8633,-3.8584,-3.8511,0.0,0.0,0.0,0.0,0.0,0.0,0.0,0.0,0.0,0.0,0.0,-2.8387,-2.988,-3.0635,-3.1299,-3.1926,0.0,0.0,0.0,-2.968,0.0,0.0,0.0,0.0,-3.4122,-3.7281,-3.9313,-4.0144,-4.1804,-4.3085,-4.402,-4.402,-4.4188,-4.4528,-4.4725,-4.4955,-4.5167,-4.4594,-4.2981,-4.0835,-4.0872,-3.8968,-3.6064,0.0,0.0,0.0,0.0,0.0,0.0,0.0,0.0,0.0,0.0,0.0,0.0,0.0,0.0,0.0,0.0,0.0,0.0,0.0,0.0,0.0,0.0,0.0,0.0,0.0,0.0,0.0,0.0,0.0,0.0,0.0,0.0,0.0,-3.7325,-3.8496,-3.938,-3.9184,-4.0552,-4.1447,-4.1256,-4.124,-4.1227,-4.1185,-4.1168,-4.1517,-4.2304,-4.2341,-4.269,-4.3478,-4.3515,-4.3515,-4.3515,-4.3515,-4.3515,-4.3515,-4.3515,-4.3463,-4.3394,-4.3251,-4.305,-4.2764,-4.245,-4.2019,-4.1582,-4.13,-4.0931,-4.051,-4.051,-4.0337,-4.0096,-4.0096,-4.0096,-4.0087,0.0,0.0,0.0,0.0,0.0,0.0,0.0,0.0,0.0,0.0,-2.6384,-2.8683,-3.0852,-3.1637,-3.2525,-3.3815,-3.3245,0.0,0.0,0.0,0.0,0.0,0.0,0.0,-3.5107,-3.7705,-3.9774,-4.1248,-4.2307,-4.3327,-4.4296,-4.434,-4.4496,-4.4738,-4.4919,-4.5151,-4.5332,-4.5315,-4.4622,-4.3361,-4.1606,-4.0388,-3.9396,0.0,0.0,0.0,0.0,0.0,0.0,0.0,0.0,0.0,0.0,0.0,0.0,0.0,0.0,0.0,0.0,0.0,0.0,0.0,0.0,0.0,0.0,0.0,0.0,0.0,0.0,0.0,0.0,0.0,0.0,0.0,0.0,-3.9628,-3.9127,-3.9838,-4.0557,-4.1008,-4.1351,-4.1757,-4.2242,-4.2168,-4.2292,-4.2866,-4.2871,-4.2928,-4.3149,-4.3167,-4.3276,-4.3496,-4.3515,-4.3515,-4.3515,-4.3515,-4.3515,-4.3515,-4.3515,-4.341,-4.3251,-4.3214,-4.2994,-4.2629,-4.2409,-4.2019,-4.1582,-4.13,-4.0931,-4.051,-4.051,-4.0337,-4.0096,-4.0096,-4.0096,-4.0087,0.0,0.0,0.0,0.0,0.0,0.0,0.0,0.0,0.0,0.0,-2.6442,-2.8897,-3.1322,-3.2157,-3.3151,-3.4688,-3.3905,-3.2964,-3.2088,0.0,0.0,0.0,0.0,-3.5656,-3.7175,-3.9248,-4.0988,-4.237,-4.3194,-4.3938,-4.4578,-4.4605,-4.4719,-4.4931,-4.5076,-4.526,-4.5448,-4.566,-4.5503,-4.4981,-4.3238,-4.2148,-4.1356,-3.9575,-3.8678,-3.8217,-3.6836,-3.6094,-3.5703,-3.5195,0.0,0.0,0.0,0.0,0.0,0.0,0.0,0.0,0.0,0.0,0.0,0.0,0.0,0.0,0.0,0.0,0.0,0.0,0.0,0.0,0.0,0.0,0.0,0.0,-3.9909,-4.092,-4.1429,-4.1765,-4.2045,-4.2393,-4.2613,-4.2858,-4.3219,-4.3098,-4.3152,-4.3562,-4.3549,-4.3515,-4.3515,-4.3515,-4.3515,-4.3515,-4.3515,-4.3515,-4.3515,-4.3515,-4.3515,-4.3515,-4.3515,-4.3428,-4.3269,-4.3233,-4.3012,0.0,-4.245,-4.2082,-4.167,-4.1386,-4.1041,0.0,0.0,0.0,0.0,0.0,-4.0096,-4.007,0.0,0.0,0.0,0.0,0.0,0.0,0.0,0.0,0.0,0.0,0.0,-2.8888,-3.1314,-3.218,-3.3165,-3.4609,-3.3923,-3.3072,0.0,0.0,0.0,-3.4555,-3.5504,-3.7103,-3.9474,-4.1174,-4.2441,-4.3221,-4.4188,-4.4725,-4.4852,-4.4846,-4.4955,-4.5129,-4.522,-4.5352,-4.5549,-4.5743,-4.586,-4.5863,-4.5215,-4.4019,-4.2507,-4.1693,-4.0946,-4.0191,-3.9238,-3.8398,-3.7715,-3.7519,0.0,0.0,0.0,0.0,0.0,0.0,0.0,0.0,0.0,0.0,0.0,0.0,0.0,0.0,0.0,0.0,0.0,0.0,0.0,0.0,0.0,0.0,0.0,0.0,-4.1187,-4.2287,-4.3704,-4.3771,-4.363,-4.348,-4.3966,-4.4237,-4.4036,-4.3899,-4.3753,-4.3615,-4.3549,-4.3515,-4.3515,0.0,0.0,0.0,0.0,-4.3515,-4.3515,-4.3515,-4.3515,-4.3515,-4.3515,-4.3463,-4.3394,-4.3251,-4.305,-4.2803,-4.2512,-4.2187,-4.178,-4.1538,-4.1198,-4.0847,-4.0583,-4.032,-4.0096,-4.0096,-4.0096,-4.0096,0.0,0.0,0.0,0.0,0.0,0.0,0.0,0.0,0.0,-2.3964,-2.5986,-2.8079,-3.0536,-3.1451,-3.2231,-3.3065,-3.2928,-3.2676,0.0,0.0,-3.3766,-3.4954,-3.6397,-3.7726,-3.8933,-4.122,-4.2492,-4.2655,-4.4231,-4.5038,-4.5125,-4.5113,-4.521,-4.5351,-4.5475,-4.5588,-4.575,-4.5906,-4.5994,-4.6056,-4.5969,-4.5318,-4.4314,-4.3492,-4.3097,-4.2771,-4.123,-4.0586,-4.0234,-3.8828,-3.8125,-3.7598,-3.6191,0.0,0.0,0.0,0.0,0.0,0.0,0.0,0.0,0.0,0.0,0.0,0.0,0.0,0.0,0.0,0.0,0.0,0.0,0.0,0.0,-4.0436,-4.2229,-4.3694,-4.3939,-4.4451,-4.4697,-4.4453,-4.4443,-4.4387,-4.4165,-4.3995,-4.3851,-4.3771,-4.36,-4.3515,-4.3515,-4.3515,-4.3515,-4.3515,-4.3515,-4.3515,-4.3515,-4.3515,-4.3515,-4.3515,0.0,0.0,-4.3394,-4.3251,-4.3087,-4.2862,-4.2534,-4.219,-4.187,-4.1648,-4.1244,-4.0721,-4.0436,-4.0238,-4.0096,-4.0096,-4.0096,-4.0096,0.0,0.0,0.0,0.0,0.0,0.0,0.0,0.0,0.0,0.0,-2.4704,-2.6915,-2.8515,-2.9773,-3.0965,-3.2145,-3.2167,0.0,0.0,-3.3489,-3.4715,-3.6438,-3.7693,-3.8957,-4.022,-4.1896,-4.2958,-4.3407,-4.471,-4.5371,-4.5448,-4.5447,-4.5482,-4.5552,-4.5665,-4.5754,-4.5867,-4.6,-4.6084,-4.615,-4.6181,-4.5959,-4.5507,-4.4678,-4.4352,-4.4139,-4.2402,-4.1797,-4.1601,-4.0292,-3.9589,-3.9023,-3.7713,-3.6697,-3.5584,0.0,0.0,0.0,0.0,0.0,0.0,0.0,0.0,0.0,0.0,0.0,0.0,0.0,0.0,-3.7353,-3.8989,0.0,-4.0918,-4.22,-4.3414,-4.4317,-4.4641,-4.4978,-4.5103,-4.4821,-4.4659,-4.4468,-4.4314,-4.4085,-4.3897,-4.3804,-4.3634,-4.3549,-4.3496,-4.3515,-4.3515,-4.3515,-4.3515,-4.3515,-4.3515,-4.3515,-4.3515,-4.3515,-4.3515,-4.348,-4.3446,-4.3358,-4.3178,-4.2975,-4.2767,-4.2434,-4.2061,-4.167,-4.1221,-4.0769,-4.051,-4.0288,-4.0096,-4.0096,-4.0096,-4.0096,0.0,0.0,0.0,0.0,0.0,0.0,0.0,0.0,0.0,0.0,0.0,-2.5543,-2.6466,-2.7917,-2.9502,0.0,0.0,0.0,0.0,-3.3708,-3.5309,-3.786,-3.8645,-3.9815,-4.1496,-4.2383,-4.3246,-4.4126,-4.4982,-4.5526,-4.5737,-4.5745,-4.5766,-4.5756,-4.5828,-4.5889,-4.5944,-4.6074,-4.6157,-4.6206,-4.621,-4.6257,-4.6191,-4.5332,-4.5,-4.4785,-4.3222,-4.2539,-4.2265,-4.1385,-4.0662,-3.9958,-3.892,-3.765,-3.6107,-3.4018,-3.2904,0.0,0.0,0.0,0.0,0.0,0.0,0.0,0.0,-3.5829,-3.6532,-3.7458,-3.8151,-3.9101,-4.0773,-4.1166,-4.1904,-4.3957,-4.4428,-4.4737,-4.5323,-4.5348,-4.5203,-4.4955,-4.4757,-4.4578,-4.4411,-4.4173,-4.3961,-4.3804,-4.3667,-4.3565,-4.3496,-4.3515,-4.3515,-4.3515,-4.3515,-4.3515,-4.3515,-4.3515,-4.3515,-4.3515,-4.3515,-4.3515,-4.3497,-4.3429,-4.3305,-4.316,-4.2938,-4.265,-4.2267,-4.1714,-4.1267,-4.0942,-4.068,-4.0412,-4.0138,-4.0113,-4.0096,-4.0096,0.0,0.0,0.0,0.0,0.0,0.0,0.0,0.0,0.0,0.0,0.0,0.0,0.0,0.0,0.0,0.0,0.0,0.0,-3.3052,-3.3921,-3.5532,-3.8137,-3.835,-3.9185,-4.0849,-4.1761,-4.2634,-4.3493,-4.4303,-4.5104,-4.5872,-4.5938,-4.5973,-4.5978,-4.6046,-4.606,-4.6087,-4.6164,-4.6182,-4.6212,-4.6262,-4.6289,-4.6205,-4.5324,-4.4992,-4.4877,-4.39,-4.3061,-4.2261,-4.1381,-4.1049,-4.0698,-3.9096,-3.847,-3.7669,-3.4369,-3.3334,-3.306,-3.2197,-3.254,-3.3498,-3.5083,-3.5544,-3.6018,0.0,-3.7953,-3.8377,-3.9953,-4.0291,-4.0831,-4.2505,-4.3401,-4.397,-4.425,-4.4888,-4.5361,-4.54,-4.535,-4.5235,-4.5103,-4.4895,-4.4667,-4.4426,-4.4199,-4.402,-4.382,-4.3667,-4.3565,-4.3496,-4.3515,-4.3515,-4.3515,-4.3515,-4.3515,-4.3515,-4.3515,-4.3515,-4.3515,-4.3515,-4.3515,-4.3497,-4.3429,-4.3394,-4.3323,-4.2901,-4.2573,-4.2267,-4.1909,-4.152,-4.114,-4.0942,-4.0607,-4.0263,-4.0121,-4.0096,-4.0096,0.0,0.0,0.0,0.0,0.0,0.0,0.0,0.0,0.0,0.0,0.0,0.0,0.0,0.0,0.0,0.0,0.0,0.0,-3.2447,-3.3792,-3.5468,-3.7576,-3.8589,-3.9447,-4.0145,-4.1509,-4.2386,-4.2757,-4.3601,-4.4455,-4.5315,-4.5354,-4.5634,-4.6115,-4.6156,-4.6158,-4.6158,-4.6195,-4.6226,-4.6211,-4.5741,-4.5517,-4.5398,-4.4518,-4.3554,-4.2633,-4.2304,-4.1959,0.0,0.0,-3.9591,-3.9375,-3.8178,-3.7786,-3.7201,-3.4254,-3.3395,-3.3218,-3.2349,-3.344,-3.5015,-3.5684,-3.6607,-3.7773,-3.9427,-3.9716,-4.012,-4.1764,-4.2075,-4.2402,-4.3574,-4.4066,-4.447,0.0,-4.5346,-4.5522,-4.5476,-4.541,-4.532,-4.5224,-4.5045,-4.4808,-4.4537,-4.4364,-4.4173,-4.3929,-4.3783,-4.387,-4.4245,-4.423,-4.4415,-4.4874,-4.4892,-4.4892,-4.4892,-4.4892,-4.4892,-4.4892,-4.4892,-4.4892,-4.4892,-4.4875,-4.4583,-4.4053,-4.3194,-4.2689,-4.245,-4.2103,-4.1762,-4.1408,-4.1088,-4.0847,-4.0607,-4.0313,-4.0163,-4.0096,0.0,0.0,0.0,0.0,0.0,0.0,0.0,0.0,0.0,0.0,0.0,0.0,0.0,0.0,0.0,0.0,0.0,0.0,0.0,-3.3099,-3.4798,-3.6751,-3.8235,-3.9113,-3.9367,-4.0617,-4.1495,-4.1963,-4.2601,-4.3477,-4.4569,-4.4564,-4.4917,-4.5528,-4.575,-4.5835,-4.5839,-4.5839,-4.5873,-4.5839,-4.4956,-4.4565,-4.4393,-4.3304,-4.2094,-4.0981,-4.1042,-4.0785,0.0,0.0,-3.814,-3.7942,-3.6822,-3.6489,-3.6038,-3.3717,-3.3208,-3.3338,-3.3164,-3.4639,-3.6384,-3.7032,-3.814,-3.949,-4.1117,-4.1416,-4.1684,-4.2857,-4.3103,-4.328,-4.3863,-4.397,-4.4239,-4.5094,-4.5248,-4.5308,-4.5485,-4.5438,-4.539,-4.5317,-4.5148,-4.4919,-4.4685,-4.4496,-4.4371,-4.4318,-4.4216,-4.4418,-4.5125,-4.5092,-4.5296,-4.5883,-4.5902,-4.5902,-4.5902,-4.5902,-4.5902,-4.5902,-4.5902,-4.5902,-4.5902,-4.5902,-4.5553,-4.4876,-4.4033,-4.3406,-4.2992,-4.2652,-4.2193,-4.1631,-4.1272,-4.1018,-4.0864,-4.0485,-4.0263,-4.0163,0.0,0.0,0.0,0.0,0.0,0.0,0.0,0.0,0.0,0.0,0.0,0.0,0.0,0.0,0.0,0.0,0.0,0.0,0.0,-3.1686,-3.3307,-3.5825,-3.68,-3.7679,-3.8518,-3.8596,-3.944,-4.1144,-4.1164,-4.2045,-4.3747,-4.3747,-4.3747,-4.3805,-4.4586,-4.4932,-4.4938,-4.4937,-4.494,-4.4863,-4.3986,-4.3608,-4.3362,-4.1715,-4.1007,-4.0915,-4.0977,0.0,0.0,0.0,-3.7242,-3.693,-3.5217,-3.4672,-3.4338,-3.264,-3.2688,-3.3643,-3.5252,-3.6363,-3.7665,-4.0121,-4.0743,-4.117,-4.2847,-4.3125,-4.3042,-4.3092,-4.3099,-4.3104,-4.3124,-4.3143,-4.3393,-4.4201,-4.4335,-4.4607,-4.5389,-4.5438,-4.539,-4.5317,-4.5181,-4.5033,0.0,-4.4565,-4.4614,-4.5135,-4.5049,-4.5284,-4.6027,-4.5938,-4.5865,-4.5902,-4.5902,-4.5902,-4.5902,-4.5902,-4.5902,-4.5902,-4.5902,-4.5902,-4.5902,-4.5902,-4.5847,-4.5754,-4.5586,-4.496,-4.404,-4.3686,-4.2888,-4.1852,-4.152,-4.1198,-4.0864,-4.0583,-4.0412,-4.028,0.0,0.0,0.0,0.0,0.0,0.0,0.0,0.0,0.0,0.0,0.0,0.0,0.0,0.0,0.0,0.0,0.0,0.0,0.0,-3.0326,-3.1748,-3.3173,-3.4631,-3.5546,-3.5839,-3.6977,-3.7862,-3.8455,-3.9034,-3.9901,-4.1059,-4.1649,-4.2195,-4.2732,-4.3587,-4.3964,-4.3962,-4.3968,-4.3973,-4.3833,-4.2381,-4.1807,-4.1597,-3.9853,-3.8485,-3.7453,0.0,0.0,0.0,0.0,0.0,0.0,-3.3868,-3.3673,-3.3553,-3.3002,-3.384,-3.508,-3.565,-3.7215,-3.9023,-4.0413,-4.1184,-4.2027,-4.3662,-4.3539,-4.3258,-4.3792,-4.3459,-4.3104,-4.3104,-4.3104,-4.3181,-4.3451,-4.3951,-4.4393,-4.4664,-4.5139,-4.5429,-4.5361,-4.5298,0.0,0.0,0.0,0.0,-4.5401,-4.5683,-4.6183,-4.6926,-4.6801,-4.6948,-4.748,-4.7498,-4.7498,-4.7498,-4.7498,-4.7498,-4.7498,-4.7498,-4.7498,-4.748,-4.6948,-4.6672,-4.6635,-4.601,-4.5475,-4.5009,-4.4813,-4.4022,-4.2928,-4.2652,-4.2003,-4.1198,-4.0871,-4.0631,-4.0412,0.0,0.0,0.0,0.0,0.0,0.0,0.0,0.0,0.0,0.0,0.0,0.0,0.0,0.0,0.0,0.0,0.0,0.0,0.0,0.0,-3.0013,-3.0909,-3.2574,-3.3505,-3.3505,-3.4896,-3.5782,-3.6101,-3.6678,-3.7553,-3.8708,-3.9291,-4.0011,-4.0832,-4.1688,-4.206,-4.2077,-4.2078,-4.2068,-4.1961,-4.0505,-3.9742,-3.9309,-3.7874,-3.6454,0.0,0.0,0.0,0.0,0.0,0.0,0.0,-3.269,-3.2904,-3.3288,-3.388,-3.4855,-3.5921,-3.6841,-3.8479,-4.0191,-4.1319,-4.2225,-4.3127,-4.416,-4.3943,-4.3426,-4.3017,-4.2527,-4.1989,-4.1393,-4.1527,-4.1835,-4.2124,-4.2874,-4.3624,-4.422,-4.4743,-4.515,-4.5371,-4.533,-4.5538,0.0,0.0,0.0,-4.642,-4.662,-4.7048,-4.7792,-4.7629,-4.7755,-4.8288,-4.8306,-4.8306,-4.8306,-4.8306,-4.8306,-4.8306,-4.8306,-4.8306,-4.8288,-4.7755,-4.7516,-4.7498,-4.6908,-4.639,-4.5942,-4.5785,-4.5032,-4.39,-4.3322,-4.2608,-4.1833,-4.1139,-4.0752,-4.0534,0.0,0.0,0.0,0.0,0.0,0.0,0.0,0.0,0.0,0.0,0.0,0.0,0.0,0.0,0.0,0.0,0.0,0.0,0.0,0.0,0.0,-2.8956,-3.0597,-3.1479,-3.1479,-3.2342,-3.3208,-3.4019,-3.4142,-3.5025,-3.6638,-3.6741,-3.725,-3.8112,-3.8932,-3.9303,-3.9295,-3.9301,-3.9309,-3.9222,-3.834,-3.751,-3.6675,-3.5753,0.0,0.0,0.0,0.0,0.0,0.0,-3.1763,-3.1802,-3.185,-3.2483,-3.3546,-3.5126,-3.5687,-3.6339,-3.8788,-4.0108,-4.1156,-4.2833,-4.379,-4.4336,-4.4383,-4.4234,-4.3412,-4.0997,-4.0439,-3.99,-3.8296,-3.8661,-3.9488,-4.0296,-4.1154,-4.2308,-4.3981,-4.4273,-4.4574,-4.5314,-4.5388,-4.5595,-4.6212,-4.6935,0.0,-4.8125,0.0,-4.7863,-4.8568,-4.842,-4.8306,-4.8306,-4.8306,-4.8306,-4.8306,-4.8306,-4.8306,-4.8306,-4.8306,-4.8306,-4.8306,-4.8306,-4.8306,-4.8287,-4.8228,-4.769,-4.686,-4.6662,-4.5905,-4.4778,-4.3689,-4.3068,-4.2675,-4.1435,-4.0875,-4.0673,0.0,0.0,0.0,0.0,0.0,0.0,0.0,0.0,0.0,0.0,0.0,0.0,0.0,0.0,0.0,0.0,0.0,0.0,0.0,0.0,0.0,0.0,0.0,0.0,0.0,0.0,0.0,0.0,0.0,-3.1908,-3.2973,-3.3619,-3.4377,-3.5213,-3.6125,-3.6511,-3.6523,-3.6523,-3.6554,-3.6528,0.0,-3.5158,-3.4805,0.0,0.0,0.0,0.0,0.0,0.0,-3.0571,-3.1234,-3.1846,-3.2497,-3.3732,-3.5044,-3.5469,-3.6935,-3.8691,-3.9958,-4.0921,-4.1998,-4.3686,-4.3761,-4.3583,-4.4179,-4.2852,-4.1285,-4.0631,-3.9515,-3.8481,-3.8009,-3.8105,-3.8512,-3.9325,-4.0189,-4.134,-4.3029,-4.3817,-4.4518,-4.5313,-4.5915,-4.6528,-4.7184,-4.7852,0.0,0.0,-4.8744,-4.8563,-4.8605,-4.842,-4.8306,-4.8306,-4.8306,-4.8306,-4.8306,-4.8306,-4.8306,-4.8306,-4.8306,-4.8306,-4.8306,-4.8306,-4.8306,-4.8306,-4.8267,-4.8118,-4.7837,-4.768,-4.7007,-4.5998,-4.5466,-4.4337,-4.2939,-4.2375,-4.1608,-4.0817,0.0,0.0,0.0,0.0,0.0,0.0,0.0,0.0,0.0,0.0,0.0,0.0,0.0,0.0,0.0,0.0,0.0,0.0,0.0,0.0,0.0,0.0,0.0,0.0,0.0,0.0,0.0,0.0,0.0,0.0,0.0,-3.0893,-3.1584,-3.2414,-3.2967,-3.3211,-3.3212,-3.3224,0.0,0.0,0.0,0.0,0.0,0.0,0.0,0.0,0.0,0.0,-2.9768,-3.1078,-3.2051,-3.2916,-3.3782,-3.5258,-3.6735,-3.7101,-3.8488,-4.0048,-4.0896,-4.2017,-4.3079,-4.3676,-4.3737,-4.3451,-4.2777,-4.1535,-4.0073,-3.8604,-3.7538,-3.6613,-3.5842,-3.6308,-3.708,-3.7873,-3.9035,-4.0558,-4.261,-4.331,-4.4058,-4.5255,-4.6106,-4.6855,-4.7531,-4.82,-4.8833,0.0,-4.9094,-4.8803,-4.8605,-4.842,-4.8306,-4.8306,-4.8306,-4.8306,-4.8306,-4.8306,-4.8306,-4.8306,-4.8306,-4.8306,-4.8306,-4.8306,-4.8306,-4.8306,0.0,-4.8267,-4.8187,-4.811,-4.7656,-4.6975,-4.6383,-4.5187,-4.3717,-4.3022,-4.2044,-4.0995,0.0,0.0,0.0,0.0,0.0,0.0,0.0,0.0,0.0,0.0,0.0,0.0,0.0,0.0,0.0,0.0,0.0,0.0,0.0,0.0,0.0,0.0,0.0,0.0,0.0,0.0,0.0,0.0,0.0,0.0,0.0,0.0,0.0,0.0,0.0,0.0,0.0,0.0,0.0,0.0,0.0,0.0,0.0,0.0,0.0,0.0,0.0,-2.8766,-3.0375,-3.2166,-3.3442,-3.4407,-3.5283,-3.6752,-3.8319,-3.9185,-4.0011,-4.0857,-4.1849,-4.3184,-4.4126,-4.3415,-4.3684,-4.3472,-4.1038,-4.0231,-3.9135,-3.6108,-3.5261,-3.4606,-3.3152,-3.4168,-3.5469,-3.6278,-3.7811,-3.9766,-4.2209,-4.2745,-4.3474,-4.5034,-4.6038,-4.6844,-4.7531,-4.8213,-4.8847,-4.9389,-4.9127,-4.8838,-4.8605,-4.842,-4.8306,-4.8306,-4.8306,-4.8306,-4.8306,-4.8306,-4.8306,-4.8306,-4.8306,-4.8306,-4.8306,-4.8306,-4.8306,-4.8306,-4.8306,0.0,-4.8207,-4.8207,-4.8028,-4.7669,-4.6819,-4.5831,-4.4757,-4.3625,-4.2434,-4.1371,0.0,0.0,0.0,0.0,0.0,0.0,0.0,0.0,0.0,0.0,-1.939,-1.9604,0.0,0.0,0.0,0.0,0.0,0.0,0.0,0.0,0.0,0.0,0.0,0.0,0.0,0.0,0.0,0.0,0.0,0.0,0.0,0.0,0.0,0.0,0.0,0.0,0.0,0.0,0.0,0.0,0.0,0.0,0.0,0.0,0.0,0.0,0.0,-2.8205,-2.9427,-3.1762,-3.3684,-3.5246,-3.6109,-3.7555,-3.9079,-3.9953,-4.0816,-4.1822,-4.3376,-4.4009,-4.4182,-4.4048,-4.3568,-4.2656,-4.0833,-3.8799,-3.6919,-3.5671,-3.4271,-3.3163,-3.286,-3.3592,-3.4508,-3.531,-3.6859,-3.8598,-4.0491,-4.1944,-4.3158,-4.4122,-4.5594,-4.68,-4.7531,-4.8264,0.0,0.0,-4.9311,-4.8995,-4.8623,-4.8513,-4.8401,-4.8306,-4.8306,-4.8306,-4.8306,-4.8306,-4.8306,-4.8306,-4.8306,-4.8306,-4.8306,-4.8306,-4.8306,-4.8306,-4.8306,0.0,-4.8286,-4.8226,-4.8168,-4.807,-4.762,-4.6825,-4.5799,-4.4666,-4.3514,-4.2374,0.0,0.0,0.0,0.0,0.0,0.0,0.0,-1.8276,-1.8771,-1.9183,-1.9398,-1.9512,-1.9533,-1.9576,0.0,0.0,0.0,0.0,0.0,0.0,0.0,0.0,0.0,0.0,0.0,0.0,-2.0964,-2.1417,0.0,0.0,0.0,-2.2804,-2.3053,0.0,0.0,0.0,0.0,0.0,0.0,0.0,0.0,0.0,0.0,0.0,0.0,0.0,0.0,-2.8002,-2.9057,-3.1097,-3.3242,-3.5342,-3.6736,-3.8032,-3.9197,-4.0049,-4.1216,-4.2403,-4.3187,-4.3752,-4.3982,-4.3541,-4.2451,-4.1062,-3.9378,-3.7368,-3.5511,-3.4255,-3.2613,-3.1386,-3.1396,-3.1706,-3.2531,-3.4241,-3.5586,-3.7313,-3.9938,-4.0989,-4.2115,-4.3796,-4.5105,-4.6334,-4.754,-4.8301,-4.8951,-4.9607,-4.9402,-4.9096,-4.8714,-4.8513,-4.8363,-4.8306,-4.8306,-4.8306,-4.8306,-4.8306,-4.8306,-4.8306,-4.8306,-4.8306,-4.8306,-4.8306,-4.8306,-4.8306,-4.8306,0.0,-4.8287,-4.8267,-4.8228,-4.8168,-4.7949,-4.7254,-4.6212,-4.5083,-4.3974,-4.2886,0.0,0.0,0.0,0.0,0.0,0.0,0.0,-1.8713,-1.9211,-1.9227,-1.9303,-1.9405,-1.9461,-1.9475,-1.9509,0.0,0.0,0.0,0.0,0.0,0.0,0.0,0.0,0.0,0.0,0.0,0.0,-2.0441,-2.0441,0.0,0.0,0.0,0.0,0.0,-2.1951,-2.2079,0.0,0.0,0.0,0.0,0.0,0.0,0.0,0.0,0.0,0.0,0.0,-2.7527,-2.838,-3.0191,-3.2117,-3.414,-3.615,-3.7632,-3.8851,-3.9843,-4.1064,-4.217,-4.2532,-4.3134,-4.3439,-4.259,-4.1245,-3.9643,-3.7811,-3.6075,-3.4348,-3.2497,-3.0898,-2.9751,-2.9572,-2.9843,-3.0758,-3.2759,-3.4282,-3.6207,-3.9079,-3.9947,-4.116,-4.3473,-4.4515,-4.5679,-4.7293,-4.8071,0.0,-4.9396,-4.9305,-4.9113,-4.8768,-4.8495,-4.8325,-4.8306,-4.8306,-4.8306,-4.8306,-4.8306,-4.8306,-4.8306,-4.8306,-4.8306,-4.8306,-4.8306,-4.8306,-4.8306,-4.8306,0.0,0.0,-4.8306,-4.8267,-4.8207,-4.809,-4.7438,-4.6398,-4.5297,-4.4235,-4.317,0.0,0.0,0.0,0.0,0.0,0.0,0.0,-1.9066,-1.9227,-1.9274,-1.9303,-1.9305,-1.9323,-1.9427,-1.9509,0.0,0.0,0.0,0.0,0.0,0.0,0.0,0.0,0.0,0.0,0.0,0.0,-1.9601,-1.9601,0.0,0.0,0.0,0.0,0.0,0.0,-2.1069,-2.1185,0.0,0.0,0.0,0.0,0.0,0.0,0.0,0.0,0.0,0.0,-2.6126,-2.6618,-2.896,-2.9936,-3.0593,-3.3022,-3.552,-3.7868,-3.9461,-4.0049,-4.0485,-4.2003,-4.2477,-4.2344,-4.1529,-4.0637,-3.9309,-3.69,-3.5031,-3.3162,-3.0742,-2.9532,-2.8681,-2.7871,-2.9033,-3.0186,-3.0402,-3.3118,-3.5596,-3.6691,-3.8837,-4.0949,-4.269,-4.3685,-4.4851,-4.6451,-4.7274,-4.7954,-4.8559,-4.8871,-4.8906,-4.8623,-4.8532,-4.8438,-4.8306,-4.8306,-4.8306,-4.8306,-4.8306,-4.8306,-4.8306,-4.8306,-4.8306,-4.8306,-4.8306,-4.8306,-4.8306,-4.8306,0.0,0.0,-4.8306,-4.8287,-4.8287,-4.8226,-4.7574,-4.6573,-4.5599,-4.4502,-4.3337,0.0,0.0,0.0,0.0,0.0,0.0,-1.8984,-1.9102,-1.9227,-1.9301,-1.9311,-1.9297,-1.9297,-1.9346,-1.9379,0.0,0.0,0.0,0.0,0.0,0.0,0.0,0.0,0.0,0.0,0.0,-1.9346,-1.9379,-1.9379,0.0,0.0,0.0,0.0,0.0,0.0,-2.0124,-2.0177,0.0,0.0,0.0,0.0,0.0,0.0,0.0,0.0,0.0,0.0,0.0,-2.6038,-2.7494,-2.8689,-2.9747,-3.0748,-3.2478,-3.4603,-3.6834,-3.855,-3.9878,-4.0519,-4.1077,-4.1247,-4.049,-3.9294,-3.7745,-3.5754,-3.3658,-3.1693,-3.0145,-2.8412,-2.7225,-2.7347,-2.7983,-2.8814,-2.9871,-3.2053,-3.414,-3.5578,-3.7515,-3.9435,-4.1147,-4.2554,-4.403,-4.5682,0.0,-4.808,-4.9089,-4.9165,-4.9044,-4.8732,-4.8587,-4.8438,-4.8306,-4.8306,-4.8306,-4.8306,-4.8306,-4.8306,-4.8306,-4.8306,-4.8306,-4.8306,-4.8306,-4.8306,-4.8306,-4.8306,0.0,0.0,-4.8306,-4.8306,-4.8287,-4.8226,-4.7653,-4.6752,-4.5678,-4.4662,-4.3627,0.0,0.0,0.0,0.0,0.0,-1.8852,-1.901,-1.9137,-1.9216,-1.9298,-1.93,-1.9297,-1.9297,-1.9297,-1.9297,-1.9297,0.0,0.0,0.0,0.0,0.0,0.0,0.0,0.0,0.0,0.0,0.0,-1.9297,-1.9297,-1.9323,0.0,0.0,-1.9405,-1.9468,0.0,0.0,0.0,0.0,0.0,0.0,0.0,0.0,0.0,0.0,0.0,0.0,0.0,0.0,0.0,0.0,0.0,-2.8357,-2.8628,-2.9839,-3.1691,-3.4322,-3.6512,-3.8133,-3.8377,-3.9033,-3.9514,-3.9007,-3.761,-3.5995,-3.4577,-3.2371,-3.0311,-2.9165,-2.7397,-2.6131,-2.6467,-2.6797,-2.7509,-2.9027,-3.0719,-3.258,-3.4626,-3.638,-3.8186,-4.0194,-4.1909,-4.3483,-4.4901,-4.6617,-4.8093,-4.9158,-4.9287,-4.9162,-4.8822,-4.8624,-4.8457,-4.8306,-4.8306,-4.8306,-4.8306,-4.8306,-4.8306,-4.8306,-4.8306,-4.8306,-4.8306,-4.8306,-4.8306,-4.8306,-4.8306,0.0,0.0,-4.8306,-4.8306,-4.8268,-4.7991,-4.7365,-4.6503,-4.5433,-4.444,-4.352,0.0,0.0,0.0,0.0,0.0,0.0,-1.9062,-1.9162,-1.9224,-1.9282,-1.9297,-1.9297,-1.9297,-1.9297,-1.9297,-1.9297,0.0,0.0,0.0,0.0,0.0,0.0,0.0,0.0,0.0,0.0,0.0,-1.9297,-1.9297,-1.9297,-1.9297,-1.9297,-1.9331,-1.9398,0.0,0.0,0.0,0.0,0.0,0.0,0.0,0.0,0.0,0.0,0.0,0.0,0.0,0.0,0.0,0.0,0.0,0.0,0.0,-2.7933,-2.9772,-3.2437,-3.3799,-3.464,-3.5523,-3.6315,-3.6932,-3.6932,-3.5668,-3.4229,-3.3388,-3.1296,-2.9072,-2.7456,-2.6464,-2.5664,-2.4869,-2.5491,-2.642,-2.7367,-2.8995,-3.1036,-3.3658,-3.5511,-3.7571,-4.0194,-4.198,-4.3317,-4.4135,-4.6218,-4.7757,-4.8386,-4.8961,0.0,-4.8822,-4.866,-4.8495,-4.8306,-4.8306,-4.8306,-4.8306,-4.8306,-4.8306,-4.8306,-4.8306,-4.8306,-4.8306,-4.8306,-4.8306,0.0,0.0,0.0,0.0,-4.8306,-4.8306,-4.8233,-4.7424,-4.658,-4.5699,-4.4766,-4.3721,-4.2782,0.0,0.0,0.0,0.0,0.0,0.0,0.0,-1.916,-1.9224,-1.9282,-1.9297,-1.9297,-1.9297,-1.9297,-1.9297,-1.9297,0.0,0.0,0.0,0.0,0.0,0.0,0.0,0.0,0.0,0.0,0.0,0.0,0.0,-1.9297,-1.9297,-1.9297,-1.9305,-1.9331,-1.939,-1.9413,0.0,0.0,0.0,0.0,0.0,0.0,0.0,0.0,0.0,0.0,0.0,0.0,0.0,0.0,0.0,0.0,0.0,0.0,0.0,-2.8582,-3.0939,-3.3369,-3.3697,-3.4377,-3.4841,-3.4314,-3.3775,-3.2883,-3.0968,-2.9502,-2.8089,-2.647,-2.55,-2.4897,-2.4727,-2.5434,-2.6344,-2.7342,-2.8954,-3.0822,-3.2891,-3.515,-3.7145,-3.862,-4.1234,-4.3704,0.0,0.0,-4.7815,-4.8418,-4.9036,0.0,-4.8942,-4.8713,-4.8495,-4.8306,-4.8306,-4.8306,-4.8306,-4.8306,-4.8306,-4.8306,-4.8306,-4.8306,-4.8306,-4.8306,-4.8306,0.0,0.0,0.0,0.0,-4.8306,-4.7994,-4.7443,-4.7204,-4.625,-4.5004,-4.4565,-4.3759,-4.2824,0.0,0.0,0.0,0.0,0.0,0.0,0.0,-1.915,-1.9224,-1.9282,-1.9297,-1.9297,-1.9297,-1.9297,-1.9297,-1.9297,0.0,0.0,0.0,0.0,0.0,0.0,0.0,0.0,0.0,0.0,0.0,0.0,0.0,0.0,0.0,0.0,-1.9297,-1.9297,-1.9331,0.0,0.0,0.0,0.0,0.0,0.0,0.0,-2.3143,0.0,0.0,0.0,0.0,0.0,0.0,0.0,0.0,0.0,0.0,0.0,0.0,0.0,-2.8267,-3.0602,-3.1314,-3.2317,-3.305,-3.2531,-3.1939,-3.1105,-2.9587,-2.8145,-2.683,-2.5829,-2.5003,-2.4488,-2.4607,-2.5378,-2.6324,-2.7297,-2.8958,-3.0726,-3.2546,-3.4997,-3.7433,-3.9654,-4.1703,0.0,0.0,-4.6743,-4.7414,-4.8071,-4.8654,0.0,-4.9075,-4.882,-4.8569,-4.8382,-4.8343,-4.8306,-4.8306,-4.8306,-4.8306,-4.8306,-4.8306,-4.8306,-4.8306,-4.8306,-4.8306,0.0,0.0,0.0,0.0,-4.7957,-4.7553,-4.7039,-4.6434,-4.5572,-4.4601,-4.4108,-4.3505,-4.2805,0.0,0.0,0.0,0.0,0.0,0.0,0.0,0.0,-1.9232,-1.9282,-1.9297,-1.9315,-1.9297,-1.9297,-1.9315,-1.9297,0.0,0.0,0.0,0.0,0.0,0.0,0.0,0.0,0.0,0.0,0.0,-1.9297,-1.9297,-1.9297,-1.9297,0.0,0.0,-1.9297,-1.9297,0.0,0.0,0.0,0.0,0.0,0.0,0.0,0.0,0.0,0.0,0.0,0.0,0.0,0.0,0.0,0.0,0.0,0.0,0.0,0.0,0.0,0.0,0.0,0.0,-3.0057,-3.124,-3.124,-3.0131,-2.8993,-2.8938,-2.7147,0.0,-2.542,-2.4922,-2.4504,-2.4579,-2.5404,-2.6379,-2.7324,-2.8962,-3.0731,-3.2529,-3.504,-3.8285,-4.2596,-4.3043,0.0,-4.5237,-4.6006,-4.6679,-4.7353,-4.7974,0.0,-4.908,-4.8925,-4.8715,-4.8494,-4.8382,-4.8306,-4.8306,-4.8306,-4.8306,-4.8306,-4.8306,-4.8306,-4.8306,-4.8306,-4.8306,0.0,0.0,0.0,0.0,-4.7351,-4.6984,-4.6782,-4.5278,-4.4619,-4.4419,-4.3543,-4.3031,-4.2764,0.0,0.0,0.0,0.0,0.0,0.0,0.0,0.0,0.0,0.0,-1.9338,-1.9357,-1.9315,-1.9357,-1.9357,0.0,0.0,0.0,0.0,0.0,0.0,0.0,0.0,0.0,0.0,0.0,0.0,-1.9297,-1.9297,-1.9297,-1.9297,-1.9297,0.0,0.0,0.0,0.0,0.0,0.0,0.0,0.0,0.0,0.0,0.0,0.0,0.0,0.0,-2.419,-2.419,0.0,0.0,0.0,0.0,0.0,0.0,0.0,0.0,-2.5044,0.0,-2.6187,0.0,-2.7776,-2.7776,-2.7482,-2.704,0.0,-2.5837,-2.5268,-2.4709,-2.4931,-2.5292,-2.5462,-2.6274,-2.7236,-2.8177,-2.9315,-3.0704,-3.2473,-3.5546,-3.8962,-4.2654,-4.3043,-4.3624,-4.5237,-4.6056,-4.6477,-4.6498,0.0,-4.8359,-4.8359,-4.8677,-4.8767,-4.8587,-4.8513,-4.8401,-4.8306,-4.8306,-4.8306,-4.8306,-4.8306,-4.8306,-4.8306,-4.8306,-4.8306,0.0,0.0,0.0,-4.7314,-4.6526,-4.5828,-4.5223,-4.4838,-4.4271,-4.365,-4.3324,-4.3031,-4.2745,0.0,0.0,0.0,0.0,0.0,0.0,0.0,0.0,0.0,0.0,0.0,0.0,0.0,0.0,0.0,0.0,0.0,0.0,0.0,0.0,0.0,0.0,0.0,0.0,0.0,0.0,0.0,0.0,0.0,-1.9297,0.0,0.0,0.0,0.0,0.0,0.0,0.0,0.0,0.0,0.0,-2.2189,0.0,0.0,0.0,0.0,0.0,-2.419,-2.419,0.0,-2.419,-2.419,-2.419,0.0,0.0,0.0,0.0,-2.4511,-2.4842,-2.4842,-2.5713,-2.6704,-2.7053,-2.6869,-2.6576,-2.6531,-2.6219,-2.5854,-2.5492,-2.5742,-2.6106,-2.6311,-2.7435,-2.8515,-2.906,-3.0628,-3.2561,-3.4787,-3.708,-3.9677,-4.2739,-4.306,-4.3679,0.0,-4.5782,-4.6088,-4.6317,0.0,-4.7617,-4.8221,-4.8373,-4.8534,-4.8731,-4.8587,-4.8438,-4.8306,-4.8306,-4.8306,-4.8306,-4.8306,-4.8306,-4.8306,-4.7921,-4.7736,0.0,0.0,0.0,-4.6489,-4.5681,-4.5094,-4.4672,-4.4287,-4.3849,-4.3376,-4.3251,-4.3031,-4.2764,0.0,0.0,0.0,0.0,0.0,0.0,0.0,0.0,0.0,0.0,0.0,0.0,0.0,0.0,0.0,0.0,0.0,0.0,0.0,0.0,0.0,0.0,0.0,0.0,0.0,0.0,0.0,0.0,0.0,0.0,0.0,0.0,-1.9297,0.0,0.0,0.0,0.0,0.0,0.0,0.0,-2.274,0.0,0.0,0.0,0.0,0.0,0.0,0.0,0.0,-2.419,-2.419,-2.419,-2.419,0.0,0.0,0.0,0.0,0.0,-2.4355,-2.5383,-2.6576,-2.7255,-2.7016,-2.6778,-2.7457,-2.71,-2.6626,-2.6688,-2.6915,-2.7162,-2.7354,-2.8867,-3.0113,-3.0184,-3.2345,-3.4977,-3.7704,-3.8885,-4.0385,-4.2816,-4.3201,0.0,-4.535,-4.5438,-4.5666,-4.6271,0.0,-4.6669,-4.7957,-4.7852,-4.7993,-4.8519,-4.8291,-4.8108,-4.7976,-4.8196,-4.8251,-4.8122,-4.8122,-4.8049,-4.7921,-4.7223,-4.6911,-4.6874,0.0,0.0,-4.5645,-4.4856,-4.4525,-4.4452,-4.3754,-4.3445,-4.3376,-4.3251,-4.3031,-4.2783,0.0,0.0,0.0,0.0,0.0,0.0,0.0,0.0,0.0,0.0,0.0,0.0,0.0,0.0,0.0,0.0,0.0,0.0,0.0,0.0,0.0,0.0,0.0,0.0,-1.9297,0.0,0.0,0.0,0.0,0.0,-1.9297,-1.9297,-1.9297,-1.9297,0.0,0.0,0.0,0.0,0.0,0.0,0.0,0.0,0.0,0.0,0.0,0.0,0.0,0.0,0.0,-2.419,-2.419,-2.419,-2.419,0.0,0.0,0.0,0.0,0.0,-2.5026,-2.5393,-2.5613,-2.5742,-2.619,-2.662,-2.6759,-2.6728,-2.6688,-2.6702,-2.7931,-2.8998,-2.9089,-3.0592,-3.1864,-3.1985,-3.3676,-3.5911,0.0,0.0,-4.1006,-4.2893,0.0,-4.4472,-4.5408,-4.5485,-4.5477,0.0,0.0,-4.6278,-4.6283,-4.683,-4.7056,-4.6882,-4.6711,-4.6573,-4.6433,-4.7683,-4.7957,-4.7278,-4.7278,-4.6948,-4.6269,-4.614,-4.6085,-4.6049,0.0,-4.4892,-4.4837,-4.4011,-4.3681,-4.3663,-4.3551,-4.3445,-4.3376,-4.3251,-4.3068,-4.2805,0.0,0.0,0.0,0.0,0.0,0.0,0.0,0.0,0.0,0.0,0.0,0.0,0.0,0.0,0.0,0.0,0.0,0.0,0.0,0.0,0.0,0.0,-1.9297,-1.9297,-1.9297,0.0,0.0,0.0,0.0,-1.9297,-1.9297,-1.9297,-1.9528,-1.995,0.0,0.0,0.0,0.0,0.0,0.0,0.0,0.0,0.0,0.0,0.0,0.0,0.0,0.0,0.0,0.0,-2.419,-2.419,-2.419,0.0,0.0,0.0,0.0,0.0,-2.5172,-2.5723,-2.6264,-2.7126,-2.7611,-2.8026,-2.8493,-2.8949,-2.9329,-2.9421,-3.0126,-3.0732,-3.0879,-3.238,-3.396,-3.5085,-3.6407,-3.7912,-3.9616,-4.0625,-4.183,0.0,0.0,-4.4635,-4.5463,-4.5513,-4.5457,0.0,0.0,0.0,-4.6057,-4.6269,-4.6471,-4.6647,-4.649,-4.6325,-4.6171,-4.6782,-4.6893,-4.6452,-4.6452,-4.6269,-4.5883,-4.5461,-4.5259,-4.5223,0.0,-4.4048,-4.4011,-4.3662,-4.3515,-4.3515,-4.3515,-4.348,-4.3429,-4.3233,-4.305,-4.2825,0.0,0.0,0.0,0.0,0.0,0.0,0.0,0.0,0.0,0.0,0.0,0.0,0.0,0.0,0.0,0.0,0.0,0.0,0.0,0.0,-1.9885,-1.9885,-1.9885,-1.9701,-1.9315,0.0,-1.9297,-1.9297,-1.9499,-1.9701,-1.9885,-1.9885,-2.0207,-2.0804,0.0,0.0,-2.2125,-2.2731,0.0,0.0,0.0,0.0,0.0,0.0,0.0,0.0,0.0,0.0,0.0,0.0,0.0,0.0,0.0,0.0,0.0,-2.419,-2.4318,-2.4658,-2.5466,-2.6274,-2.7284,-2.89,-2.9304,-2.9529,-3.0396,-3.1088,-3.167,-3.2035,-3.2277,-3.2563,-3.2951,-3.4346,-3.6017,-3.7724,-3.8786,-3.9727,-4.0647,-4.1715,-4.2854,-4.4143,-4.447,-4.4874,-4.5537,-4.5559,0.0,0.0,0.0,0.0,-4.5915,-4.5767,-4.5838,-4.6248,-4.6075,-4.5867,-4.5666,-4.5546,-4.5551,-4.5626,-4.5626,-4.5516,-4.5314,-4.4709,-4.4415,-4.4378,-4.3754,-4.3515,-4.3515,-4.3515,-4.3515,-4.3515,-4.3515,-4.3497,-4.3445,-4.3251,-4.3068,-4.2844,0.0,0.0,0.0,0.0,0.0,0.0,0.0,0.0,0.0,0.0,0.0,0.0,0.0,0.0,0.0,0.0,0.0,0.0,0.0,0.0,-2.161,-2.161,-2.161,-2.0894,-1.9334,-1.9297,-1.9297,-1.9297,-2.0052,-2.0831,-2.161,-2.161,-2.1647,-2.1702,0.0,-2.2152,-2.2914,-2.2988,-2.3428,0.0,0.0,0.0,0.0,0.0,0.0,0.0,0.0,0.0,0.0,0.0,0.0,0.0,0.0,0.0,-2.419,-2.419,-2.4732,-2.5485,-2.63,-2.714,-2.8195,-2.9807,-3.0212,-3.0415,-3.1219,-3.1601,-3.1998,-3.2832,-3.3754,-3.4663,-3.5562,-3.6643,-3.7737,-3.8744,-3.9693,-4.0605,-4.15,0.0,-4.4162,-4.4297,-4.5017,-4.5537,-4.5594,0.0,0.0,0.0,0.0,0.0,-4.5179,-4.505,-4.489,-4.467,-4.4456,-4.4262,-4.4066,-4.3867,-4.4118,-4.4783,-4.4783,-4.4397,-4.368,-4.3625,-4.3589,-4.3588,-4.3533,-4.3515,-4.3515,-4.3515,-4.3515,-4.3515,-4.3515,-4.3463,-4.3394,-4.3394,-4.3178,-4.2882,0.0,0.0,0.0,0.0,0.0,0.0,0.0,0.0,0.0,0.0,0.0,0.0,0.0,0.0,0.0,0.0,0.0,0.0,0.0,0.0,-2.1794,-2.1794,-2.1794,-2.15,-2.0876,-2.0858,-2.0858,-2.0858,-2.117,-2.1482,-2.1794,-2.1794,0.0,0.0,0.0,-2.2997,-2.3749,-2.3749,-2.3914,-2.419,0.0,0.0,0.0,0.0,0.0,0.0,0.0,0.0,0.0,0.0,-2.419,-2.419,0.0,0.0,-2.43,0.0,-2.5154,-2.5697,-2.704,-2.8,-2.9056,-3.0759,-3.1994,-3.2863,-3.316,-3.3726,-3.444,-3.5382,-3.596,-3.6583,-3.7553,-3.8575,-3.9594,-4.0526,-4.1421,-4.2326,-4.3195,-4.3885,-4.4489,-4.5037,-4.5402,-4.5594,-4.5594,0.0,0.0,0.0,0.0,0.0,-4.5224,-4.5068,-4.4846,-4.4632,-4.4435,-4.4218,-4.3958,-4.38,-4.3816,-4.4026,-4.3955,-4.3791,-4.3515,-4.3515,-4.3515,-4.3515,-4.3515,-4.3515,-4.3515,-4.3515,-4.3515,-4.3515,-4.3515,-4.348,-4.3464,-4.3429,-4.3323,-4.3178,0.0,0.0,0.0,0.0,0.0,0.0,0.0,0.0,0.0,0.0,0.0,0.0,0.0,0.0,0.0,0.0,0.0,0.0,0.0,0.0,-2.2565,-2.2565,-2.2565,-2.2565,-2.2565,-2.2565,-2.2308,-2.1794,-2.2051,-2.2308,-2.2565,0.0,0.0,0.0,-2.3373,-2.3676,-2.419,-2.419,-2.419,-2.419,-2.419,-2.419,0.0,0.0,0.0,0.0,0.0,0.0,0.0,0.0,-2.419,0.0,0.0,0.0,0.0,0.0,0.0,-2.6137,-2.7816,-2.8902,-3.0009,-3.2029,-3.3445,-3.457,-3.5377,-3.5824,-3.6363,-3.7374,-3.8126,-3.8911,-3.9871,-4.0635,-4.1312,0.0,-4.2827,-4.362,-4.422,-4.4528,-4.494,-4.5537,-4.5594,-4.5594,0.0,0.0,0.0,0.0,0.0,0.0,0.0,-4.5159,-4.4955,-4.4751,-4.4537,-4.4292,-4.4033,-4.3883,-4.3736,-4.3599,-4.3531,-4.3515,-4.3515,-4.3515,-4.3515,-4.3515,-4.3515,-4.3515,-4.3515,-4.3515,-4.3515,-4.3515,-4.3515,-4.3515,-4.3479,-4.3446,-4.3429,-4.3376,0.0,0.0,0.0,0.0,0.0,0.0,0.0,0.0,0.0,0.0,0.0,0.0,0.0,0.0,0.0,0.0,0.0,0.0,0.0,-2.419,-2.419,-2.419,-2.419,-2.419,-2.419,-2.419,-2.3428,-2.1812,-2.263,-2.341,-2.419,-2.419,0.0,0.0,0.0,-2.419,-2.419,-2.419,-2.419,-2.419,-2.419,-2.419,-2.419,0.0,0.0,0.0,0.0,0.0,0.0,0.0,0.0,0.0,0.0,0.0,0.0,0.0,-2.597,-2.699,-2.8655,-2.981,-3.1125,-3.3664,-3.4423,-3.5195,-3.773,-3.7704,-3.7412,-3.8431,-4.0112,-4.1703,-4.2632,-4.2805,0.0,-4.2998,-4.3737,-4.4303,-4.4308,-4.5056,-4.5594,-4.5594,-4.5594,-4.5594,0.0,0.0,0.0,0.0,0.0,0.0,0.0,-4.5275,-4.508,-4.4808,-4.4605,-4.4364,-4.4091,-4.3897,-4.3736,-4.3599,-4.3531,-4.3515,-4.3515,-4.3515,-4.3515,-4.3515,-4.3515,-4.3515,-4.3515,-4.3515,-4.3515,-4.3515,-4.3515,-4.3515,-4.3515,-4.3515,-4.3464,-4.3394,0.0,0.0,0.0,0.0,0.0,0.0,0.0,0.0,0.0,0.0,0.0,0.0,0.0,0.0,0.0,0.0,0.0,0.0,0.0,-2.419,-2.419,-2.419,-2.419,-2.419,-2.419,-2.419,-2.3969,-2.3502,-2.3731,-2.3969,0.0,0.0,0.0,-2.419,0.0,-2.419,-2.419,-2.419,-2.419,-2.419,-2.419,-2.419,-2.419,0.0,0.0,0.0,0.0,0.0,0.0,0.0,0.0,0.0,0.0,0.0,0.0,-2.6007,-2.6846,-2.7882,-2.9551,-3.1117,-3.2608,-3.408,-3.5844,-3.7634,-3.909,-3.9252,-3.9531,-4.1151,-4.195,-4.2469,-4.2747,-4.3388,0.0,-4.3901,-4.4647,-4.5212,-4.5201,-4.5441,-4.5594,-4.5594,-4.5594,-4.5594,0.0,0.0,0.0,0.0,0.0,0.0,0.0,-4.5258,-4.5103,-4.487,-4.4685,-4.4468,-4.4237,-4.3992,-4.3835,-4.3736,-4.3583,-4.3515,-4.3515,-4.3515,-4.3515,-4.3515,-4.3515,-4.3515,-4.3515,-4.3515,-4.3515,-4.3515,-4.3515,-4.3515,-4.3515,-4.3515,-4.3497,-4.3463,0.0,0.0,0.0,0.0,0.0,0.0,0.0,0.0,0.0,0.0,0.0,0.0,0.0,0.0,0.0,0.0,0.0,0.0,0.0,0.0,-2.419,-2.419,-2.419,-2.419,-2.419,-2.419,-2.419,-2.419,0.0,0.0,0.0,0.0,-2.4677,-2.4677,0.0,-2.4677,-2.4658,-2.4337,-2.419,-2.419,-2.419,-2.419,-2.419,0.0,0.0,0.0,0.0,0.0,0.0,0.0,0.0,0.0,0.0,0.0,-2.5558,-2.6355,-2.7434,-2.8732,-3.0415,-3.2182,-3.3869,-3.5176,-3.7243,-3.9422,-4.1138,-4.1284,-4.1466,-4.2924,-4.3291,-4.3455,-4.3809,-4.4364,0.0,-4.4811,-4.5269,-4.5594,-4.5594,-4.5594,-4.5594,-4.5594,-4.5594,-4.5594,0.0,0.0,0.0,0.0,0.0,0.0,0.0,-4.529,-4.5136,-4.4907,-4.4693,-4.4496,-4.43,-4.4023,-4.3867,-4.3788,-4.3601,-4.3515,-4.3515,-4.3515,-4.3515,-4.3515,-4.3515,-4.3515,-4.3515,-4.3515,-4.3515,-4.3515,-4.3515,-4.3515,-4.3515,-4.3515,-4.3515,-4.3479,0.0,0.0,0.0,0.0,0.0,0.0,0.0,0.0,0.0,0.0,-2.419,0.0,0.0,0.0,0.0,0.0,0.0,0.0,0.0,0.0,-2.4337,-2.441,-2.441,-2.4373,-2.43,-2.43,-2.4263,-2.419,-2.419,0.0,0.0,0.0,-2.5429,-2.5503,0.0,-2.5393,-2.5338,-2.4548,-2.419,-2.419,-2.419,-2.419,-2.419,-2.419,0.0,0.0,0.0,0.0,0.0,0.0,0.0,0.0,-2.419,-2.4805,-2.565,-2.6392,-2.7831,-2.9584,-3.1166,-3.3034,-3.4916,-3.6592,-3.8535,-4.074,-4.3403,-4.3512,-4.3244,-4.399,-4.4231,-4.4556,-4.536,-4.5504,-4.5522,-4.5586,-4.5594,-4.5594,-4.5594,-4.5594,-4.5594,-4.5594,-4.5594,0.0,0.0,0.0,0.0,0.0,0.0,0.0,0.0,-4.5339,-4.5181,-4.4907,-4.4712,-4.451,-4.43,-4.4039,-4.3883,-4.3788,-4.3601,-4.3515,-4.3515,-4.3515,-4.3515,-4.3515,-4.3515,-4.3515,-4.3515,-4.3515,-4.3515,-4.3515,-4.3515,-4.3515,-4.3515,-4.3515,-4.3515,-4.3515,0.0,0.0,0.0,0.0,0.0,0.0,0.0,0.0,0.0,0.0,0.0,0.0,0.0,0.0,0.0,0.0,0.0,0.0,0.0,0.0,-2.5429,-2.6062,-2.608,-2.5786,-2.5154,-2.5136,-2.4824,-2.419,-2.419,0.0,0.0,0.0,0.0,-2.6319,0.0,-2.5393,-2.5338,-2.4548,-2.419,-2.419,-2.419,-2.419,-2.419,-2.419,-2.419,0.0,0.0,0.0,0.0,0.0,0.0,0.0,-2.419,-2.5181,-2.6374,-2.6557,-2.8279,-3.0341,-3.1325,-3.3478,-3.5684,-3.6794,-3.9558,-4.2354,-4.375,-4.448,-4.4892,-4.5064,-4.5151,-4.5274,-4.5475,-4.5531,-4.5577,-4.5594,-4.5594,-4.5594,-4.5594,-4.5594,-4.5594,-4.5594,-4.5594,0.0,0.0,0.0,0.0,0.0,0.0,0.0,-4.541,-4.5339,-4.5181,-4.4907,-4.4764,-4.4565,-4.43,-4.4085,-4.3913,0.0,-4.3601,-4.3515,-4.3515,-4.3515,-4.3515,-4.3515,-4.3515,-4.3515,-4.3515,-4.3515,-4.3515,-4.3515,-4.3515,-4.3515,-4.3515,-4.3515,-4.3515,-4.3515,0.0,0.0,0.0,0.0,0.0,0.0,0.0,0.0,0.0,0.0,0.0,0.0,0.0,0.0,0.0,0.0,0.0,0.0,0.0,0.0,0.0,0.0,-2.6602,-2.6227,-2.5411,-2.5393,-2.5007,-2.419,-2.419,0.0,0.0,0.0,0.0,-2.7145,0.0,-2.597,-2.5897,-2.4704,-2.419,-2.419,-2.419,-2.419,-2.419,-2.419,-2.419,-2.419,-2.419,0.0,0.0,0.0,0.0,0.0,0.0,0.0,-2.6602,-2.6602,-2.8677,-3.1066,-3.1492,-3.3899,-3.6817,-3.9067,-4.1127,-4.2978,-4.4403,-4.5074,-4.5419,-4.5485,-4.5522,-4.5559,-4.5559,-4.5577,-4.5594,-4.5594,-4.5594,-4.5594,-4.5594,-4.5594,-4.5594,-4.5594,-4.5594,0.0,0.0,0.0,0.0,0.0,0.0,-4.5531,-4.541,-4.537,-4.5213,-4.4955,-4.4827,-4.4632,-4.4358,-4.4113,-4.3929,-4.3788,-4.3601,-4.3515,-4.3515,-4.3515,-4.3515,-4.3515,-4.3515,-4.3515,-4.3515,-4.3515,-4.3515,-4.3515,-4.3515,-4.3515,-4.3515,-4.3515,-4.3515,-4.3515,0.0,0.0,0.0,0.0,0.0,0.0,0.0,0.0,0.0,0.0,0.0,0.0,0.0,0.0,0.0,0.0,0.0,0.0,0.0,0.0,0.0,0.0,-2.7005,-2.6649,-2.5833,-2.5686,-2.5209,-2.442,-2.442,0.0,0.0,0.0,0.0,-2.797,0.0,-2.6602,-2.6492,-2.4887,-2.419,-2.4208,-2.4355,-2.442,-2.441,-2.4557,-2.4612,-2.4593,-2.4465,-2.442,-2.4401,0.0,0.0,0.0,0.0,0.0,-2.6602,-2.6602,-2.896,-3.1591,-3.1602,-3.4196,-3.779,-4.146,-4.2484,-4.3063,-4.4949,-4.539,-4.5429,-4.5559,-4.5586,-4.5594,-4.5594,-4.5594,-4.5594,-4.5594,-4.5594,-4.5594,-4.5594,-4.5594,-4.5594,-4.5594,-4.5594,0.0,0.0,0.0,0.0,0.0,0.0,-4.5531,-4.541,-4.54,-4.5286,-4.5022,-4.4858,-4.4667,-4.4397,-4.4143,-4.3926,-4.3788,-4.3601,-4.3515,-4.3515,-4.3515,-4.3515,-4.3515,-4.3515,-4.3515,-4.3515,-4.3515,-4.3515,-4.3515,-4.3515,-4.3515,-4.3515,-4.3515,-4.3515,-4.3515,0.0,0.0,0.0,0.0,0.0,0.0,0.0,0.0,0.0,0.0,-2.6007,-2.6484,0.0,0.0,0.0,0.0,0.0,0.0,0.0,0.0,0.0,0.0,-2.8675,-2.829,-2.7504,-2.6796,-2.6043,-2.5246,-2.5246,0.0,0.0,0.0,0.0,-2.8767,0.0,-2.6602,-2.6492,-2.4887,-2.419,-2.4263,-2.4952,-2.5246,-2.5319,-2.6007,-2.6282,-2.619,-2.5485,-2.5246,-2.5136,0.0,-2.419,0.0,0.0,0.0,-2.6602,-2.6602,-2.8927,-3.1531,-3.1591,-3.4232,-3.7845,-4.1413,-4.2409,-4.2998,-4.4885,-4.5361,-4.5419,-4.5495,-4.5559,-4.5594,-4.5594,-4.5594,-4.5594,-4.5594,-4.5594,-4.5594,-4.5594,-4.5594,-4.5594,-4.5594,-4.5594,0.0,0.0,0.0,0.0,0.0,-4.5594,-4.5531,-4.541,-4.54,-4.5286,-4.5022,-4.4858,-4.4667,-4.4397,-4.4185,-4.3989,-4.3788,-4.3601,-4.3515,-4.3515,-4.3515,-4.3515,-4.3515,-4.3515,-4.3515,-4.3515,-4.3515,-4.3515,-4.3515,-4.3515,-4.3515,-4.3515,-4.3515,-4.3515,-4.3515,0.0,0.0,0.0,0.0,0.0,0.0,0.0,0.0,0.0,0.0,0.0,-2.6932,0.0,0.0,0.0,0.0,0.0,0.0,0.0,0.0,0.0,-2.9005,-2.9005,-2.862,-2.7824,-2.7457,-2.6869,-2.6062,0.0,0.0,0.0,-2.7273,-2.7886,0.0,0.0,0.0,0.0,-2.4887,-2.4456,-2.4897,-2.5264,-2.5668,-2.6098,-2.6465,-2.6602,-2.6547,-2.619,-2.6062,0.0,0.0,-2.5254,-2.4952,-2.5401,0.0,0.0,0.0,-2.8952,-3.1162,-3.2703,-3.5018,-3.7619,-4.0264,-4.1688,-4.281,-4.4253,-4.4975,-4.537,-4.5476,-4.5522,-4.5559,-4.5586,-4.5594,-4.5594,-4.5594,-4.5594,-4.5594,-4.5594,-4.5594,-4.5594,-4.5594,-4.5594,0.0,0.0,0.0,0.0,0.0,-4.5594,-4.5559,-4.5448,-4.5419,-4.5339,-4.517,-4.4991,-4.4796,-4.4578,-4.4283,-4.4002,-4.3703,-4.36,-4.3549,-4.3515,-4.3515,-4.3515,-4.3515,-4.3515,-4.3515,-4.3515,-4.3515,-4.3515,-4.3515,-4.3515,-4.3515,-4.3515,-4.3515,-4.3515,-4.3515,0.0,0.0,0.0,0.0,0.0,0.0,0.0,0.0,0.0,0.0,0.0,0.0,0.0,0.0,0.0,0.0,0.0,0.0,0.0,0.0,0.0,-2.9005,-2.9005,-2.8712,-2.8117,-2.7897,-2.7512,0.0,0.0,0.0,-2.7798,-2.8007,-2.8319,0.0,-2.7226,-2.6602,0.0,-2.5089,-2.4842,-2.5429,-2.5852,-2.6484,-2.7226,-2.7438,-2.764,-2.7769,-2.7354,0.0,0.0,0.0,0.0,-2.5815,-2.641,-2.6741,0.0,0.0,0.0,-3.1137,-3.3604,-3.5428,-3.7117,-3.922,-4.0756,-4.2124,-4.3596,-4.4463,-4.5051,-4.5381,-4.5467,-4.5495,-4.555,-4.5577,-4.5594,-4.5594,-4.5594,-4.5594,-4.5594,-4.5594,-4.5594,-4.5594,-4.5594,-4.5594,0.0,0.0,0.0,0.0,-4.5594,-4.5568,-4.5504,-4.5448,-4.539,-4.5307,-4.5125,-4.4919,-4.4738,-4.4355,-4.4014,-4.3699,-4.3632,-4.3565,-4.3513,-4.3515,-4.3515,-4.3515,-4.3515,-4.3515,-4.3515,-4.3515,-4.3515,-4.3515,-4.3515,-4.3515,-4.3515,-4.3515,-4.3515,-4.3515,0.0,0.0,0.0,0.0,0.0,0.0,0.0,0.0,0.0,0.0,0.0,0.0,0.0,0.0,0.0,-2.9005,0.0,0.0,0.0,0.0,0.0,-2.9005,-2.9005,0.0,-2.8932,-2.8191,0.0,0.0,0.0,0.0,-2.7824,-2.8583,-2.8546,-2.7835,-2.6979,-2.6602,-2.6528,0.0,0.0,-2.5521,-2.7064,-2.8154,-2.8968,-2.9721,-3.0485,-3.0956,0.0,0.0,0.0,0.0,0.0,0.0,0.0,0.0,-2.7761,0.0,0.0,0.0,-3.3704,-3.4872,-3.623,-3.8939,-3.9767,-4.0605,-4.3144,-4.3898,-4.4294,-4.5145,-4.5361,-4.541,-4.541,-4.5513,-4.5594,-4.5594,-4.5594,-4.5594,-4.5594,-4.5594,-4.5594,-4.5594,-4.5594,-4.5594,0.0,0.0,0.0,0.0,-4.5594,-4.5568,-4.5504,-4.5495,-4.5429,-4.5307,-4.517,-4.501,-4.4815,-4.4345,-4.4064,-4.3974,-4.3716,-4.3599,-4.3582,-4.3513,-4.3515,-4.3515,-4.3515,-4.3515,-4.3515,-4.3515,-4.3515,-4.3515,-4.3515,-4.3515,-4.3515,-4.3515,-4.3515,-4.3515,0.0,0.0,0.0,0.0,0.0,0.0,0.0,0.0,0.0,0.0,0.0,0.0,0.0,-2.8062,-2.8436,-2.895,-2.9005,0.0,0.0,0.0,0.0,-2.9005,-2.9005,-2.9005,-2.9005,-2.8712,0.0,0.0,0.0,-2.8565,-2.8583,-2.8877,-2.8565,-2.775,-2.6961,-2.6319,-2.5815,-2.5521,0.0,-2.63,-2.7923,-2.9042,-2.9849,0.0,0.0,0.0,0.0,0.0,0.0,0.0,0.0,0.0,0.0,0.0,0.0,-2.8429,-2.9596,-3.0973,-3.2158,-3.3574,-3.5095,-3.6658,-3.8351,-3.9936,-4.0953,-4.2553,-4.3912,-4.4263,-4.4834,-4.529,-4.538,-4.5477,-4.555,-4.555,-4.5577,-4.5594,-4.5594,-4.5594,-4.5594,-4.5594,-4.5594,-4.5594,0.0,0.0,0.0,0.0,0.0,-4.5586,-4.5568,-4.5522,-4.5457,-4.537,-4.5277,-4.5091,-4.4796,-4.4505,-4.4262,-4.4064,-4.3908,-4.3765,-4.3599,-4.3565,-4.3531,-4.3515,-4.3515,-4.3515,-4.3515,-4.3515,-4.3515,-4.3515,-4.3515,-4.3515,-4.3515,-4.3515,-4.3515,-4.3515,0.0,0.0,0.0,0.0,0.0,0.0,0.0,0.0,0.0,0.0,0.0,0.0,0.0,0.0,-2.8117,-2.8932,-2.9005,-2.9005,-2.9005,-2.9005,-2.9005,-2.9005,-2.9005,-2.9005,-2.9005,0.0,0.0,0.0,0.0,0.0,0.0,-2.8712,-2.8172,-2.7365,-2.6557,-2.5907,0.0,0.0,0.0,-2.6749,-2.8656,-2.9879,-3.0723,0.0,0.0,0.0,0.0,0.0,0.0,0.0,0.0,0.0,0.0,0.0,0.0,0.0,-2.9591,-3.0391,-3.0961,-3.2397,-3.3994,-3.4921,-3.6726,-3.8508,-3.9479,-4.1092,-4.2647,-4.3532,-4.4239,-4.4824,-4.5197,-4.531,-4.539,-4.5467,-4.5504,-4.5531,-4.5568,-4.5568,-4.5577,-4.5594,-4.5594,-4.5594,0.0,0.0,0.0,0.0,0.0,0.0,-4.5594,-4.5559,-4.5485,-4.54,-4.5329,-4.5148,-4.4833,-4.4685,-4.4496,-4.4229,-4.4094,-4.3923,-4.3732,-4.3632,-4.3565,-4.3531,-4.3515,-4.3515,-4.3515,-4.3515,-4.3515,-4.3515,-4.3515,-4.3515,-4.3515,-4.3515,-4.3515,-4.3515,0.0,0.0,0.0,0.0,0.0,0.0,0.0,0.0,0.0,0.0,0.0,0.0,0.0,0.0,0.0,-2.8895,-2.8987,-2.9005,-2.9005,-2.9005,-2.9005,-2.9005,0.0,0.0,0.0,0.0,0.0,0.0,0.0,0.0,0.0,0.0,-2.7346,-2.6539,-2.576,-2.5393,-2.5411,0.0,-2.6602,-2.6804,0.0,-3.0723,-3.1617,0.0,0.0,0.0,-3.5041,-3.4527,0.0,-3.2931,0.0,0.0,0.0,0.0,0.0,0.0,0.0,-3.0185,0.0,0.0,0.0,-3.3969,-3.4914,-3.6217,-3.879,-3.9575,-4.0472,-4.2894,-4.3522,-4.3914,-4.4759,-4.4981,-4.5094,-4.5313,-4.5381,-4.5419,-4.5485,-4.5495,-4.5513,-4.5586,-4.5605,-4.5594,0.0,0.0,0.0,0.0,-4.5594,-4.5594,-4.5594,-4.5594,-4.5542,-4.5418,-4.5338,-4.517,-4.4907,-4.4833,-4.4712,-4.4501,-4.4248,-4.4064,-4.3989,-4.3732,-4.3599,-4.3599,-4.3513,-4.3515,-4.3515,-4.3515,-4.3515,-4.3515,-4.3515,-4.3515,-4.3515,-4.3515,-4.3515,-4.3515,0.0,0.0,0.0,0.0,0.0,0.0,0.0,0.0,0.0,0.0,0.0,0.0,0.0,0.0,0.0,-2.8117,-2.8656,-2.9005,-2.9005,-2.9005,-2.9005,-2.9005,-2.9005,-2.9005,0.0,0.0,0.0,0.0,0.0,0.0,0.0,0.0,0.0,0.0,-2.5503,-2.5081,-2.4622,-2.6007,0.0,-2.6859,-2.9861,-3.1549,0.0,0.0,0.0,0.0,0.0,-3.5807,-3.5477,0.0,-3.3793,-3.2926,0.0,0.0,0.0,0.0,0.0,0.0,-3.0068,0.0,0.0,0.0,0.0,0.0,0.0,-3.8065,-3.9714,-4.039,-4.1581,-4.2567,-4.2838,-4.2968,-4.3242,-4.3984,-4.4834,-4.5409,-4.5429,-4.5419,-4.5429,-4.5448,-4.5504,-4.5522,0.0,0.0,0.0,0.0,-4.5594,-4.5594,-4.5594,-4.5559,-4.5504,-4.5457,-4.535,-4.5256,-4.5192,-4.4986,-4.4802,-4.4646,-4.4421,-4.4203,-4.3989,-4.3816,-4.3684,-4.3599,-4.3513,-4.3515,-4.3515,-4.3515,-4.3515,-4.3515,-4.3515,-4.3515,-4.3515,-4.3515,-4.3515,-4.3515,0.0,0.0,0.0,0.0,0.0,0.0,0.0,0.0,0.0,0.0,0.0,0.0,0.0,0.0,0.0,-2.778,-2.8227,-2.8503,-2.8503,-2.818,-2.7996,-2.7996,-2.7996,-2.7996,-2.7996,0.0,0.0,0.0,0.0,0.0,0.0,0.0,0.0,0.0,0.0,0.0,0.0,0.0,0.0,0.0,-3.0099,0.0,0.0,-3.4784,-3.6064,0.0,0.0,0.0,-3.6721,-3.6211,-3.5261,0.0,0.0,0.0,0.0,0.0,0.0,0.0,0.0,0.0,0.0,0.0,0.0,0.0,-3.4653,-3.6352,-3.8031,0.0,-4.0069,-4.1023,-4.1796,-4.1993,-4.2208,-4.2793,-4.3554,-4.435,-4.515,-4.529,-4.5341,-4.539,-4.5438,-4.5477,0.0,-4.555,-4.5568,-4.5594,-4.5594,-4.5594,-4.5594,-4.5568,-4.5522,-4.5504,-4.539,-4.5329,-4.5307,-4.5091,-4.4895,-4.4751,-4.4537,-4.4325,-4.4131,-4.3899,-4.3771,-4.3667,-4.3566,-4.3515,-4.3515,-4.3515,-4.3515,-4.3515,-4.3515,-4.3515,-4.3515,-4.3515,-4.3515,-4.3515,0.0,0.0,0.0,0.0,0.0,0.0,0.0,0.0,0.0,0.0,0.0,0.0,0.0,0.0,0.0,0.0,-2.789,-2.7934,-2.7934,-2.7181,-2.6741,-2.6741,-2.6649,-2.6602,-2.6602,-2.6602,0.0,0.0,0.0,0.0,0.0,0.0,0.0,0.0,0.0,0.0,0.0,0.0,0.0,-2.7134,-3.0173,-3.1935,0.0,0.0,-3.6923,-3.786,-3.8579,-3.8432,-3.7878,-3.7694,-3.6523,0.0,0.0,0.0,0.0,0.0,-3.0338,0.0,0.0,0.0,0.0,0.0,0.0,0.0,-3.3683,-3.4596,-3.5851,0.0,-3.8679,-3.9263,-4.0803,-4.1153,-4.1297,-4.1533,-4.175,-4.2559,-4.4501,-4.4935,-4.508,-4.5204,-4.5301,-4.5409,-4.5467,-4.5485,-4.5513,-4.5577,-4.5586,-4.5586,-4.5594,-4.5594,-4.5577,-4.5513,-4.5438,-4.539,-4.5298,-4.5181,-4.5003,-4.4815,-4.4592,-4.443,-4.4285,-4.3947,-4.3804,-4.3788,-4.3583,-4.3515,-4.3515,-4.3515,-4.3515,-4.3515,-4.3515,-4.3515,-4.3515,-4.3515,-4.3515,-4.3515,0.0,0.0,0.0,0.0,0.0,0.0,0.0,0.0,0.0,0.0,0.0,0.0,0.0,0.0,0.0,0.0,-2.8393,-2.8767,-2.8767,-2.8007,-2.7567,-2.7567,-2.6961,-2.6602,-2.6602,-2.6602,0.0,0.0,0.0,0.0,0.0,0.0,0.0,0.0,0.0,0.0,0.0,0.0,0.0,-2.8693,-3.0632,0.0,-3.377,-3.5605,-3.7588,-3.9457,-3.9606,-3.9974,-4.0212,-3.8909,-3.7386,-3.5899,0.0,0.0,0.0,-3.2216,0.0,0.0,0.0,0.0,0.0,0.0,0.0,0.0,-3.247,-3.3431,-3.4353,0.0,-3.6319,-3.6947,-3.7288,-3.7456,-3.7965,-3.9276,-3.9639,-4.0483,-4.2471,-4.3467,-4.4015,-4.4113,-4.478,-4.5275,-4.5329,-4.539,-4.5429,-4.5438,-4.5495,-4.5531,-4.5594,-4.5594,-4.5586,-4.5577,-4.5513,-4.5457,-4.5371,-4.5237,-4.5091,-4.487,-4.4619,-4.443,-4.4285,-4.3947,-4.3804,-4.3788,-4.3583,-4.3515,-4.3515,-4.3515,-4.3515,-4.3515,-4.3515,-4.3515,-4.3515,-4.3515,-4.3515,-4.3515,0.0,0.0,0.0,0.0,0.0,0.0,0.0,0.0,0.0,0.0,0.0,0.0,0.0,0.0,0.0,0.0,0.0,0.0,0.0,-2.7658,-2.7016,-2.6623,-2.6219,-2.5805,-2.5419,-2.5401,-2.5401,0.0,0.0,0.0,0.0,0.0,0.0,0.0,0.0,0.0,0.0,0.0,-2.8503,-2.9702,-3.0907,0.0,-3.4527,-3.5807,-3.779,-3.99,-3.99,-4.0157,-4.0377,-3.957,-3.823,0.0,-3.5917,-3.4802,-3.3647,0.0,-3.2032,-3.1219,0.0,0.0,0.0,-2.9569,0.0,0.0,0.0,-3.1832,-3.2725,-3.3919,-3.4531,-3.5108,-3.5896,-3.6157,-3.6515,-3.732,-3.765,-3.8167,-3.9212,-4.1355,-4.285,-4.2984,-4.3456,0.0,-4.4505,-4.4629,-4.4892,-4.5362,-4.5429,-4.5485,-4.555,-4.5559,-4.5568,-4.5594,-4.5522,-4.5476,-4.541,-4.5258,-4.5103,-4.4895,-4.4659,-4.4473,-4.4285,-4.3995,-4.3818,-4.3788,-4.3583,-4.3515,-4.3515,-4.3515,-4.3515,-4.3515,-4.3515,-4.3515,-4.3515,-4.3515,-4.3515,-4.3515,0.0,0.0,0.0,0.0,0.0,0.0,0.0,0.0,0.0,0.0,0.0,0.0,0.0,0.0,0.0,0.0,0.0,0.0,0.0,-2.7512,-2.6704,-2.5907,-2.5558,-2.5099,-2.4456,-2.4281,-2.419,-2.419,0.0,0.0,0.0,0.0,0.0,0.0,0.0,0.0,0.0,0.0,0.0,-3.0742,0.0,-3.3128,-3.5096,-3.5973,-3.7881,-4.0175,-4.0469,-4.0487,-4.0341,-4.0175,-3.9056,-3.7603,-3.678,-3.5844,0.0,0.0,0.0,0.0,0.0,0.0,0.0,0.0,0.0,-2.9856,0.0,0.0,0.0,-3.26,-3.2893,0.0,0.0,0.0,0.0,0.0,0.0,0.0,0.0,-3.8915,0.0,-4.1582,-4.2007,0.0,-4.3407,-4.3778,-4.4275,-4.5045,-4.5275,-4.5419,-4.5486,-4.5485,-4.5513,-4.5577,-4.5513,-4.5448,-4.541,-4.5258,-4.5114,-4.4907,-4.4712,-4.4496,-4.4314,-4.4023,-4.3867,-4.3788,-4.3583,-4.3515,-4.3515,-4.3515,-4.3515,-4.3515,-4.3515,-4.3515,-4.3515,-4.3515,-4.3515,-4.3515,-2.4164,-2.4192,0.0,0.0,0.0,0.0,0.0,0.0,0.0,0.0,0.0,0.0,0.0,0.0,0.0,0.0,0.0,0.0,-2.9971,0.0,-2.8363,-2.7559,-2.6164,-2.5356,-2.5264,-2.4566,-2.419,-2.419,0.0,0.0,0.0,0.0,0.0,0.0,-2.6153,0.0,0.0,0.0,-3.087,0.0,-3.3201,-3.4105,0.0,-3.5973,-3.8248,-4.115,-4.258,-4.2616,-4.1919,0.0,-3.99,-3.8414,0.0,-3.6285,-3.4954,-3.4784,0.0,0.0,0.0,0.0,0.0,0.0,-2.9454,0.0,0.0,0.0,-3.0067,-3.0841,0.0,0.0,0.0,0.0,0.0,0.0,0.0,0.0,-3.5849,-3.6402,-3.7436,-3.9474,-4.1103,0.0,0.0,-4.3255,-4.3896,-4.406,-4.4838,-4.5348,-4.5399,-4.541,-4.5438,-4.5504,-4.5438,-4.541,-4.54,-4.5258,-4.5136,-4.4998,-4.4719,-4.4524,-4.4368,-4.4055,-4.3867,-4.3788,-4.3583,-4.3515,-4.3515,-4.3515,-4.3515,-4.3515,-4.3515,-4.3515,-4.3515,-4.3515,-4.3515,-4.3515,-2.4429,-2.4446,0.0,0.0,0.0,0.0,0.0,0.0,0.0,0.0,0.0,0.0,0.0,0.0,0.0,0.0,0.0,-3.1268,0.0,0.0,0.0,-2.8539,-2.7402,-2.6366,-2.5411,-2.5062,-2.4677,-2.419,-2.419,0.0,0.0,0.0,0.0,0.0,-2.6943,0.0,-2.9721,0.0,-3.1403,0.0,0.0,0.0,0.0,-3.7386,-3.9405,-4.1956,-4.3075,-4.2983,-4.2176,0.0,-4.0341,0.0,0.0,0.0,0.0,-3.5298,0.0,0.0,0.0,0.0,0.0,0.0,0.0,0.0,-2.9664,0.0,-2.9112,0.0,0.0,0.0,0.0,0.0,0.0,0.0,-3.1691,0.0,0.0,0.0,-3.4673,0.0,0.0,0.0,0.0,0.0,0.0,0.0,-4.4211,-4.4707,-4.5309,-4.5339,-4.537,-4.5438,-4.5419,-4.539,-4.54,-4.5267,-4.5114,-4.4931,-4.4764,-4.4551,-4.4344,-4.4085,-4.3897,-4.3788,-4.3583,-4.3515,-4.3515,-4.3515,-4.3515,-4.3515,-4.3515,-4.3515,-4.3515,-4.3515,-4.3515,-4.3515,-2.459,0.0,0.0,0.0,0.0,0.0,0.0,0.0,0.0,0.0,0.0,0.0,-2.9362,-3.052,0.0,0.0,-3.248,-3.2553,0.0,0.0,-3.0748,-2.9738,-2.8713,-2.7639,-2.6442,-2.5772,-2.5137,-2.453,-2.43,0.0,0.0,0.0,0.0,0.0,0.0,-2.8815,-3.0558,0.0,-3.2339,-3.4174,-3.4633,-3.6285,-3.8542,-3.9148,-4.0579,-4.2415,-4.3221,-4.3112,-4.2506,-4.1699,-4.0891,0.0,-3.8594,0.0,-3.7254,0.0,0.0,0.0,-3.3647,0.0,0.0,0.0,0.0,0.0,0.0,0.0,0.0,0.0,0.0,0.0,0.0,0.0,0.0,0.0,0.0,-3.0312,0.0,-3.1221,0.0,0.0,0.0,0.0,0.0,0.0,0.0,-4.2924,-4.3452,-4.4045,-4.4829,-4.5088,-4.5267,-4.5341,-4.5321,-4.533,-4.5338,-4.5203,-4.5049,-4.4895,-4.4751,-4.4551,-4.4329,-4.4085,-4.3913,-4.3788,-4.3583,-4.3515,-4.3515,-4.3515,-4.3515,-4.3515,-4.3515,-4.3515,-4.3515,-4.3515,-4.3515,-4.3515,-2.4798,-2.4795,-2.4791,-2.4798,-2.4802,0.0,0.0,0.0,0.0,0.0,0.0,0.0,-3.0283,0.0,0.0,0.0,0.0,-3.544,-3.3825,0.0,-3.3066,-3.1495,-2.9968,-2.9101,-2.8979,-2.6677,-2.5443,-2.5356,-2.4585,0.0,0.0,0.0,0.0,0.0,-2.7438,-2.9138,-3.147,-3.3018,-3.4192,-3.5096,-3.6725,-3.8817,-4.0985,0.0,-4.1535,-4.2415,-4.3221,0.0,0.0,-4.2525,-4.1735,0.0,0.0,0.0,0.0,0.0,0.0,0.0,0.0,0.0,0.0,-3.2682,0.0,0.0,0.0,0.0,-2.9516,0.0,0.0,0.0,0.0,0.0,0.0,0.0,0.0,0.0,0.0,0.0,0.0,0.0,0.0,0.0,0.0,-3.8945,-3.9914,-4.0929,-4.2567,-4.3573,-4.3744,-4.4561,-4.508,-4.5203,-4.5148,-4.5148,-4.5203,-4.5061,-4.4967,-4.4895,-4.4699,-4.4524,-4.4383,-4.4055,-4.3867,-4.3788,-4.3583,-4.3515,-4.3515,-4.3515,-4.3515,-4.3515,-4.3515,-4.3515,-4.3515,-4.3515,-4.3515,-4.3515,-2.5046,-2.4965,-2.4984,-2.4945,-2.4926,-2.5108,0.0,-2.6327,0.0,0.0,-2.9612,0.0,0.0,-3.3623,-3.4504,0.0,0.0,-3.6196,-3.5625,-3.5103,0.0,-3.3265,-3.2182,-3.0815,0.0,-2.8373,-2.7124,-2.5461,-2.5185,0.0,0.0,0.0,0.0,0.0,0.0,-2.9641,0.0,0.0,0.0,0.0,0.0,-4.0212,-4.1901,0.0,0.0,-4.313,-4.3387,-4.3515,0.0,-4.2561,-4.2121,-4.1754,-4.0946,-4.0322,-3.968,-3.8615,-3.8102,0.0,0.0,0.0,-3.5224,-3.4311,0.0,0.0,0.0,0.0,0.0,0.0,0.0,0.0,0.0,0.0,0.0,0.0,0.0,0.0,0.0,0.0,0.0,0.0,0.0,0.0,0.0,0.0,0.0,-3.9826,-4.144,-4.2709,-4.3523,-4.4348,-4.4858,-4.501,-4.5014,-4.5014,-4.4991,-4.4955,-4.4865,-4.4712,-4.4578,-4.4444,-4.4255,-4.4008,-4.3867,-4.3788,-4.3583,-4.3515,-4.3515,-4.3515,-4.3515,-4.3515,-4.3515,-4.3515,-4.3515,-4.3515,-4.3515,-4.3515,-2.5234,-2.5101,-2.512,-2.5038,-2.5278,-2.562,0.0,0.0,0.0,0.0,-3.1078,0.0,-3.4149,0.0,-3.6072,0.0,-3.7433,-3.7419,-3.7433,-3.6687,0.0,-3.5087,-3.3963,-3.2639,0.0,0.0,-2.8474,-2.6851,0.0,-2.5213,0.0,0.0,0.0,0.0,0.0,-2.9657,-3.1562,-3.3506,-3.511,0.0,0.0,-4.113,0.0,0.0,-4.3039,-4.3515,0.0,-4.3515,-4.3423,-4.2892,-4.2543,-4.2213,-4.1682,-4.1334,-4.0893,-3.9863,-3.9536,-3.9203,-3.7588,-3.7147,0.0,-3.5677,-3.4971,0.0,-3.3716,0.0,0.0,0.0,0.0,0.0,0.0,0.0,0.0,0.0,0.0,0.0,0.0,-2.8486,0.0,0.0,0.0,0.0,0.0,-3.6224,-3.7655,-3.8718,-4.0309,-4.1717,0.0,0.0,-4.4312,-4.4745,-4.4821,-4.484,-4.4764,-4.477,-4.4693,-4.4524,-4.4473,-4.4329,-4.4119,-4.3947,-4.3818,-4.3719,-4.3566,-4.3515,-4.3515,-4.3515,-4.3515,-4.3515,-4.3515,-4.3515,-4.3515,-4.3515,-4.3515,-4.3515,-2.5359,-2.5231,-2.5241,-2.5184,-2.5793,-2.6318,0.0,0.0,-2.9893,0.0,-3.2643,-3.4639,-3.4686,-3.6708,-3.8417,-3.92,-3.9263,-3.924,-3.9249,-3.8545,0.0,0.0,-3.542,-3.4535,-3.4407,0.0,0.0,0.0,0.0,0.0,0.0,0.0,0.0,0.0,-2.7511,0.0,-3.1673,-3.4231,-3.5809,-3.69,-3.9913,-4.1607,-4.2433,-4.3221,-4.3515,-4.3515,-4.3515,-4.3515,-4.3515,-4.3515,-4.2983,-4.2359,-4.2359,-4.1827,-4.1205,-4.1168,-4.115,-4.082,-3.9258,-3.8817,-3.8432,-3.6817,0.0,0.0,0.0,0.0,-3.3513,0.0,0.0,0.0,0.0,0.0,0.0,0.0,0.0,0.0,0.0,0.0,0.0,0.0,0.0,0.0,-3.3441,-3.5172,-3.6618,-3.7562,-3.9168,-4.0591,0.0,0.0,-4.3427,-4.4393,-4.4532,-4.4551,-4.4501,-4.457,-4.4524,-4.4383,-4.4314,-4.4177,-4.3989,-4.3851,-4.3719,-4.3599,-4.3513,-4.3515,-4.3515,-4.3515,-4.3515,-4.3515,-4.3515,-4.3515,-4.3515,-4.3515,-4.3515,-4.3515,-2.5508,-2.5724,-2.6159,-2.6136,-2.6262,-2.6791,0.0,0.0,0.0,0.0,-3.3961,-3.5505,-3.728,-3.8536,-3.9564,-4.0314,-4.0926,0.0,0.0,0.0,0.0,-3.8927,-3.787,-3.6426,-3.4588,-3.3652,-3.195,-2.946,0.0,0.0,-2.5509,0.0,0.0,0.0,0.0,-2.9277,-3.174,-3.4244,-3.7118,-4.0044,-4.0841,-4.1969,-4.3221,0.0,-4.3515,-4.3515,-4.3515,-4.3515,-4.3515,-4.3515,-4.3368,-4.3185,-4.3185,-4.3039,-4.2763,-4.2176,-4.1992,-4.1772,-4.0747,-4.0471,-4.0086,-3.8487,-3.8068,-3.7689,0.0,0.0,0.0,0.0,0.0,0.0,0.0,0.0,0.0,0.0,0.0,0.0,0.0,0.0,0.0,-3.0098,0.0,-3.2075,-3.2526,-3.4055,-3.5495,-3.6581,-3.8169,-3.9523,0.0,0.0,0.0,-4.3303,-4.4046,-4.4411,-4.4358,-4.4411,-4.4321,-4.4097,-4.4082,-4.3992,-4.3851,-4.3701,-4.3615,-4.3599,-4.3513,-4.3515,-4.3515,-4.3515,-4.3515,-4.3515,-4.3515,-4.3515,-4.3515,-4.3515,-4.3515,-4.3515,-2.5594,-2.594,-2.6771,-2.7506,0.0,0.0,-2.9339,-3.0738,0.0,-3.4125,-3.5676,0.0,-3.8967,-3.9876,-4.0823,-4.197,-4.2127,0.0,-4.2731,0.0,0.0,-4.0844,-3.9656,-3.8324,-3.6898,-3.5402,0.0,-3.1208,0.0,0.0,-2.6096,0.0,0.0,0.0,-2.719,-2.8993,-3.1818,-3.4665,-3.7983,-4.1332,-4.1267,-4.2212,0.0,-4.3566,-4.3531,-4.3531,-4.3515,-4.3515,-4.3515,-4.3515,-4.3515,-4.3515,-4.3515,-4.3515,-4.3423,-4.2947,-4.2818,-4.2653,-4.1846,-4.1625,-4.1315,-4.0049,-3.9753,-3.9499,-3.8517,-3.7717,-3.7162,0.0,0.0,0.0,0.0,0.0,0.0,0.0,0.0,0.0,0.0,0.0,0.0,0.0,-3.1189,-3.1826,-3.2021,-3.3584,-3.4876,-3.5513,-3.7149,0.0,0.0,0.0,0.0,-4.273,-4.3349,-4.3789,-4.4073,-4.4147,-4.4085,-4.3913,-4.3913,-4.3832,-4.3719,-4.3615,-4.3582,-4.3548,-4.3532,-4.3515,-4.3515,-4.3515,-4.3515,-4.3515,-4.3515,-4.3515,-4.3515,-4.3515,-4.3515,-4.3515,-2.5962,-2.6346,-2.7428,-2.9011,-3.0027,0.0,0.0,-3.2703,0.0,-3.5354,0.0,-3.9306,-4.0124,-4.1022,-4.2147,-4.3608,-4.3122,-4.3084,-4.3824,-4.3084,-4.2591,-4.2591,-4.1092,-4.0141,-3.9851,-3.6873,-3.4751,0.0,0.0,0.0,0.0,0.0,-2.6234,-2.691,-2.7079,-2.9037,-3.2423,-3.5378,-3.8535,-4.1523,-4.1391,-4.234,-4.3804,-4.3667,-4.3634,-4.3617,-4.3549,-4.3515,-4.3515,-4.3515,-4.3515,-4.3515,-4.3515,-4.3515,-4.3515,-4.3515,-4.3515,-4.3349,-4.2653,-4.2451,-4.2268,-4.1462,-4.126,-4.1224,-4.1113,-3.9965,-3.891,-3.8928,-3.753,-3.6282,0.0,0.0,0.0,0.0,0.0,0.0,0.0,0.0,0.0,0.0,0.0,0.0,-3.1969,-3.3439,-3.4461,-3.4601,-3.6231,0.0,0.0,0.0,0.0,-4.2364,-4.2588,-4.305,-4.3786,0.0,-4.3851,-4.3769,-4.3769,-4.3719,-4.3582,-4.3582,-4.3548,-4.3515,-4.3515,-4.3515,-4.3515,-4.3515,-4.3515,-4.3515,-4.3515,-4.3515,-4.3515,-4.3515,-4.3515,-4.3515,-2.7621,-2.8107,-2.8986,-3.0,-3.1423,-3.2904,-3.4278,-3.4863,-3.5684,-3.7201,-3.8931,-4.0357,-4.1227,-4.2591,-4.3558,-4.3844,-4.4322,0.0,0.0,0.0,0.0,-4.3634,-4.272,-4.1557,-4.0166,-3.8752,-3.6875,0.0,0.0,0.0,0.0,0.0,0.0,-2.7959,-2.8695,-3.1259,-3.5067,-3.6323,0.0,-4.1667,-4.1579,-4.2502,-4.3883,-4.3786,-4.3753,-4.3736,-4.3634,-4.3566,-4.3515,-4.3515,-4.3515,-4.3515,-4.3515,-4.3515,-4.3515,-4.3515,-4.3515,-4.3478,-4.3331,-4.3277,-4.3094,-4.2286,-4.2084,-4.1919,-4.1242,-4.0875,-4.0641,-4.0593,-3.9794,-3.8853,-3.8012,0.0,0.0,0.0,0.0,0.0,0.0,0.0,0.0,0.0,0.0,-3.2873,0.0,-3.317,-3.371,0.0,0.0,0.0,0.0,0.0,0.0,0.0,-4.2216,0.0,0.0,0.0,-4.3753,-4.3634,-4.3634,-4.3582,-4.3532,-4.3532,-4.3515,-4.3515,-4.3515,-4.3515,-4.3515,-4.3515,-4.3515,-4.3515,-4.3515,-4.3515,-4.3515,-4.3515,-4.3515,-4.3515,-2.9102,-2.9506,-3.0314,-3.2064,0.0,0.0,0.0,-3.749,-3.8312,-3.909,-4.0264,-4.1511,-4.2804,-4.3618,-4.422,-4.4641,-4.5041,-4.5269,-4.5269,-4.4898,-4.4679,-4.4679,-4.3914,-4.2862,-4.1581,-4.0214,-3.8203,-3.5532,0.0,0.0,0.0,0.0,0.0,-2.839,-3.0552,-3.309,0.0,0.0,0.0,-4.1894,-4.2272,-4.311,-4.4147,-4.3961,-4.3897,-4.3899,-4.3753,-4.3634,-4.3566,-4.3496,-4.3515,-4.3515,-4.3515,-4.3515,-4.3515,-4.3515,-4.3515,-4.3515,-4.3515,-4.3515,-4.3423,-4.302,-4.291,-4.2818,-4.2433,-4.2029,-4.1701,-4.1686,-4.1013,-3.9995,-3.8622,-3.7669,0.0,0.0,0.0,0.0,0.0,0.0,0.0,0.0,0.0,0.0,0.0,0.0,0.0,0.0,0.0,-3.6206,0.0,0.0,0.0,0.0,0.0,0.0,0.0,0.0,0.0,-4.3566,-4.3566,-4.3513,-4.3515,-4.3515,-4.3515,-4.3515,-4.3515,-4.3515,-4.3515,-4.3515,-4.3515,-4.3515,-4.3515,-4.3515,-4.3515,-4.3515,-4.3515,-4.3515,-3.0673,-3.1077,-3.191,0.0,-3.5334,-3.6596,-3.8277,-3.9815,-4.0761,-4.0688,-4.162,-4.2771,-4.4086,-4.4364,-4.4729,-4.5362,-4.541,-4.54,-4.54,-4.5419,-4.5419,-4.5419,-4.4806,-4.4039,-4.3149,-4.1437,-3.9319,0.0,0.0,0.0,0.0,0.0,0.0,0.0,0.0,0.0,0.0,0.0,-4.0584,-4.212,-4.2951,-4.3722,-4.4397,-4.4173,-4.4067,-4.4005,-4.3899,-4.3769,-4.3649,-4.3548,-4.3496,-4.3515,-4.3515,-4.3515,-4.3515,-4.3515,-4.3515,-4.3515,-4.3515,-4.3515,-4.3515,-4.3515,-4.3515,-4.3515,-4.3515,-4.3002,-4.2561,-4.2561,-4.1869,-4.0813,-3.925,-3.8944,0.0,0.0,0.0,0.0,0.0,0.0,0.0,0.0,0.0,0.0,-3.4738,0.0,0.0,0.0,0.0,-3.6067,-3.6249,-3.7809,-3.9426,0.0,0.0,-4.1882,-4.3478,0.0,-4.3515,-4.3515,-4.3515,-4.3515,-4.3515,-4.3515,-4.3515,-4.3515,-4.3515,-4.3515,-4.3515,-4.3515,-4.3515,-4.3515,-4.3515,-4.3515,-4.3515,-4.3515,-4.3515,-4.3515,-3.2641,-3.3295,0.0,0.0,0.0,-3.8334,-4.0015,-4.1066,-4.1673,-4.1665,-4.3058,-4.4115,-4.4269,-4.4946,-4.5418,-4.5475,-4.5429,-4.54,-4.54,-4.5467,-4.5495,-4.5495,-4.5418,-4.5005,-4.4171,-4.2335,-4.0492,0.0,0.0,0.0,0.0,0.0,0.0,0.0,0.0,0.0,0.0,-3.9453,-4.0791,-4.2327,-4.3146,-4.3871,-4.4487,-4.4397,-4.43,-4.4169,-4.4039,-4.3926,-4.3849,-4.3649,-4.3548,-4.3515,-4.3515,-4.3515,-4.3515,-4.3515,-4.3515,-4.3515,-4.3515,-4.3515,-4.3515,-4.3515,-4.3515,-4.3515,-4.3515,-4.3441,-4.3404,-4.3404,-4.2745,-4.1886,-4.0941,-4.076,-4.0672,0.0,0.0,0.0,0.0,0.0,-3.8148,-3.8148,0.0,0.0,0.0,-3.5854,0.0,0.0,-3.5903,-3.6322,-3.7051,-3.812,-3.9426,-4.104,0.0,-4.1882,-4.3478,-4.3515,-4.3515,-4.3515,-4.3515,-4.3515,-4.3515,-4.3515,-4.3515,-4.3515,-4.3515,-4.3515,-4.3515,-4.3515,-4.3515,-4.3515,-4.3515,-4.3515,-4.3515,-4.3515,-4.3515,-4.3515,0.0,0.0,0.0,0.0,0.0,0.0,0.0,-4.2777,-4.3297,-4.3297,-4.3874,-4.4489,-4.5017,-4.5365,-4.5568,-4.5568,-4.555,-4.5513,-4.5513,-4.555,-4.5568,-4.5568,-4.5568,-4.5166,-4.4323,-4.305,-4.154,0.0,0.0,0.0,0.0,0.0,0.0,0.0,0.0,-3.7719,-3.9688,-4.102,-4.2232,-4.3316,-4.4044,-4.4499,-4.4725,-4.4524,-4.443,-4.4358,-4.418,-4.4055,-4.3945,-4.3767,-4.3651,-4.3548,-4.3496,-4.3515,-4.3515,-4.3515,-4.3515,-4.3515,-4.3515,-4.3515,-4.3515,-4.3515,-4.3515,-4.3515,-4.3515,-4.3515,-4.3515,-4.3515,-4.3239,-4.2782,-4.1941,-4.1777,-4.1595,0.0,0.0,0.0,0.0,0.0,0.0,-3.9423,0.0,-3.7964,0.0,0.0,0.0,0.0,0.0,-3.6979,-3.7308,-3.8206,-3.9426,-4.104,0.0,-4.1882,-4.3478,-4.3515,-4.3515,-4.3515,-4.3515,-4.3515,-4.3515,-4.3515,-4.3515,-4.3515,-4.3515,-4.3515,-4.3515,-4.3515,-4.3515,-4.3515,-4.3515,-4.3515,-4.3515,-4.3515,-4.3515,-4.3515,-3.7296,0.0,-3.8469,0.0,-4.1093,-4.1758,-4.322,-4.3932,-4.4393,-4.4643,-4.4682,-4.4921,-4.5537,-4.5594,-4.5594,-4.5594,-4.5594,-4.5594,-4.5594,-4.5594,-4.5594,-4.5594,-4.5594,0.0,-4.4696,-4.3841,-4.2502,-4.0709,-3.9216,0.0,0.0,0.0,0.0,0.0,-3.7969,-3.9412,-4.1094,-4.2516,-4.3429,-4.3986,-4.468,-4.495,-4.4889,-4.4646,-4.4524,-4.4473,-4.4285,-4.4165,-4.4023,-4.3869,-4.3736,-4.3634,-4.3513,-4.3515,-4.3515,-4.3515,-4.3515,-4.3515,-4.3515,-4.3515,-4.3515,-4.3515,-4.3515,-4.3515,-4.3515,-4.3515,-4.3515,-4.3515,-4.3515,-4.3331,-4.2763,-4.2653,-4.247,-4.1917,0.0,0.0,0.0,0.0,0.0,0.0,-4.0566,-3.982,-3.8264,-3.812,0.0,0.0,0.0,0.0,-3.772,-3.8569,0.0,0.0,0.0,0.0,0.0,-4.3515,-4.3515,-4.3515,-4.3515,-4.3515,-4.3515,-4.3515,-4.3515,-4.3515,-4.3515,-4.3515,-4.3515,-4.3515,-4.3515,-4.3515,-4.3515,-4.3515,-4.3515,-4.3515,-4.3515,-4.3497,-3.9111,-3.9919,-4.0746,-4.1643,-4.2508,-4.3335,-4.4162,-4.4297,-4.4605,-4.5479,-4.5575,-4.5594,-4.5594,-4.5594,-4.5594,-4.5594,-4.5594,-4.5594,-4.5594,-4.5594,-4.5594,0.0,0.0,-4.5594,-4.5575,-4.4734,-4.3421,-4.1673,0.0,0.0,-3.7873,0.0,-3.8736,-4.0347,-4.0366,-4.1306,-4.2927,-4.3733,-4.4057,-4.4053,-4.4805,-4.5033,-4.4902,-4.4764,-4.4619,-4.4487,-4.4344,-4.4259,-4.4153,-4.3886,-4.3804,-4.3771,-4.3566,-4.3515,-4.3515,-4.3515,-4.3515,-4.3515,-4.3515,-4.3515,-4.3515,-4.3515,-4.3515,-4.3515,-4.3515,-4.3515,-4.3515,-4.3515,-4.3515,-4.3515,-4.3496,-4.3496,-4.3495,-4.3563,0.0,0.0,0.0,0.0,0.0,-4.2564,-4.1862,-4.1049,-4.0148,-4.0074,0.0,0.0,0.0,0.0,0.0,0.0,0.0,-4.1058,-4.1882,0.0,-4.3496,-4.3515,-4.3515,-4.3515,-4.3515,-4.3515,-4.3515,-4.3515,-4.3515,-4.3515,-4.3515,-4.3515,-4.3515,-4.3515,-4.3515,-4.3515,-4.3515,-4.3515,-4.3515,-4.3515,-4.3515,-4.3497,-4.1835,-4.2104,-4.2527,-4.3355,-4.372,-4.4201,-4.5056,-4.519,-4.5287,-4.5556,-4.5594,-4.5594,-4.5594,-4.5594,-4.5594,0.0,-4.5594,-4.5594,0.0,-4.5594,-4.5594,-4.5594,-4.5594,-4.5594,-4.5594,-4.475,-4.4032,-4.3459,0.0,0.0,0.0,-4.049,-4.0775,-4.1311,-4.1914,-4.2797,-4.3883,-4.4077,-4.4461,-4.4956,-4.5055,-4.5061,-4.5003,-4.4802,-4.4672,-4.4605,-4.4387,-4.4285,-4.4226,-4.3963,-4.3867,-4.3851,-4.3736,-4.36,-4.3515,-4.3515,-4.3515,-4.3515,-4.3515,-4.3515,-4.3515,-4.3515,-4.3515,-4.3515,-4.3515,-4.3515,-4.3515,-4.3515,-4.3515,-4.3515,-4.3515,-4.3549,-4.3565,-4.3599,-4.3667,0.0,0.0,0.0,-4.338,-4.2925,-4.2642,-4.2132,-4.1215,-4.1126,0.0,0.0,0.0,0.0,0.0,0.0,0.0,0.0,-4.2176,0.0,-4.3496,-4.3515,-4.3515,-4.3515,-4.3515,-4.3515,-4.3515,-4.3515,-4.3515,-4.3515,-4.3515,-4.3515,-4.3515,-4.3515,-4.3515,-4.3515,-4.3515,-4.3515,-4.3515,-4.3515,-4.3463,-4.3429,-4.3489,-4.3547,-4.3816,-4.4643,-4.4778,-4.4979,-4.5518,-4.5594,-4.5594,-4.5594,-4.5594,-4.5594,-4.5594,-4.5594,0.0,-4.5594,-4.5594,-4.5594,-4.5594,-4.5594,-4.5594,-4.5594,-4.5594,-4.5594,-4.5594,-4.5075,0.0,-4.4292,-4.3455,-4.2766,-4.223,-4.223,-4.2392,-4.2706,-4.3244,-4.3974,-4.4773,-4.4681,-4.494,-4.538,-4.5192,-4.5103,-4.5061,-4.4821,-4.4706,-4.4672,-4.444,-4.4358,-4.43,-4.4023,-4.3945,-4.3929,-4.3837,-4.3703,-4.36,-4.3566,-4.3549,-4.3531,-4.3515,-4.3515,-4.3515,-4.3515,-4.3515,-4.3515,-4.3515,-4.3515,-4.3515,-4.3515,-4.3515,-4.3515,-4.3515,-4.3548,-4.3634,-4.3667,-4.3802,-4.3931,-4.4055,0.0,-4.3983,0.0,0.0,0.0,0.0,-4.2124,-4.1876,0.0,0.0,0.0,0.0,0.0,0.0,-4.2268,-4.2598,0.0,-4.3515,-4.3515,-4.3515,-4.3515,-4.3515,-4.3515,-4.3515,-4.3515,-4.3515,-4.3515,-4.3515,-4.3515,-4.3515,-4.3515,-4.3515,-4.3515,-4.3515,-4.3515,-4.3497,-4.3463,-4.3429,-4.3394,-4.4239,-4.4393,-4.4643,0.0,-4.5594,0.0,-4.5594,-4.5594,-4.5594,-4.5594,-4.5594,-4.5594,-4.5594,-4.5594,-4.5594,-4.5594,0.0,0.0,0.0,-4.5594,-4.5594,-4.5594,-4.5594,-4.5594,-4.5594,-4.5594,-4.521,-4.4393,-4.3643,-4.3278,-4.3278,-4.3278,-4.3662,-4.4393,-4.4393,-4.4836,-4.5586,-4.5467,-4.54,-4.539,-4.5184,-4.5095,-4.508,-4.487,-4.4776,-4.4699,-4.457,-4.4454,-4.4368,-4.4113,-4.402,-4.3989,-4.3867,-4.3837,-4.382,-4.3667,-4.3599,-4.3599,-4.3549,-4.3532,-4.3532,-4.3532,-4.3515,-4.3515,-4.3515,-4.3515,-4.3515,-4.3515,-4.3515,-4.3515,-4.3515,-4.3583,-4.3667,-4.3786,-4.3929,-4.407,-4.4199,0.0,0.0,0.0,0.0,0.0,0.0,-4.3108,-4.266,0.0,0.0,0.0,0.0,0.0,-4.2378,-4.2378,-4.3112,-4.3515,-4.3515,-4.3515,-4.3515,-4.3515,-4.3515,-4.3515,-4.3515,-4.3515,-4.3515,-4.3515,-4.3515,-4.3515,-4.3515,-4.3515,-4.3515,-4.3515,-4.3515,-4.3497,-4.348,-4.3411,-4.3394,-4.3323,0.0,0.0,-4.5364,-4.5556,-4.5594,-4.5594,-4.5594,-4.5594,-4.5594,-4.5594,-4.5594,-4.5594,-4.5594,-4.5594,-4.5594,-4.5594,-4.5594,-4.5594,-4.5594,-4.5594,-4.5594,-4.5594,-4.5594,-4.5594,-4.5594,-4.5594,-4.5498,-4.5287,-4.5094,-4.5017,-4.5017,-4.5017,-4.5114,-4.5287,-4.5287,-4.5421,-4.5586,-4.5467,-4.54,-4.539,-4.5237,-4.5148,-4.5091,-4.4931,-4.4833,-4.4745,-4.4619,-4.4524,-4.4473,-4.434,-4.4266,-4.4207,-4.4195,-4.418,-4.4119,-4.3835,-4.3753,-4.3754,-4.3719,-4.3738,-4.3738,-4.3738,-4.3651,-4.3565,-4.3496,-4.3515,-4.3515,-4.3515,-4.3515,-4.3532,-4.3565,-4.3667,-4.3802,-4.3929,-4.4073,-4.4211,-4.4401,-4.4458,0.0,0.0,-4.4592,-4.4448,-4.4205,-4.4059,-4.3789,0.0,0.0,0.0,0.0,-4.3221,-4.3222,-4.3222,-4.3387,-4.3515,-4.3515,-4.3515,-4.3515,-4.3515,-4.3515,-4.3515,-4.3515,-4.3515,-4.3515,-4.3515,-4.3515,-4.3515,-4.3515,-4.3515,-4.3515,-4.3515,-4.3515,-4.3463,-4.3411,-4.3412,-4.3251,-4.3013,-4.5594,-4.5594,-4.5594,-4.5594,-4.5594,-4.5594,-4.5594,-4.5594,-4.5594,-4.5594,-4.5594,-4.5594,-4.5594,-4.5594,-4.5594,-4.5594,-4.5594,-4.5594,-4.5594,-4.5594,-4.5594,-4.5594,-4.5594,-4.5594,-4.5594,-4.5594,-4.5594,-4.5594,-4.5594,-4.5594,-4.5594,-4.5594,-4.5594,-4.5594,-4.5594,-4.5594,-4.5586,-4.5495,-4.5429,-4.539,-4.5298,-4.5203,-4.5136,-4.5026,-4.4943,-4.487,-4.477,-4.468,-4.4619,-4.4524,-4.4468,-4.443,-4.4373,-4.4358,-4.4314,-4.4089,-4.3963,-4.3883,-4.382,-4.3804,-4.3788,-4.3719,-4.3651,-4.3582,-4.3532,-4.3515,-4.3515,-4.3515,-4.3515,-4.3513,-4.3582,-4.3719,-4.3835,-4.3974,-4.4162,-4.4344,-4.4487,-4.4578,0.0,-4.4751,-4.4699,-4.4619,-4.4551,-4.4401,-4.4192,-4.3961,-4.3851,0.0,-4.3548,-4.3532,-4.3515,-4.3515,-4.3515,-4.3515,-4.3515,-4.3515,-4.3515,-4.3515,-4.3515,-4.3515,-4.3515,-4.3515,-4.3515,-4.3515,-4.3515,-4.3515,-4.3515,-4.3515,-4.348,-4.3445,-4.3445,-4.3375,-4.3305,-4.3196,-4.3068,-4.2863,-4.5594,-4.5594,-4.5594,-4.5594,-4.5594,-4.5594,-4.5594,-4.5594,-4.5594,-4.5594,-4.5594,-4.5594,-4.5594,-4.5594,-4.5594,-4.5594,-4.5594,-4.5594,-4.5594,-4.5594,-4.5594,-4.5594,-4.5594,-4.5594,-4.5594,-4.5594,-4.5594,-4.5594,-4.5594,-4.5594,-4.5594,-4.5594,-4.5594,-4.5594,-4.5594,-4.5594,-4.5605,-4.5522,-4.5476,-4.541,-4.535,-4.5267,-4.5203,-4.5159,-4.5091,-4.5022,-4.4943,-4.4883,-4.4808,-4.4712,-4.4646,-4.4605,-4.4496,-4.444,-4.4411,-4.4358,-4.4207,-4.402,-4.3883,-4.3853,-4.3802,-4.3667,-4.3634,-4.3617,-4.3513,-4.3515,-4.3515,-4.3515,-4.3515,-4.3549,-4.3617,-4.3753,-4.3883,-4.4036,-4.4248,-4.444,-4.4524,0.0,-4.4796,-4.4796,-4.4751,-4.4672,-4.4592,-4.4383,-4.4192,-4.4005,-4.3851,-4.3719,-4.3582,-4.3513,-4.3515,-4.3515,-4.3515,-4.3515,-4.3515,-4.3515,-4.3515,-4.3515,-4.3515,-4.3515,-4.3515,-4.3515,-4.3515,-4.3515,-4.3515,-4.3479,-4.348,-4.348,-4.3446,-4.3358,-4.3358,-4.3269,-4.3123,-4.2939,-4.2844,-4.2749,-4.5594,-4.5594,-4.5594,-4.5594,-4.5594,-4.5594,-4.5594,-4.5594,-4.5594,-4.5594,-4.5594,-4.5594,-4.5594,-4.5594,-4.5594,-4.5594,-4.5594,-4.5594,-4.5594,-4.5594,-4.5594,-4.5594,-4.5594,-4.5594,-4.5594,-4.5594,-4.5594,-4.5594,-4.5594,-4.5594,-4.5594,-4.5594,-4.5594,-4.5594,-4.5594,-4.5594,-4.5605,-4.5522,-4.5495,-4.5485,-4.541,-4.5341,-4.5286,-4.5275,-4.5192,-4.5091,-4.5061,-4.5033,-4.4974,-4.4943,-4.4858,-4.4776,-4.4732,-4.4672,-4.4551,-4.4501,-4.4416,-4.431,-4.4165,-4.4058,-4.3945,-4.3802,-4.3771,-4.3719,-4.3549,-4.3515,-4.3515,-4.3515,-4.3566,-4.3634,-4.3754,-4.3881,-4.4051,-4.431,-4.4411,-4.4537,-4.4738,0.0,-4.4796,-4.4796,-4.4751,-4.4659,-4.4528,-4.4277,-4.4064,-4.3929,-4.3751,-4.36,-4.3513,-4.3515,-4.3515,-4.3515,-4.3515,-4.3515,-4.3515,-4.3515,-4.3515,-4.3515,-4.3515,-4.3515,-4.3515,-4.3515,-4.3515,-4.3515,-4.3515,-4.3463,-4.3429,-4.3429,-4.334,-4.3233,-4.3233,-4.3105,-4.292,-4.2769,-4.2593,-4.2351,-4.5594,-4.5594,-4.5594,-4.5594,-4.5594,-4.5594,-4.5594,-4.5594,-4.5594,-4.5594,-4.5594,-4.5594,-4.5594,-4.5594,-4.5594,-4.5594,-4.5594,-4.5594,-4.5594,-4.5594,-4.5594,-4.5594,-4.5594,-4.5594,-4.5594,-4.5594,-4.5594,-4.5594,-4.5594,-4.5594,-4.5594,-4.5594,-4.5594,-4.5594,-4.5594,-4.5594,-4.5594,-4.5568,-4.5522,-4.5495,-4.5476,-4.54,-4.5351,-4.5351,-4.532,-4.525,-4.5256,-4.5213,-4.5159,-4.5125,-4.5038,-4.4943,-4.487,-4.4808,-4.4719,-4.4592,-4.443,-4.427,-4.4214,-4.4073,-4.3929,-4.3818,-4.3754,-4.3651,-4.3532,-4.3515,-4.3515,-4.3566,-4.3582,-4.3649,-4.3865,-4.3961,-4.4097,-4.4397,-4.4537,0.0,0.0,-4.4858,-4.487,-4.4815,-4.4712,-4.4592,-4.4454,-4.4203,-4.3989,-4.3851,-4.3701,-4.3565,-4.3496,-4.3515,-4.3515,-4.3515,-4.3515,-4.3515,-4.3515,-4.3515,-4.3515,-4.3515,-4.3515,-4.3515,-4.3515,-4.3463,-4.3446,-4.3446,-4.3375,-4.3322,-4.3305,-4.3305,-4.3196,-4.305,-4.305,-4.2863,-4.2613,-4.2514,-4.2313,-4.2061,-4.5594,-4.5594,-4.5594,-4.5594,-4.5594,-4.5594,-4.5594,-4.5594,-4.5594,-4.5594,-4.5594,-4.5594,-4.5594,-4.5594,-4.5594,-4.5594,-4.5594,-4.5594,-4.5594,-4.5594,-4.5594,-4.5594,-4.5594,-4.5594,-4.5594,-4.5594,-4.5594,-4.5594,-4.5594,-4.5594,-4.5594,-4.5594,-4.5594,-4.5594,-4.5594,-4.5594,-4.5594,-4.5594,-4.5568,-4.5522,-4.5522,-4.5485,-4.5419,-4.5419,-4.5419,-4.54,-4.54,-4.5379,-4.5309,-4.5256,-4.5203,-4.5125,-4.4979,-4.4938,-4.4858,-4.4685,-4.4426,-4.4214,-4.4153,-4.4011,-4.3883,-4.3769,-4.3667,-4.3582,-4.3532,-4.3515,-4.3513,-4.3582,-4.3615,-4.3734,-4.3958,-4.4051,-4.4188,-4.4496,0.0,0.0,0.0,-4.495,-4.4943,-4.4783,-4.4672,-4.4537,-4.4354,-4.4113,-4.3913,-4.3753,-4.3634,-4.3548,-4.3496,-4.3515,-4.3515,-4.3515,-4.3515,-4.3515,-4.3515,-4.3515,-4.3515,-4.3515,-4.3515,-4.3497,-4.348,-4.3411,-4.3376,-4.334,-4.3251,-4.3196,-4.3178,-4.3142,-4.3031,-4.2862,-4.2824,-4.2613,-4.2371,-4.2246,-4.2019,-4.1784,-4.5594,-4.5594,-4.5594,-4.5594,-4.5594,-4.5594,-4.5594,-4.5594,-4.5594,-4.5594,-4.5594,-4.5594,-4.5594,-4.5594,-4.5594,-4.5594,-4.5594,-4.5594,-4.5594,-4.5594,-4.5594,-4.5594,-4.5594,-4.5594,-4.5594,-4.5594,-4.5594,-4.5594,-4.5594,-4.5594,-4.5594,-4.5594,-4.5594,-4.5594,-4.5594,-4.5594,-4.5594,-4.5594,-4.5594,-4.5586,-4.5586,-4.5559,-4.5495,-4.5495,-4.5448,-4.54,-4.54,-4.54,-4.539,-4.5389,-4.5338,-4.5265,-4.5125,-4.4991,-4.487,-4.4719,-4.4496,-4.424,-4.3995,-4.3897,-4.3849,-4.3649,-4.3599,-4.3582,-4.3532,-4.3515,-4.3513,-4.3582,-4.3703,-4.3818,-4.3974,-4.4203,-4.444,-4.4659,0.0,0.0,-4.4986,-4.4991,-4.4919,-4.4738,-4.4646,-4.4463,-4.4155,-4.3989,-4.3832,-4.3615,-4.3566,-4.3515,-4.3515,-4.3515,-4.3515,-4.3515,-4.3515,-4.3515,-4.3515,-4.3515,-4.3515,-4.3515,-4.3515,-4.3463,-4.3412,-4.3412,-4.3323,-4.3196,-4.3196,-4.316,-4.3104,-4.2975,-4.288,-4.2783,-4.2532,-4.2391,-4.2267,-4.1952,-4.1736,-4.156,-4.5594,-4.5594,-4.5594,-4.5594,-4.5594,-4.5594,-4.5594,-4.5594,-4.5594,-4.5594,-4.5594,-4.5594,-4.5594,-4.5594,-4.5594,-4.5594,-4.5594,-4.5594,-4.5594,-4.5594,-4.5594,-4.5594,-4.5594,-4.5594,-4.5594,-4.5594,-4.5594,-4.5594,-4.5594,-4.5594,-4.5594,-4.5594,-4.5594,-4.5594,-4.5594,-4.5594,-4.5594,-4.5594,-4.5594,-4.5594,-4.5594,-4.5586,-4.5568,-4.5568,-4.555,-4.5522,-4.5522,-4.5495,-4.5467,-4.541,-4.538,-4.5328,-4.5159,-4.5068,-4.4974,-4.4672,-4.4397,-4.4128,-4.3899,-4.3853,-4.3802,-4.3651,-4.3565,-4.3513,-4.3515,-4.3531,-4.36,-4.3703,-4.3816,-4.3992,-4.4222,-4.4368,-4.4537,-4.477,0.0,-4.4967,-4.501,-4.5045,-4.4967,-4.4738,-4.4605,-4.4407,-4.414,-4.3945,-4.3769,-4.3599,-4.3549,-4.3515,-4.3515,-4.3515,-4.3515,-4.3515,-4.3515,-4.3515,-4.3515,-4.3515,-4.3515,-4.3515,-4.3515,-4.3463,-4.3394,-4.3323,-4.3233,-4.3123,-4.3012,-4.2936,-4.2898,-4.267,-4.2552,-4.245,-4.219,-4.1998,-4.1845,-4.1626,-4.1403,-4.1129,-4.5637,-4.5637,-4.5637,-4.5637,-4.5637,-4.5629,-4.564,-4.5631,-4.5631,-4.5594,-4.5594,-4.5594,-4.5594,-4.5594,-4.5594,-4.5594,-4.5594,-4.5594,-4.5594,-4.5594,-4.5594,-4.5594,-4.5594,-4.5594,-4.5594,-4.5594,-4.5594,-4.5594,-4.5594,-4.5594,-4.5594,-4.5594,-4.5594,-4.5594,-4.5594,-4.5594,-4.5594,-4.5594,-4.5594,-4.5594,-4.5594,-4.5594,-4.5594,-4.5594,-4.5594,-4.5594,-4.5594,-4.5568,-4.5513,-4.5429,-4.54,-4.536,-4.517,-4.5033,-4.487,-4.4565,-4.4277,-4.4017,-4.3851,-4.3771,-4.3719,-4.36,-4.3531,-4.3515,-4.3532,-4.3565,-4.3651,-4.3835,-4.3942,-4.4109,-4.4383,-4.451,-4.4672,-4.4883,-4.501,-4.5068,-4.5026,-4.5038,-4.4967,-4.4712,-4.4551,-4.4354,-4.4082,-4.3881,-4.3754,-4.3565,-4.3532,-4.3515,-4.3515,-4.3515,-4.3515,-4.3515,-4.3515,-4.3515,-4.3515,-4.3515,-4.3515,-4.3515,-4.3515,-4.3445,-4.334,-4.3233,-4.3142,-4.303,-4.286,-4.2764,-4.2725,-4.2472,-4.229,-4.2145,-4.1913,-4.1675,-4.1453,-4.1312,-4.1059,-4.084,-4.5708,-4.5708,-4.5708,-4.5708,-4.5708,-4.5692,-4.5709,-4.5701,-4.5684,-4.5622,-4.5594,-4.5594,-4.5594,-4.5594,-4.5594,-4.5594,-4.5594,-4.5594,-4.5594,-4.5594,-4.5594,-4.5594,-4.5594,-4.5594,-4.5594,-4.5594,-4.5594,-4.5594,-4.5594,-4.5594,-4.5594,-4.5594,-4.5594,-4.5594,-4.5594,-4.5594,-4.5594,-4.5594,-4.5594,-4.5594,-4.5594,-4.5594,-4.5594,-4.5594,-4.5594,-4.5594,-4.5594,-4.5594,-4.5577,-4.5457,-4.54,-4.5371,-4.5162,-4.4858,-4.4578,-4.444,-4.4203,-4.3958,-4.3853,-4.3703,-4.3582,-4.3532,-4.3515,-4.3532,-4.3582,-4.3599,-4.3682,-4.3958,-4.4048,-4.4185,-4.444,-4.4672,-4.4833,-4.4967,-4.5114,-4.5181,-4.5114,-4.5038,-4.4895,-4.4632,-4.4482,-4.4266,-4.3929,-4.3835,-4.3721,-4.3515,-4.3515,-4.3515,-4.3515,-4.3515,-4.3515,-4.3515,-4.3515,-4.3515,-4.3515,-4.3515,-4.3515,-4.3515,-4.3515,-4.3392,-4.3214,-4.3214,-4.3087,-4.29,-4.2841,-4.2725,-4.2589,-4.2389,-4.2145,-4.1892,-4.1653,-4.1431,-4.1186,-4.0965,-4.0817,-4.0648,-4.5773,-4.5765,-4.5758,-4.5708,-4.5708,-4.57,-4.5711,-4.5703,-4.5684,-4.5668,-4.5668,-4.5668,-4.5668,-4.5682,-4.5665,-4.5665,-4.5631,-4.5594,-4.5594,-4.5594,-4.5594,-4.5594,-4.5594,-4.5594,-4.5594,-4.5594,-4.5594,-4.5594,-4.5594,-4.5594,-4.5594,-4.5594,-4.5594,-4.5594,-4.5594,-4.5594,-4.5594,-4.5594,-4.5594,-4.5594,-4.5594,-4.5594,-4.5594,-4.5594,-4.5594,-4.5594,-4.5594,-4.5594,-4.5577,-4.5457,-4.54,-4.5361,-4.5117,-4.4821,-4.4578,-4.444,-4.4177,-4.3913,-4.382,-4.3669,-4.3532,-4.3496,-4.3549,-4.3565,-4.3599,-4.3749,-4.3926,-4.4048,-4.4248,-4.4454,-4.4672,-4.4815,-4.4919,-4.5114,-4.517,-4.5181,-4.5114,-4.5038,-4.4895,-4.4632,-4.4388,-4.417,-4.3929,-4.3751,-4.3617,-4.3515,-4.3515,-4.3515,-4.3515,-4.3515,-4.3515,-4.3515,-4.3515,-4.3515,-4.3515,-4.3515,-4.3515,-4.3515,-4.3515,-4.3392,-4.3214,-4.3214,-4.3068,-4.2804,-4.2707,-4.255,-4.2369,-4.2079,-4.1845,-4.1653,-4.1267,-4.1059,-4.0965,-4.0704,-4.0534,-4.0404,-4.5886,-4.588,-4.5866,-4.5786,-4.5778,-4.5778,-4.5783,-4.5776,-4.5776,-4.5734,-4.5739,-4.5731,-4.5731,-4.5711,-4.5706,-4.5706,-4.5665,-4.564,-4.564,-4.5603,-4.5594,-4.5594,-4.5594,-4.5594,-4.5594,-4.5594,-4.5594,-4.5594,-4.5594,-4.5594,-4.5594,-4.5594,-4.5594,-4.5594,-4.5594,-4.5594,-4.5594,-4.5594,-4.5594,-4.5594,-4.5594,-4.5594,-4.5594,-4.5594,-4.5594,-4.5594,-4.5594,-4.5594,-4.5577,-4.5457,-4.5351,-4.5239,-4.5026,-4.4789,-4.4524,-4.4335,-4.4085,-4.3835,-4.3753,-4.3617,-4.3515,-4.3531,-4.3565,-4.3632,-4.3732,-4.3894,-4.4051,-4.4214,-4.4421,-4.4632,-4.4815,-4.4931,-4.5068,-4.5181,-4.5192,-4.517,-4.5061,-4.4967,-4.4821,-4.4551,-4.4302,-4.4094,-4.3883,-4.3701,-4.3565,-4.3515,-4.3515,-4.3515,-4.3515,-4.3515,-4.3515,-4.3515,-4.3515,-4.3515,-4.3515,-4.3515,-4.3515,-4.3515,-4.3515,-4.3392,-4.3214,-4.3214,-4.305,-4.2783,-4.2609,-4.2412,-4.2187,-4.1866,-4.1582,-4.1375,-4.1012,-4.0799,-4.0631,-4.0485,-4.0337,-4.0213,-4.6014,-4.6008,-4.5997,-4.5923,-4.5917,-4.5911,-4.5919,-4.5912,-4.588,-4.5827,-4.5812,-4.5829,-4.5829,-4.5765,-4.5723,-4.5723,-4.5703,-4.5709,-4.5709,-4.5648,-4.5603,-4.5622,-4.5622,-4.5614,-4.5594,-4.5594,-4.5594,-4.5594,-4.5594,-4.5594,-4.5594,-4.5594,-4.5594,-4.5594,-4.5594,-4.5594,-4.5594,-4.5594,-4.5594,-4.5594,-4.5594,-4.5594,-4.5594,-4.5594,-4.5594,-4.5594,-4.5594,-4.5594,-4.5577,-4.5457,-4.526,-4.508,-4.4931,-4.4725,-4.444,-4.4185,-4.3961,-4.3771,-4.3634,-4.3548,-4.3532,-4.36,-4.3615,-4.3699,-4.3942,-4.402,-4.4128,-4.444,-4.4619,-4.4745,-4.4895,-4.508,-4.5203,-4.5203,-4.5203,-4.5159,-4.5014,-4.487,-4.4693,-4.4426,-4.4218,-4.402,-4.382,-4.3667,-4.3565,-4.3496,-4.3515,-4.3515,-4.3515,-4.3515,-4.3515,-4.3515,-4.3515,-4.3515,-4.3515,-4.3515,-4.3515,-4.3515,-4.3515,-4.3392,-4.3214,-4.3214,-4.305,-4.2764,-4.2512,-4.229,-4.204,-4.1719,-4.138,-4.107,-4.0935,-4.0631,-4.0305,-4.0305,-4.0213,-4.0096,-4.608,-4.6071,-4.6056,-4.5991,-4.598,-4.598,-4.5975,-4.5975,-4.5969,-4.5964,-4.5955,-4.5956,-4.5956,-4.59,-4.5866,-4.5866,-4.5803,-4.577,-4.5692,-4.5684,-4.5679,-4.5684,-4.5684,-4.5648,-4.5594,-4.5594,-4.5594,-4.5594,-4.5594,-4.5594,-4.5594,-4.5594,-4.5594,-4.5594,-4.5594,-4.5594,-4.5594,-4.5594,-4.5594,-4.5594,-4.5594,-4.5594,-4.5594,-4.5594,-4.5594,-4.5594,-4.5594,-4.5594,-4.5577,-4.5457,-4.526,-4.508,-4.4931,-4.4725,-4.444,-4.4185,-4.3961,-4.3771,-4.3634,-4.3582,-4.3617,-4.3719,-4.3832,-4.3942,-4.3989,-4.4203,-4.444,-4.4619,-4.4757,-4.4907,-4.5103,-4.517,-4.5213,-4.5275,-4.5224,-4.5159,-4.5014,-4.4833,-4.4646,-4.4426,-4.4147,-4.3915,-4.3804,-4.3617,-4.3532,-4.3515,-4.3515,-4.3515,-4.3515,-4.3515,-4.3515,-4.3515,-4.3515,-4.3515,-4.3515,-4.3515,-4.3515,-4.3515,-4.3515,-4.3392,-4.3214,-4.3214,-4.3012,-4.2629,-4.2472,-4.2207,-4.1845,-4.1565,-4.1249,-4.0912,-4.068,-4.0461,-4.0305,-4.0188,-4.0121,-4.0096,-4.615,-4.6142,-4.6131,-4.6098,-4.6093,-4.6093,-4.6093,-4.6093,-4.6093,-4.6093,-4.6061,-4.6056,-4.6056,-4.5989,-4.5943,-4.595,-4.59,-4.5833,-4.5798,-4.5773,-4.5743,-4.5746,-4.5726,-4.5693,-4.5648,-4.5622,-4.5594,-4.5594,-4.5594,-4.5594,-4.5594,-4.5594,-4.5594,-4.5594,-4.5594,-4.5594,-4.5594,-4.5594,-4.5594,-4.5594,-4.5594,-4.5594,-4.5594,-4.5594,-4.5594,-4.5594,-4.5594,-4.5559,-4.5495,-4.5419,-4.526,-4.508,-4.4931,-4.4725,-4.444,-4.4124,-4.3929,-4.3753,-4.36,-4.3565,-4.3632,-4.3802,-4.3974,-4.4124,-4.4173,-4.4383,-4.4592,-4.4745,-4.4919,-4.5091,-4.5213,-4.5256,-4.5307,-4.5338,-4.5243,-4.5114,-4.4967,-4.477,-4.4546,-4.4292,-4.4055,-4.3851,-4.3669,-4.3566,-4.3515,-4.3515,-4.3515,-4.3515,-4.3515,-4.3515,-4.3515,-4.3515,-4.3515,-4.3515,-4.3515,-4.3515,-4.3515,-4.3515,-4.3515,-4.3428,-4.3286,-4.3233,-4.3031,-4.2668,-4.2452,-4.2184,-4.1862,-4.1475,-4.114,-4.0871,-4.0607,-4.0387,-4.0188,-4.0138,-4.0096,-4.0096,-4.6223,-4.622,-4.6215,-4.62,-4.6196,-4.6196,-4.6196,-4.6193,-4.6193,-4.6193,-4.6158,-4.6115,-4.6115,-4.6075,-4.6037,-4.6019,-4.5978,-4.5923,-4.5919,-4.5859,-4.5817,-4.5795,-4.5754,-4.5706,-4.5701,-4.5648,-4.5603,-4.5594,-4.5594,-4.5594,-4.5594,-4.5594,-4.5594,-4.5594,-4.5594,-4.5594,-4.5594,-4.5594,-4.5594,-4.5594,-4.5594,-4.5594,-4.5594,-4.5594,-4.5594,-4.5594,-4.5594,-4.5513,-4.54,-4.54,-4.526,-4.508,-4.4931,-4.4725,-4.4444,-4.4113,-4.3929,-4.3788,-4.36,-4.36,-4.3682,-4.3881,-4.4079,-4.4269,-4.4426,-4.4565,-4.4712,-4.4907,-4.5103,-4.5243,-4.5307,-4.5359,-4.5398,-4.5359,-4.5203,-4.5026,-4.4883,-4.468,-4.4435,-4.4124,-4.3942,-4.3767,-4.3513,-4.3515,-4.3515,-4.3515,-4.3515,-4.3515,-4.3515,-4.3515,-4.3515,-4.3515,-4.3515,-4.3515,-4.3515,-4.3515,-4.3515,-4.3515,-4.3515,-4.3463,-4.3394,-4.3251,-4.3068,-4.2803,-4.247,-4.2202,-4.1945,-4.1431,-4.1111,-4.0871,-4.0607,-4.0362,-4.0121,-4.0113,-4.0096,-4.0096,-4.6288,-4.6287,-4.6264,-4.6216,-4.6195,-4.6195,-4.6195,-4.6206,-4.6199,-4.6199,-4.6195,-4.6193,-4.6193,-4.6176,-4.6146,-4.6084,-4.608,-4.6047,-4.5991,-4.5974,-4.5912,-4.58,-4.5786,-4.5754,-4.5701,-4.5693,-4.5657,-4.5594,-4.5594,-4.5594,-4.5594,-4.5594,-4.5594,-4.5594,-4.5594,-4.5594,-4.5594,-4.5594,-4.5594,-4.5594,-4.5594,-4.5594,-4.5594,-4.5594,-4.5594,-4.5594,-4.5594,-4.5513,-4.54,-4.54,-4.526,-4.508,-4.4931,-4.4725,-4.444,-4.417,-4.3989,-4.3867,-4.3769,-4.3802,-4.3881,-4.3958,-4.4173,-4.4407,-4.4619,-4.4757,-4.4907,-4.5125,-4.5243,-4.5307,-4.5369,-4.5379,-4.5359,-4.5254,-4.5114,-4.4943,-4.4745,-4.4546,-4.4321,-4.4051,-4.3798,-4.3599,-4.3515,-4.3515,-4.3515,-4.3515,-4.3515,-4.3515,-4.3515,-4.3515,-4.3515,-4.3515,-4.3515,-4.3515,-4.3515,-4.3515,-4.3515,-4.3515,-4.3515,-4.3463,-4.3394,-4.3251,-4.3087,-4.2881,-4.2532,-4.2207,-4.1892,-4.152,-4.1198,-4.0871,-4.0607,-4.0412,-4.0263,-4.0138,-4.0096,-4.0096,-4.6299,-4.6299,-4.6297,-4.6256,-4.6255,-4.6255,-4.6255,-4.6252,-4.6251,-4.6251,-4.6259,-4.6269,-4.6269,-4.6214,-4.6189,-4.6153,-4.6169,-4.6127,-4.6051,-4.6056,-4.6016,-4.5923,-4.5887,-4.5826,-4.5765,-4.5714,-4.5693,-4.5648,-4.5622,-4.5594,-4.5594,-4.5594,-4.5594,-4.5594,-4.5594,-4.5594,-4.5594,-4.5594,-4.5594,-4.5594,-4.5594,-4.5594,-4.5594,-4.5594,-4.5594,-4.5594,-4.5594,-4.5513,-4.54,-4.54,-4.526,-4.508,-4.4931,-4.4725,-4.444,-4.4185,-4.4005,-4.3899,-4.382,-4.3883,-4.3974,-4.4094,-4.4345,-4.4613,-4.4821,-4.4991,-4.5148,-4.5243,-4.5319,-4.5361,-4.539,-4.539,-4.538,-4.5267,-4.5114,-4.4919,-4.4738,-4.4458,-4.417,-4.383,-4.3632,-4.3531,-4.3496,-4.3515,-4.3515,-4.3515,-4.3515,-4.3515,-4.3515,-4.3515,-4.3515,-4.3515,-4.3515,-4.3515,-4.3515,-4.3515,-4.3515,-4.3515,-4.3515,-4.348,-4.3464,-4.3358,-4.3196,-4.2975,-4.265,-4.2371,-4.2082,-4.1675,-4.1335,-4.1041,-4.0823,-4.0558,-4.0288,-4.0238,-4.0163,-4.0096]},{"header":{"parameterUnit":"m.s-1","parameterCategory":1,"la1":30.6,"la2":28.766,"lo1":-90.7593,"lo2":-88.6598,"dy":0.0162,"dx":0.0183,"nx":116,"ny":114,"refTime":"2023-03-06T18:00:00:Z","depth":0,"parameterNumber":3,"parameterNumberName":"V-component_of_WINDS"},"data":[0.0,0.0,0.0,0.0,0.0,0.0,0.0,0.0,0.0,0.0,0.0,0.0,0.0,0.0,0.0,0.0,0.0,0.0,0.0,0.0,0.0,0.0,0.0,0.0,0.0,0.0,0.0,0.0,0.0,0.0,0.0,0.0,0.0,0.0,0.0,0.0,0.0,0.0,0.0,0.0,0.0,0.0,0.0,0.0,0.0,0.0,0.0,0.0,0.0,0.0,0.0,0.0,0.0,0.0,0.0,0.0,0.0,0.0,0.0,0.0,0.0,0.0,0.0,0.0,0.0,0.0,0.0,0.0,0.0,0.0,0.0,0.0,0.0,0.0,0.0,0.0,0.0,0.0,0.0,0.0,0.0,0.0,0.0,0.0,0.0,0.0,0.0,0.0,0.0,0.0,0.0,0.0,0.0,0.0,0.0,0.0,0.0,0.0,0.0,0.0,0.0,0.0,0.0,0.0,0.0,0.0,0.0,0.0,0.0,0.0,0.0,0.0,0.0,0.0,0.0,0.0,0.0,0.0,0.0,0.0,0.0,0.0,0.0,0.0,0.0,0.0,0.0,0.0,0.0,0.0,0.0,0.0,0.0,0.0,0.0,0.0,0.0,0.0,0.0,0.0,0.0,0.0,0.0,0.0,0.0,0.0,0.0,0.0,0.0,0.0,0.0,0.0,0.0,0.0,0.0,0.0,0.0,0.0,0.0,0.0,0.0,0.0,0.0,0.0,0.0,0.0,0.0,0.0,0.0,0.0,0.0,0.0,0.0,0.0,0.0,0.0,0.0,0.0,0.0,0.0,0.0,0.0,0.0,0.0,0.0,0.0,0.0,0.0,0.0,0.0,0.0,0.0,0.0,0.0,0.0,0.0,0.0,0.0,0.0,0.0,0.0,0.0,0.0,0.0,0.0,0.0,0.0,0.0,0.0,0.0,0.0,0.0,0.0,0.0,0.0,0.0,0.0,0.0,0.0,0.0,0.0,0.0,0.0,0.0,0.0,0.0,0.0,0.0,0.0,0.0,0.0,0.0,0.0,0.0,0.0,0.0,0.0,0.0,0.0,0.0,0.0,0.0,0.0,0.0,0.0,0.0,0.0,0.0,0.0,0.0,0.0,0.0,0.0,0.0,0.0,0.0,0.0,0.0,0.0,0.0,0.0,0.0,0.0,0.0,0.0,0.0,0.0,0.0,0.0,0.0,0.0,0.0,0.0,0.0,0.0,0.0,0.0,0.0,0.0,0.0,0.0,0.0,0.0,0.0,0.0,0.0,0.0,0.0,0.0,0.0,0.0,0.0,0.0,0.0,0.0,0.0,0.0,0.0,0.0,0.0,0.0,0.0,0.0,0.0,0.0,0.0,0.0,0.0,0.0,0.0,0.0,0.0,0.0,0.0,0.0,0.0,0.0,0.0,0.0,0.0,0.0,0.0,0.0,0.0,0.0,0.0,0.0,0.0,0.0,0.0,0.0,0.0,0.0,0.0,0.0,0.0,0.0,0.0,0.0,0.0,0.0,0.0,0.0,0.0,0.0,0.0,0.0,0.0,0.0,0.0,0.0,0.0,0.0,0.0,0.0,0.0,0.0,0.0,0.0,0.0,0.0,0.0,0.0,0.0,0.0,0.0,0.0,0.0,0.0,0.0,0.0,0.0,0.0,0.0,0.0,0.0,0.0,0.0,0.0,0.0,0.0,0.0,0.0,0.0,0.0,0.0,0.0,0.0,0.0,0.0,0.0,0.0,0.0,0.0,0.0,0.0,0.0,0.0,0.0,0.0,0.0,0.0,0.0,0.0,0.0,0.0,0.0,0.0,0.0,0.0,0.0,0.0,0.0,0.0,0.0,0.0,0.0,0.0,0.0,0.0,0.0,0.0,0.0,0.0,0.0,0.0,0.0,0.0,0.0,0.0,0.0,0.0,0.0,0.0,0.0,0.0,0.0,0.0,0.0,0.0,0.0,0.0,0.0,0.0,0.0,0.0,0.0,0.0,0.0,0.0,0.0,0.0,0.0,0.0,0.0,0.0,0.0,0.0,0.0,0.0,0.0,0.0,0.0,0.0,0.0,0.0,0.0,0.0,0.0,0.0,0.0,0.0,0.0,0.0,0.0,0.0,0.0,0.0,0.0,0.0,0.0,0.0,0.0,0.0,0.0,0.0,0.0,0.0,0.0,0.0,0.0,0.0,0.0,0.0,0.0,0.0,0.0,0.0,0.0,0.0,0.0,0.0,0.0,0.0,0.0,0.0,0.0,0.0,0.0,0.0,0.0,0.0,0.0,0.0,0.0,0.0,0.0,0.0,0.0,0.0,0.0,0.0,0.0,0.0,0.0,0.0,0.0,0.0,0.0,0.0,0.0,0.0,0.0,0.0,0.0,0.0,0.0,0.0,0.0,0.0,0.0,0.0,0.0,0.0,0.0,0.0,0.0,0.0,0.0,0.0,0.0,0.0,0.0,0.0,0.0,0.0,0.0,0.0,0.0,0.0,0.0,0.0,0.0,0.0,0.0,0.0,0.0,0.0,0.0,0.0,0.0,0.0,0.0,0.0,0.0,0.0,0.0,0.0,0.0,0.0,0.0,0.0,0.0,0.0,0.0,0.0,0.0,0.0,0.0,0.0,0.0,0.0,0.0,0.0,0.0,0.0,0.0,0.0,0.0,0.0,0.0,0.0,0.0,0.0,0.0,0.0,0.0,0.0,0.0,0.0,0.0,0.0,0.0,0.0,0.0,0.0,0.0,0.0,0.0,0.0,0.0,0.0,0.0,0.0,0.0,0.0,0.0,0.0,0.0,0.0,0.0,0.0,0.0,0.0,0.0,0.0,0.0,0.0,0.0,0.0,0.0,0.0,0.0,0.0,0.0,0.0,0.0,0.0,0.0,0.0,0.0,0.0,0.0,0.0,0.0,0.0,0.0,0.0,0.0,0.0,0.0,0.0,0.0,0.0,0.0,0.0,0.0,0.0,0.0,0.0,0.0,0.0,0.0,0.0,0.0,0.0,0.0,0.0,0.0,0.0,0.0,0.0,0.0,0.0,0.0,0.0,0.0,0.0,0.0,0.0,0.0,0.0,0.0,0.0,0.0,0.0,0.0,0.0,0.0,0.0,0.0,0.0,0.0,0.0,0.0,0.0,0.0,0.0,0.0,0.0,0.0,0.0,0.0,0.0,0.0,0.0,0.0,0.0,0.0,0.0,0.0,0.0,0.0,0.0,0.0,0.0,0.0,0.0,0.0,0.0,0.0,0.0,0.0,0.0,0.0,0.0,0.0,0.0,0.0,0.0,0.0,0.0,0.0,0.0,0.0,0.0,0.0,0.0,0.0,0.0,0.0,0.0,0.0,0.0,0.0,0.0,0.0,0.0,0.0,0.0,0.0,0.0,0.0,0.0,0.0,0.0,0.0,0.0,0.0,0.0,0.0,0.0,0.0,0.0,0.0,0.0,0.0,0.0,0.0,0.0,0.0,0.0,0.0,0.0,0.0,0.0,0.0,0.0,0.0,0.0,0.0,0.0,0.0,0.0,0.0,0.0,0.0,0.0,0.0,0.0,0.0,0.0,0.0,0.0,0.0,0.0,0.0,0.0,0.0,0.0,0.0,0.0,0.0,0.0,0.0,0.0,0.0,0.0,0.0,0.0,0.0,0.0,0.0,0.0,0.0,0.0,0.0,0.0,0.0,0.0,0.0,0.0,0.0,0.0,0.0,0.0,0.0,0.0,0.0,0.0,0.0,0.0,0.0,0.0,0.0,0.0,0.0,0.0,0.0,0.0,0.0,0.0,0.0,0.0,0.0,0.0,0.0,0.0,0.0,0.0,0.0,0.0,0.0,0.0,0.0,0.0,0.0,0.0,0.0,0.0,0.0,0.0,0.0,0.0,0.0,0.0,0.0,0.0,0.0,0.0,0.0,0.0,0.0,0.0,0.0,0.0,0.0,0.0,0.0,0.0,0.0,0.0,0.0,0.0,0.0,0.0,0.0,0.0,0.0,0.0,0.0,0.0,0.0,0.0,0.0,0.0,0.0,0.0,0.0,0.0,0.0,0.0,0.0,0.0,0.0,0.0,0.0,0.0,0.0,0.0,0.0,0.0,0.0,0.0,0.0,0.0,0.0,0.0,0.0,0.0,0.0,0.0,0.0,0.0,0.0,0.0,0.0,0.0,0.0,0.0,0.0,0.0,0.0,0.0,0.0,0.0,0.0,0.0,0.0,0.0,0.0,0.0,0.0,0.0,0.0,0.0,0.0,0.0,0.0,0.0,0.0,0.0,0.0,0.0,0.0,0.0,0.0,0.0,0.0,0.0,0.0,0.0,0.0,0.0,0.0,0.0,0.0,0.0,0.0,0.0,0.0,0.0,0.0,0.0,0.0,0.0,0.0,0.0,0.0,0.0,0.0,0.0,0.0,0.0,0.0,0.0,0.0,0.0,0.0,0.0,0.0,0.0,0.0,0.0,0.0,0.0,0.0,0.0,0.0,0.0,0.0,0.0,0.0,0.0,0.0,0.0,0.0,0.0,0.0,0.0,0.0,0.0,0.0,0.0,0.0,0.0,0.0,0.0,0.0,0.0,0.0,0.0,0.0,0.0,0.0,0.0,0.0,0.0,0.0,0.0,0.0,0.0,0.0,0.0,0.0,0.0,0.0,0.0,0.0,0.0,0.0,0.0,0.0,0.0,0.0,0.0,0.0,0.0,0.0,0.0,0.0,0.0,0.0,0.0,0.0,0.0,0.0,0.0,0.0,0.0,0.0,0.0,0.0,0.0,0.0,0.0,0.0,0.0,0.0,0.0,0.0,0.0,0.0,0.0,0.0,0.0,0.0,0.0,0.0,0.0,0.0,0.0,0.0,0.0,0.0,0.0,0.0,0.0,0.0,0.0,0.0,0.0,0.0,0.0,0.0,0.0,0.0,0.0,0.0,0.0,0.0,0.0,0.0,0.0,0.0,0.0,0.0,0.0,0.0,0.0,0.0,0.0,0.0,0.0,0.0,0.0,0.0,0.0,0.0,0.0,0.0,0.0,0.0,0.0,0.0,0.0,0.0,0.0,0.0,0.0,0.0,0.0,0.0,0.0,0.0,0.0,0.0,0.0,0.0,0.0,0.0,0.0,0.0,0.0,0.0,0.0,0.0,0.0,0.0,0.0,0.0,0.0,0.0,0.0,0.0,0.0,0.0,0.0,0.0,0.0,0.0,0.0,0.0,0.0,0.0,0.0,0.0,0.0,0.0,0.0,0.0,0.0,0.0,0.0,0.0,0.0,0.0,0.0,0.0,0.0,0.0,0.0,0.0,0.0,0.0,0.0,0.0,0.0,0.0,0.0,0.0,0.0,0.0,0.0,0.0,0.0,0.0,0.0,0.0,0.0,0.0,0.0,0.0,0.0,0.0,0.0,0.0,0.0,0.0,0.0,0.0,0.0,0.0,0.0,0.0,0.0,0.0,0.0,0.0,0.0,0.0,0.0,0.0,0.0,0.0,0.0,0.0,0.0,0.0,0.0,0.0,0.0,0.0,0.0,0.0,0.0,0.0,0.0,0.0,0.0,0.0,0.0,0.0,0.0,0.0,0.0,0.0,0.0,0.0,0.0,0.0,0.0,0.0,0.0,0.0,0.0,0.0,0.0,0.0,0.0,0.0,0.0,0.0,0.0,0.0,0.0,0.0,0.0,0.0,0.0,0.0,0.0,0.0,0.0,0.0,0.0,0.0,0.0,0.0,0.0,0.0,0.0,0.0,0.0,0.0,0.0,0.0,0.0,0.0,0.0,0.0,0.0,0.0,0.0,0.0,0.0,0.0,0.0,0.0,0.0,0.0,0.0,0.0,0.0,0.0,0.0,0.0,0.0,0.0,0.0,0.0,0.0,0.0,0.0,0.0,0.0,0.0,0.0,0.0,0.0,0.0,0.0,0.0,0.0,0.0,0.0,0.0,0.0,0.0,0.0,0.0,0.0,0.0,0.0,0.0,0.0,0.0,0.0,0.0,0.0,0.0,0.0,0.0,0.0,0.0,0.0,0.0,0.0,0.0,0.0,0.0,0.0,0.0,0.0,0.0,0.0,0.0,0.0,0.0,0.0,0.0,0.0,0.0,0.0,0.0,0.0,0.0,0.0,0.0,0.0,-1.6906,0.0,0.0,0.0,0.0,0.0,0.0,0.0,0.0,0.0,0.0,0.0,0.0,0.0,0.0,0.0,0.0,0.0,0.0,0.0,0.0,0.0,0.0,0.0,0.0,0.0,0.0,0.0,0.0,0.0,0.0,0.0,0.0,0.0,0.0,0.0,0.0,0.0,0.0,0.0,0.0,0.0,0.0,0.0,0.0,0.0,0.0,0.0,0.0,0.0,0.0,0.0,0.0,0.0,0.0,0.0,0.0,0.0,0.0,0.0,0.0,0.0,0.0,0.0,0.0,0.0,0.0,0.0,0.0,0.0,0.0,0.0,0.0,0.0,0.0,0.0,0.0,0.0,0.0,0.0,0.0,0.0,0.0,0.0,0.0,0.0,0.0,0.0,0.0,0.0,0.0,0.0,0.0,0.0,0.0,0.0,0.0,0.0,0.0,0.0,0.0,0.0,0.0,0.0,0.0,0.0,0.0,0.0,0.0,0.0,0.0,0.0,0.0,0.0,0.0,0.0,0.0,-1.7171,0.0,0.0,0.0,0.0,0.0,0.0,0.0,0.0,0.0,0.0,0.0,0.0,0.0,0.0,0.0,0.0,0.0,0.0,0.0,0.0,0.0,0.0,0.0,0.0,0.0,0.0,0.0,0.0,0.0,0.0,0.0,0.0,0.0,0.0,0.0,0.0,0.0,0.0,0.0,0.0,0.0,0.0,0.0,0.0,0.0,0.0,0.0,0.0,0.0,0.0,0.0,0.0,0.0,0.0,0.0,0.0,0.0,0.0,0.0,0.0,0.0,0.0,0.0,0.0,0.0,0.0,0.0,0.0,0.0,0.0,0.0,0.0,0.0,0.0,0.0,0.0,0.0,0.0,0.0,0.0,0.0,0.0,0.0,0.0,0.0,0.0,0.0,0.0,0.0,0.0,0.0,0.0,0.0,0.0,0.0,0.0,0.0,0.0,0.0,0.0,0.0,0.0,0.0,0.0,0.0,0.0,0.0,0.0,-1.607,-1.6247,-1.6145,-1.6654,-1.7175,-1.7636,-1.725,-1.7312,-1.7687,-1.8247,0.0,0.0,0.0,0.0,0.0,0.0,0.0,0.0,0.0,0.0,0.0,0.0,0.0,0.0,0.0,0.0,0.0,0.0,0.0,0.0,0.0,0.0,0.0,0.0,0.0,0.0,0.0,0.0,0.0,0.0,0.0,0.0,0.0,0.0,0.0,0.0,0.0,0.0,1.2005,1.2012,1.1593,1.066,0.905,0.0,0.0,0.0,0.0,0.0,0.0,0.0,0.0,0.0,0.0,0.0,0.0,0.0,0.0,0.0,0.0,0.0,0.0,0.0,0.0,0.0,0.0,0.0,0.0,0.0,0.0,0.0,0.0,0.0,0.0,0.0,0.0,0.0,0.0,0.0,0.0,0.0,0.0,0.0,0.0,0.0,0.0,0.0,-1.0498,-1.0978,0.0,0.0,0.0,0.0,0.0,0.0,0.0,0.0,0.0,0.0,0.0,0.0,0.0,-1.5255,-1.5934,-1.5942,-1.6149,-1.6509,-1.6366,-1.6411,-1.66,-1.6455,-1.6756,-1.7466,-1.7803,0.0,-1.8236,-1.8547,0.0,0.0,0.0,0.0,0.0,0.0,0.0,0.0,0.0,0.0,0.0,0.0,0.0,0.0,0.0,0.0,0.0,0.0,0.0,0.0,0.0,0.0,0.0,0.0,0.0,0.0,0.0,0.0,0.0,0.0,0.0,0.0,0.0,0.0,0.0,0.0,1.2559,1.2969,1.2817,1.2929,1.2505,1.156,1.0146,0.8788,0.7508,0.6502,0.0,0.0,0.0,0.0,0.0,0.0,0.0,0.0,0.0,0.0,0.0,0.0,0.0,0.0,0.0,0.0,0.0,0.0,0.0,0.0,0.0,0.0,0.0,0.0,0.0,0.0,0.0,0.0,0.0,0.0,0.0,0.0,0.0,0.0,0.0,0.0,0.0,0.0,0.0,-0.9877,-1.0644,-1.0964,-1.1121,-1.1386,0.0,0.0,0.0,0.0,0.0,0.0,0.0,0.0,0.0,-1.4793,-1.4815,-1.5126,-1.5763,-1.577,-1.5872,-1.6057,-1.614,-1.6323,-1.657,-1.6653,-1.7098,-1.7817,-1.8116,-1.8562,-1.9083,-1.9164,-1.9254,-1.9402,0.0,0.0,0.0,0.0,-2.0242,-2.0527,0.0,0.0,0.0,0.0,0.0,0.0,0.0,0.0,0.0,0.0,0.0,0.0,0.0,0.0,0.0,0.8978,0.0,0.0,0.0,0.0,0.0,0.0,0.0,0.0,0.0,0.0,0.0,0.0,1.3353,1.369,1.3614,1.3642,1.3161,1.2232,1.111,0.9762,0.8161,0.694,0.5828,0.0,0.0,0.0,0.0,0.0,0.0,0.0,0.0,0.0,0.0,0.0,0.0,0.0,0.0,0.0,0.0,0.0,0.0,0.0,0.0,0.0,0.0,0.0,0.0,0.0,0.0,0.0,0.0,0.0,0.0,0.0,0.0,0.0,0.0,0.0,0.0,0.0,0.0,-1.0253,-1.0839,-1.1198,-1.1446,-1.1749,0.0,0.0,0.0,0.0,0.0,0.0,-1.3907,-1.3928,-1.4253,-1.4908,-1.4929,-1.5187,-1.5725,-1.5732,-1.5729,-1.576,-1.5996,-1.6246,-1.6444,-1.6732,-1.7301,-1.8025,-1.8322,-1.8979,-1.9821,-1.9687,-1.9888,-2.0226,-2.0226,-2.0234,-2.0272,-2.0364,-2.0653,-2.094,0.0,0.0,0.0,0.0,0.0,0.0,0.0,0.0,0.0,0.0,0.0,0.0,0.0,0.0,0.8193,0.9107,0.9195,0.934,0.0,0.0,0.0,0.0,0.0,0.0,0.0,0.0,0.0,1.3533,1.3901,1.409,1.418,1.4148,1.3658,1.2717,1.169,1.0281,0.8586,0.7239,0.6062,0.5035,0.0,0.0,0.0,0.0,0.0,0.0,0.0,0.0,0.0,0.0,0.0,0.0,0.0,0.0,0.0,0.0,0.0,0.0,0.0,0.0,0.0,0.0,0.0,0.0,0.0,0.0,0.0,0.0,0.0,0.0,0.0,0.0,0.0,0.0,0.0,0.0,0.0,0.0,0.0,-1.2063,-1.2525,0.0,0.0,0.0,0.0,-1.3186,-1.3186,-1.3554,-1.4323,-1.4392,-1.4709,-1.5543,-1.5564,-1.5725,-1.6092,-1.6053,-1.6114,-1.6177,-1.619,-1.6197,-1.6197,-1.6487,-1.7012,-1.7768,-1.8488,-1.9355,-2.0251,-1.993,-2.0307,-2.1116,-2.1129,-2.1542,-2.2076,-2.2076,-2.2188,-2.2433,0.0,0.0,0.0,0.0,0.0,0.0,0.0,0.0,0.0,0.0,0.0,0.0,0.0,0.8015,0.898,0.9827,1.0085,0.0,0.0,0.0,0.0,0.0,0.0,0.0,0.0,0.0,1.2948,1.3671,1.4186,1.4353,1.4176,1.4257,1.3826,1.2928,1.1822,1.0594,0.9313,0.7702,0.6451,0.5439,0.4336,0.3304,0.0,0.0,0.0,0.0,0.0,0.0,0.0,0.0,0.0,0.0,0.0,0.0,0.0,0.0,0.0,0.0,0.0,0.0,0.0,0.0,0.0,0.0,0.0,0.0,0.0,0.0,0.0,0.0,0.0,0.0,0.0,0.0,0.0,0.0,0.0,0.0,0.0,-1.213,-1.2508,0.0,-1.348,-1.3692,-1.3928,-1.4309,-1.4342,-1.4472,-1.4761,-1.4774,-1.5001,-1.5445,-1.5465,-1.5601,-1.5899,-1.5906,-1.5913,-1.5927,-1.5927,-1.6116,-1.6447,-1.6541,-1.7106,-1.7994,-1.855,-1.9371,-2.0311,-2.0482,-2.0971,-2.157,-2.1286,-2.1524,-2.2009,-2.2009,-2.2122,-2.2328,0.0,0.0,0.0,0.0,0.0,0.0,0.0,0.0,0.0,0.0,0.0,0.5434,0.6976,0.8146,0.9214,1.0118,1.0402,0.0,0.0,0.0,0.0,0.0,0.0,0.0,0.0,1.26,1.3249,1.3752,1.432,1.4471,1.4227,1.4261,1.3817,1.2948,1.1867,1.0841,0.9755,0.8119,0.6782,0.5695,0.4543,0.3469,0.2493,0.0,0.0,0.0,0.0,0.0,0.0,0.0,0.0,0.0,0.0,0.0,0.0,0.0,0.0,0.0,0.0,0.0,0.0,0.0,0.0,0.0,0.0,0.0,0.0,0.0,0.0,0.0,0.0,0.0,0.0,0.0,0.0,0.0,0.0,0.0,-1.1817,-1.2308,-1.2769,-1.3277,-1.3948,-1.416,-1.4455,-1.4981,-1.5008,-1.5055,-1.5149,-1.511,-1.5244,-1.5531,-1.5538,-1.5631,-1.5778,-1.5784,-1.5784,-1.5784,-1.5784,-1.6021,-1.6447,-1.6541,-1.7106,-1.7994,-1.855,-1.9371,-2.0337,-2.0817,-2.1389,-2.1962,-2.1712,-2.1872,-2.2305,-2.2305,-2.2389,-2.2515,0.0,0.0,0.0,0.0,0.0,0.0,0.0,0.0,0.0,0.0,0.0,0.5133,0.6624,0.7674,0.8754,0.9875,0.0,0.0,0.0,1.0147,0.0,0.0,0.0,0.0,1.1707,1.2791,1.3489,1.3774,1.4292,1.4468,1.425,1.425,1.3721,1.2716,1.1932,1.0949,0.9858,0.8466,0.7048,0.5694,0.4792,0.3666,0.2522,0.0,0.0,0.0,0.0,0.0,0.0,0.0,0.0,0.0,0.0,0.0,0.0,0.0,0.0,0.0,0.0,0.0,0.0,0.0,0.0,0.0,0.0,0.0,0.0,0.0,0.0,0.0,0.0,0.0,0.0,0.0,0.0,0.0,-1.0483,-1.122,-1.1946,-1.2637,-1.3421,-1.4069,-1.4559,-1.4604,-1.4701,-1.499,-1.5035,-1.5162,-1.5398,-1.5411,-1.5538,-1.5771,-1.5784,-1.5784,-1.5784,-1.5784,-1.5784,-1.5784,-1.5784,-1.5927,-1.6224,-1.6494,-1.7012,-1.7768,-1.8458,-1.9371,-2.0337,-2.0817,-2.1535,-2.2397,-2.2397,-2.2706,-2.3091,-2.3091,-2.3091,-2.3144,0.0,0.0,0.0,0.0,0.0,0.0,0.0,0.0,0.0,0.0,0.324,0.48,0.6277,0.7523,0.8639,0.9617,0.9966,0.0,0.0,0.0,0.0,0.0,0.0,0.0,1.1534,1.2388,1.2971,1.3303,1.3644,1.3661,1.3437,1.3292,1.2759,1.1883,1.1096,1.0113,0.9069,0.7888,0.6669,0.5516,0.474,0.38,0.2755,0.0,0.0,0.0,0.0,0.0,0.0,0.0,0.0,0.0,0.0,0.0,0.0,0.0,0.0,0.0,0.0,0.0,0.0,0.0,0.0,0.0,0.0,0.0,0.0,0.0,0.0,0.0,0.0,0.0,0.0,0.0,0.0,-0.9377,-1.0256,-1.1142,-1.1965,-1.2635,-1.3237,-1.382,-1.4339,-1.4674,-1.5028,-1.5338,-1.5498,-1.5625,-1.5705,-1.5712,-1.5698,-1.5778,-1.5784,-1.5784,-1.5784,-1.5784,-1.5784,-1.5784,-1.5784,-1.6015,-1.6494,-1.6588,-1.7099,-1.804,-1.855,-1.9371,-2.0337,-2.0817,-2.1535,-2.2397,-2.2397,-2.2706,-2.3091,-2.3091,-2.3091,-2.3144,0.0,0.0,0.0,0.0,0.0,0.0,0.0,0.0,0.0,0.0,0.2721,0.419,0.5699,0.6909,0.7997,0.9011,0.9443,0.9608,0.9543,0.0,0.0,0.0,0.0,1.0901,1.141,1.2046,1.2433,1.2651,1.2897,1.2859,1.2467,1.237,1.1878,1.1047,1.0355,0.9517,0.8577,0.7487,0.6446,0.5473,0.4545,0.3641,0.2711,0.1641,0.1013,0.0625,0.0161,0.0,0.0,0.0154,0.0,0.0,0.0,0.0,0.0,0.0,0.0,0.0,0.0,0.0,0.0,0.0,0.0,0.0,0.0,0.0,0.0,0.0,0.0,0.0,0.0,0.0,0.0,0.0,-0.8483,-0.9165,-0.9994,-1.0899,-1.1808,-1.2507,-1.313,-1.3719,-1.4251,-1.4735,-1.5175,-1.548,-1.5689,-1.5784,-1.5784,-1.5784,-1.5784,-1.5784,-1.5784,-1.5784,-1.5784,-1.5784,-1.5784,-1.5784,-1.5784,-1.6021,-1.6447,-1.6541,-1.7106,0.0,-1.8458,-1.9234,-2.0155,-2.069,-2.1365,0.0,0.0,0.0,0.0,0.0,-2.3091,-2.3135,0.0,0.0,0.0,0.0,0.0,0.0,0.0,0.0,0.0,0.0,0.0,0.3355,0.4925,0.6,0.7049,0.811,0.8537,0.8784,0.0,0.0,0.0,0.9583,0.9888,1.0333,1.0994,1.1515,1.177,1.1733,1.2047,1.1932,1.1443,1.1389,1.0949,1.0212,0.9612,0.897,0.8134,0.7092,0.6139,0.5327,0.4204,0.3271,0.246,0.1456,0.0938,0.0614,0.0171,0.0,0.0,0.0,0.0,0.0,0.0,0.0,0.0,0.0,0.0,0.0,0.0,0.0,0.0,0.0,0.0,0.0,0.0,0.0,0.0,0.0,0.0,0.0,0.0,0.0,0.0,0.0,-0.838,-0.9037,-0.9689,-1.061,-1.1487,-1.2263,-1.2971,-1.363,-1.4202,-1.4742,-1.5172,-1.5445,-1.5689,-1.5784,-1.5784,0.0,0.0,0.0,0.0,-1.5784,-1.5784,-1.5784,-1.5784,-1.5784,-1.5784,-1.5927,-1.6224,-1.6494,-1.7012,-1.7675,-1.8265,-1.9004,-1.9928,-2.0428,-2.1105,-2.1776,-2.2264,-2.2696,-2.3091,-2.3091,-2.3091,-2.3091,0.0,0.0,0.0,0.0,0.0,0.0,0.0,0.0,0.0,0.0183,0.1248,0.2426,0.3716,0.4806,0.5828,0.6765,0.7225,0.7544,0.0,0.0,0.8029,0.8351,0.878,0.9101,0.9347,0.9944,1.025,1.0241,1.0619,1.0605,1.0314,1.0105,0.9661,0.9072,0.8326,0.768,0.7042,0.5942,0.5037,0.4232,0.3114,0.2573,0.2322,0.1424,0.0846,0.042,0.009,0.0,0.0,0.0,0.0042,0.0041,0.0039,0.0,0.0,0.0,0.0,0.0,0.0,0.0,0.0,0.0,0.0,0.0,0.0,0.0,0.0,0.0,0.0,0.0,0.0,0.0,0.0,-0.754,-0.8352,-0.9088,-0.944,-1.0109,-1.0937,-1.1963,-1.2587,-1.3201,-1.3925,-1.4454,-1.4885,-1.5178,-1.5547,-1.5784,-1.5784,-1.5784,-1.5784,-1.5784,-1.5784,-1.5784,-1.5784,-1.5784,-1.5784,-1.5784,0.0,0.0,-1.6224,-1.6494,-1.6864,-1.7426,-1.8164,-1.895,-1.9691,-2.0201,-2.1015,-2.2052,-2.253,-2.2882,-2.3091,-2.3091,-2.3091,-2.3091,0.0,0.0,0.0,0.0,0.0,0.0,0.0,0.0,0.0,0.0,0.0404,0.144,0.2589,0.3524,0.449,0.5415,0.5962,0.0,0.0,0.6737,0.6984,0.7331,0.7626,0.7882,0.8137,0.8524,0.8691,0.8634,0.8893,0.8871,0.8577,0.8474,0.8173,0.7776,0.708,0.6481,0.5937,0.4987,0.4133,0.3328,0.2521,0.1856,0.1341,0.0926,0.0581,0.0385,0.0093,0.0,0.0,-0.0176,-0.0216,-0.0213,-0.0329,-0.036,-0.0349,0.0,0.0,0.0,0.0,0.0,0.0,0.0,0.0,0.0,0.0,0.0,0.0,0.0,0.0,-0.6,-0.6525,0.0,-0.7399,-0.7774,-0.8292,-0.8765,-0.9234,-0.9714,-1.0413,-1.1487,-1.2175,-1.2856,-1.3443,-1.4112,-1.4688,-1.5083,-1.5452,-1.5689,-1.5778,-1.5784,-1.5784,-1.5784,-1.5784,-1.5784,-1.5784,-1.5784,-1.5784,-1.5784,-1.5784,-1.5879,-1.6028,-1.6265,-1.6683,-1.72,-1.766,-1.8396,-1.9279,-2.0155,-2.106,-2.1963,-2.2397,-2.2794,-2.3091,-2.3091,-2.3091,-2.3091,0.0,0.0,0.0,0.0,0.0,0.0,0.0,0.0,0.0,0.0,0.0,0.0446,0.1416,0.2258,0.3133,0.0,0.0,0.0,0.0,0.5414,0.5671,0.6166,0.6207,0.644,0.6805,0.695,0.6995,0.6939,0.7024,0.6956,0.6734,0.6684,0.6534,0.6329,0.5779,0.5279,0.4778,0.4031,0.3228,0.2422,0.1917,0.106,0.0151,0.0099,0.0147,0.0147,-0.0094,-0.0139,-0.0184,-0.0406,-0.0444,-0.0479,-0.0637,-0.0698,-0.067,-0.0631,-0.061,0.0,0.0,0.0,0.0,0.0,0.0,0.0,0.0,-0.3845,-0.4566,-0.5306,-0.5829,-0.6324,-0.6869,-0.712,-0.7436,-0.8048,-0.8184,-0.8443,-0.9015,-0.9381,-0.9969,-1.0949,-1.1731,-1.2467,-1.305,-1.3769,-1.4496,-1.5083,-1.5356,-1.5588,-1.5778,-1.5784,-1.5784,-1.5784,-1.5784,-1.5784,-1.5784,-1.5784,-1.5784,-1.5784,-1.5784,-1.5784,-1.5832,-1.6076,-1.6461,-1.6838,-1.7239,-1.7939,-1.8874,-2.0065,-2.097,-2.1597,-2.2087,-2.2574,-2.3057,-2.3101,-2.3091,-2.3091,0.0,0.0,0.0,0.0,0.0,0.0,0.0,0.0,0.0,0.0,0.0,0.0,0.0,0.0,0.0,0.0,0.0,0.0,0.3729,0.3865,0.4048,0.4303,0.4327,0.4421,0.4654,0.4758,0.4858,0.4907,0.5048,0.5089,0.5074,0.4828,0.468,0.463,0.413,0.3726,0.3374,0.2823,0.2117,0.1311,0.0808,0.0101,-0.0706,-0.0841,-0.0834,-0.0685,-0.0718,-0.0658,-0.0645,-0.0677,-0.0672,-0.0666,-0.0682,-0.0713,-0.0699,-0.0637,-0.0618,-0.0649,-0.0808,-0.1101,-0.1572,-0.2261,-0.268,-0.3112,0.0,-0.4534,-0.5223,-0.5927,-0.6427,-0.6879,-0.7399,-0.7604,-0.7753,-0.7852,-0.8168,-0.851,-0.8825,-0.9278,-0.9821,-1.0413,-1.1194,-1.2073,-1.3001,-1.3619,-1.425,-1.5035,-1.5356,-1.5588,-1.5778,-1.5784,-1.5784,-1.5784,-1.5784,-1.5784,-1.5784,-1.5784,-1.5784,-1.5784,-1.5784,-1.5784,-1.5832,-1.6076,-1.6224,-1.6359,-1.7279,-1.8071,-1.8874,-1.9654,-2.0419,-2.1132,-2.1597,-2.222,-2.2838,-2.3047,-2.3091,-2.3091,0.0,0.0,0.0,0.0,0.0,0.0,0.0,0.0,0.0,0.0,0.0,0.0,0.0,0.0,0.0,0.0,0.0,0.0,0.2162,0.2252,0.2364,0.2463,0.2529,0.2585,0.2675,0.2766,0.2825,0.2849,0.3097,0.3206,0.3218,0.3221,0.3141,0.2972,0.2621,0.2217,0.1763,0.121,0.0605,0.0,-0.0349,-0.0944,-0.1685,-0.17,-0.1854,-0.1908,-0.1293,-0.1053,0.0,0.0,-0.121,-0.1246,-0.1375,-0.1402,-0.138,-0.1271,-0.1239,-0.1269,-0.1483,-0.1935,-0.241,-0.2887,-0.3323,-0.3845,-0.471,-0.5229,-0.5728,-0.6615,-0.6899,-0.7191,-0.7634,-0.777,-0.7841,0.0,-0.8047,-0.8283,-0.8531,-0.8878,-0.9324,-0.9871,-1.0659,-1.1536,-1.2613,-1.3141,-1.3769,-1.4592,-1.5022,-1.5428,-1.5831,-1.5989,-1.6166,-1.6333,-1.6339,-1.6339,-1.6339,-1.6339,-1.6339,-1.6339,-1.6339,-1.6339,-1.6339,-1.6444,-1.6503,-1.6526,-1.7178,-1.7846,-1.8458,-1.9188,-1.992,-2.0645,-2.1275,-2.1776,-2.222,-2.275,-2.3013,-2.3091,0.0,0.0,0.0,0.0,0.0,0.0,0.0,0.0,0.0,0.0,0.0,0.0,0.0,0.0,0.0,0.0,0.0,0.0,0.0,0.065,0.0683,0.0722,0.0751,0.0768,0.0773,0.0798,0.086,0.0916,0.1162,0.1281,0.1362,0.1508,0.147,0.1292,0.1048,0.065,0.015,-0.025,-0.0751,-0.135,-0.1472,-0.1994,-0.2667,-0.2554,-0.2805,-0.3045,-0.2061,-0.1692,0.0,0.0,-0.1832,-0.1864,-0.197,-0.1992,-0.2007,-0.1878,-0.1886,-0.2003,-0.2283,-0.2726,-0.3183,-0.3607,-0.4093,-0.4674,-0.5505,-0.5913,-0.6369,-0.7076,-0.7261,-0.7388,-0.7685,-0.7753,-0.7801,-0.7901,-0.7928,-0.804,-0.8379,-0.8627,-0.8977,-0.9529,-1.0216,-1.1096,-1.2078,-1.2759,-1.346,-1.4346,-1.4902,-1.5457,-1.598,-1.6245,-1.6486,-1.67,-1.6707,-1.6707,-1.6707,-1.6707,-1.6707,-1.6707,-1.6707,-1.6707,-1.6707,-1.6707,-1.6749,-1.6834,-1.7179,-1.7592,-1.8083,-1.8823,-1.9507,-2.0192,-2.0916,-2.141,-2.1785,-2.2441,-2.2838,-2.3013,0.0,0.0,0.0,0.0,0.0,0.0,0.0,0.0,0.0,0.0,0.0,0.0,0.0,0.0,0.0,0.0,0.0,0.0,0.0,-0.0899,-0.0945,-0.1016,-0.1084,-0.111,-0.1135,-0.1137,-0.1033,-0.0808,-0.0808,-0.0688,-0.0525,-0.0525,-0.0525,-0.0526,-0.0584,-0.0931,-0.1422,-0.1471,-0.1913,-0.2646,-0.2594,-0.3002,-0.3651,-0.342,-0.3678,-0.403,-0.309,0.0,0.0,0.0,-0.2482,-0.2461,-0.2308,-0.2272,-0.2288,-0.2211,-0.2357,-0.2685,-0.3123,-0.3421,-0.3751,-0.4483,-0.5048,-0.5557,-0.5974,-0.6638,-0.7155,-0.7211,-0.7406,-0.76,-0.7604,-0.7607,-0.7651,-0.7794,-0.7818,-0.7966,-0.8361,-0.8627,-0.8977,-0.9529,-1.0068,-1.0708,0.0,-1.2516,-1.3533,-1.4611,-1.5183,-1.5703,-1.6242,-1.655,-1.6693,-1.6707,-1.6707,-1.6707,-1.6707,-1.6707,-1.6707,-1.6707,-1.6707,-1.6707,-1.6707,-1.6707,-1.6857,-1.7107,-1.7385,-1.7597,-1.7849,-1.86,-1.9207,-1.9683,-2.0419,-2.1105,-2.1785,-2.2264,-2.2574,-2.2847,0.0,0.0,0.0,0.0,0.0,0.0,0.0,0.0,0.0,0.0,0.0,0.0,0.0,0.0,0.0,0.0,0.0,0.0,0.0,-0.2254,-0.2359,-0.2429,-0.2574,-0.2642,-0.2663,-0.2626,-0.2565,-0.2478,-0.2302,-0.2178,-0.2107,-0.2046,-0.2073,-0.2286,-0.238,-0.2641,-0.2978,-0.3171,-0.3364,-0.3642,-0.3661,-0.3934,-0.428,-0.4057,-0.4172,-0.4433,0.0,0.0,0.0,0.0,0.0,0.0,-0.3038,-0.302,-0.3046,-0.3069,-0.3333,-0.3687,-0.3865,-0.4281,-0.4791,-0.532,-0.5742,-0.6187,-0.6867,-0.714,-0.7287,-0.7525,-0.7614,-0.76,-0.76,-0.76,-0.7614,-0.7662,-0.775,-0.7828,-0.7976,-0.8315,-0.8676,-0.9023,-0.9525,0.0,0.0,0.0,0.0,-1.4097,-1.5009,-1.5733,-1.6273,-1.6746,-1.7088,-1.7281,-1.7288,-1.7288,-1.7288,-1.7288,-1.7288,-1.7288,-1.7288,-1.7288,-1.7281,-1.7088,-1.7103,-1.7147,-1.7203,-1.7456,-1.79,-1.8333,-1.8856,-1.945,-2.0002,-2.0543,-2.1105,-2.1731,-2.2176,-2.2574,0.0,0.0,0.0,0.0,0.0,0.0,0.0,0.0,0.0,0.0,0.0,0.0,0.0,0.0,0.0,0.0,0.0,0.0,0.0,0.0,-0.3486,-0.3556,-0.3783,-0.3891,-0.3891,-0.3937,-0.3919,-0.3874,-0.3612,-0.3492,-0.3514,-0.3351,-0.3413,-0.3662,-0.3739,-0.3957,-0.4191,-0.4376,-0.4468,-0.4549,-0.457,-0.4704,-0.487,-0.4692,-0.4718,0.0,0.0,0.0,0.0,0.0,0.0,0.0,-0.3797,-0.3822,-0.3903,-0.4047,-0.428,-0.457,-0.4768,-0.5194,-0.5648,-0.6037,-0.6452,-0.6879,-0.734,-0.7452,-0.7462,-0.7537,-0.7499,-0.7404,-0.7299,-0.7322,-0.7377,-0.7428,-0.756,-0.7692,-0.7797,-0.8091,-0.847,-0.8768,-0.9274,-0.9991,0.0,0.0,0.0,-1.3971,-1.5035,-1.5856,-1.6398,-1.7042,-1.744,-1.7575,-1.7582,-1.7582,-1.7582,-1.7582,-1.7582,-1.7582,-1.7582,-1.7582,-1.7575,-1.744,-1.7353,-1.7347,-1.7422,-1.7634,-1.7981,-1.8324,-1.8826,-1.9431,-1.9857,-2.0323,-2.08,-2.1473,-2.1954,-2.2353,0.0,0.0,0.0,0.0,0.0,0.0,0.0,0.0,0.0,0.0,0.0,0.0,0.0,0.0,0.0,0.0,0.0,0.0,0.0,0.0,0.0,-0.4457,-0.4709,-0.488,-0.488,-0.505,-0.5074,-0.4933,-0.476,-0.465,-0.4661,-0.4471,-0.4491,-0.468,-0.4737,-0.4913,-0.513,-0.5087,-0.5175,-0.5382,-0.5346,-0.5355,-0.5399,-0.5224,0.0,0.0,0.0,0.0,0.0,0.0,-0.4429,-0.4434,-0.4512,-0.4637,-0.4789,-0.5054,-0.5135,-0.5269,-0.5797,-0.6084,-0.6334,-0.6736,-0.7181,-0.7469,-0.7427,-0.7601,-0.7655,-0.7183,-0.7085,-0.6991,-0.6753,-0.6817,-0.6963,-0.7105,-0.7303,-0.7508,-0.7804,-0.8056,-0.8362,-0.8757,-0.9286,-1.0004,-1.0988,-1.1811,0.0,-1.4198,0.0,-1.6131,-1.6664,-1.7265,-1.7582,-1.7582,-1.7582,-1.7582,-1.7582,-1.7582,-1.7582,-1.7582,-1.7582,-1.7582,-1.7582,-1.7582,-1.7582,-1.7635,-1.7852,-1.8008,-1.8046,-1.8498,-1.9015,-1.947,-1.9853,-2.0312,-2.0814,-2.1455,-2.1848,-2.2141,0.0,0.0,0.0,0.0,0.0,0.0,0.0,0.0,0.0,0.0,0.0,0.0,0.0,0.0,0.0,0.0,0.0,0.0,0.0,0.0,0.0,0.0,0.0,0.0,0.0,0.0,0.0,0.0,0.0,-0.5411,-0.5555,-0.5475,-0.556,-0.5774,-0.5762,-0.5701,-0.5621,-0.5621,-0.5545,-0.5459,0.0,-0.5372,-0.5357,0.0,0.0,0.0,0.0,0.0,0.0,-0.4876,-0.4807,-0.4937,-0.5074,-0.5267,-0.5472,-0.5538,-0.5767,-0.6042,-0.6284,-0.6573,-0.6887,-0.7213,-0.747,-0.7587,-0.7691,-0.746,-0.7233,-0.7119,-0.6923,-0.6828,-0.6916,-0.6933,-0.7094,-0.7422,-0.7585,-0.7802,-0.8121,-0.8369,-0.8653,-0.9065,-0.9341,-0.9943,-1.0948,-1.1765,0.0,0.0,-1.5252,-1.6131,-1.6677,-1.7265,-1.7582,-1.7582,-1.7582,-1.7582,-1.7582,-1.7582,-1.7582,-1.7582,-1.7582,-1.7582,-1.7582,-1.7582,-1.7582,-1.7582,-1.7687,-1.7811,-1.8005,-1.8362,-1.8635,-1.8994,-1.9651,-2.0031,-2.0309,-2.107,-2.1545,-2.1874,0.0,0.0,0.0,0.0,0.0,0.0,0.0,0.0,0.0,0.0,0.0,0.0,0.0,0.0,0.0,0.0,0.0,0.0,0.0,0.0,0.0,0.0,0.0,0.0,0.0,0.0,0.0,0.0,0.0,0.0,0.0,-0.6075,-0.6103,-0.6337,-0.6147,-0.6006,-0.5893,-0.5821,0.0,0.0,0.0,0.0,0.0,0.0,0.0,0.0,0.0,0.0,-0.5719,-0.562,-0.5615,-0.5656,-0.5805,-0.5979,-0.6147,-0.6209,-0.6441,-0.6702,-0.6844,-0.7126,-0.7402,-0.7505,-0.7614,-0.7662,-0.7543,-0.7277,-0.7021,-0.6807,-0.6661,-0.6621,-0.6603,-0.677,-0.6998,-0.7319,-0.7588,-0.7838,-0.8234,-0.8419,-0.8664,-0.9156,-0.938,-0.9906,-1.0919,-1.1739,-1.2743,0.0,-1.5244,-1.6152,-1.6677,-1.7265,-1.7582,-1.7582,-1.7582,-1.7582,-1.7582,-1.7582,-1.7582,-1.7582,-1.7582,-1.7582,-1.7582,-1.7582,-1.7582,-1.7582,0.0,-1.7747,-1.8016,-1.8167,-1.8532,-1.8979,-1.9391,-1.9706,-1.998,-2.0636,-2.1077,-2.1454,0.0,0.0,0.0,0.0,0.0,0.0,0.0,0.0,0.0,0.0,0.0,0.0,0.0,0.0,0.0,0.0,0.0,0.0,0.0,0.0,0.0,0.0,0.0,0.0,0.0,0.0,0.0,0.0,0.0,0.0,0.0,0.0,0.0,0.0,0.0,0.0,0.0,0.0,0.0,0.0,0.0,0.0,0.0,0.0,0.0,0.0,0.0,-0.5755,-0.6076,-0.6581,-0.6576,-0.6416,-0.6619,-0.6729,-0.6843,-0.6997,-0.7145,-0.7296,-0.752,-0.7712,-0.788,-0.7753,-0.7801,-0.7763,-0.7282,-0.7139,-0.6945,-0.6448,-0.6416,-0.6414,-0.6219,-0.6526,-0.6894,-0.7134,-0.7435,-0.782,-0.8252,-0.8357,-0.8598,-0.9162,-0.9419,-0.9957,-1.0919,-1.1686,-1.269,-1.4046,-1.5137,-1.6045,-1.6677,-1.7265,-1.7582,-1.7582,-1.7582,-1.7582,-1.7582,-1.7582,-1.7582,-1.7582,-1.7582,-1.7582,-1.7582,-1.7582,-1.7582,-1.7582,-1.7582,0.0,-1.7964,-1.7964,-1.8436,-1.9138,-1.9154,-1.9395,-1.981,-2.0227,-2.0639,-2.1023,0.0,0.0,0.0,0.0,0.0,0.0,0.0,0.0,0.0,0.0,-0.6558,-0.6346,0.0,0.0,0.0,0.0,0.0,0.0,0.0,0.0,0.0,0.0,0.0,0.0,0.0,0.0,0.0,0.0,0.0,0.0,0.0,0.0,0.0,0.0,0.0,0.0,0.0,0.0,0.0,0.0,0.0,0.0,0.0,0.0,0.0,0.0,0.0,-0.6415,-0.6591,-0.7333,-0.7237,-0.6811,-0.6978,-0.7215,-0.7464,-0.7676,-0.7841,-0.7987,-0.8284,-0.8405,-0.8438,-0.8412,-0.8321,-0.8098,-0.7752,-0.7366,-0.7009,-0.6772,-0.6506,-0.6371,-0.6499,-0.672,-0.7021,-0.7385,-0.7709,-0.8072,-0.8468,-0.8772,-0.9075,-0.9328,-0.9639,-1.0161,-1.0919,-1.1476,0.0,0.0,-1.4665,-1.5624,-1.6624,-1.706,-1.7378,-1.7582,-1.7582,-1.7582,-1.7582,-1.7582,-1.7582,-1.7582,-1.7582,-1.7582,-1.7582,-1.7582,-1.7582,-1.7582,-1.7582,0.0,-1.7694,-1.7911,-1.8069,-1.8272,-1.8998,-1.9396,-1.9618,-2.0062,-2.0464,-2.0896,0.0,0.0,0.0,0.0,0.0,0.0,0.0,-0.7268,-0.7182,-0.7196,-0.6893,-0.6623,-0.656,-0.6432,0.0,0.0,0.0,0.0,0.0,0.0,0.0,0.0,0.0,0.0,0.0,0.0,-0.6711,-0.6702,0.0,0.0,0.0,-0.6566,-0.6475,0.0,0.0,0.0,0.0,0.0,0.0,0.0,0.0,0.0,0.0,0.0,0.0,0.0,0.0,-0.6852,-0.6976,-0.7681,-0.7866,-0.7795,-0.7725,-0.7824,-0.7975,-0.8194,-0.8432,-0.8675,-0.8836,-0.8901,-0.8948,-0.8859,-0.8637,-0.8308,-0.7967,-0.756,-0.7184,-0.6891,-0.6635,-0.6493,-0.6638,-0.6775,-0.7026,-0.7434,-0.7686,-0.8016,-0.8535,-0.8759,-0.9,-0.9359,-0.9587,-1.0007,-1.0703,-1.1318,-1.2205,-1.3408,-1.4283,-1.5303,-1.6418,-1.706,-1.7483,-1.7582,-1.7582,-1.7582,-1.7582,-1.7582,-1.7582,-1.7582,-1.7582,-1.7582,-1.7582,-1.7582,-1.7582,-1.7582,-1.7582,0.0,-1.7635,-1.7747,-1.7852,-1.8069,-1.8586,-1.8912,-1.9142,-1.9603,-1.9982,-2.0284,0.0,0.0,0.0,0.0,0.0,0.0,0.0,-0.7489,-0.7398,-0.7356,-0.7097,-0.6872,-0.6772,-0.673,-0.6694,0.0,0.0,0.0,0.0,0.0,0.0,0.0,0.0,0.0,0.0,0.0,0.0,-0.6864,-0.6864,0.0,0.0,0.0,0.0,0.0,-0.6139,-0.5968,0.0,0.0,0.0,0.0,0.0,0.0,0.0,0.0,0.0,0.0,0.0,-0.7215,-0.7273,-0.7913,-0.8344,-0.8552,-0.8554,-0.8472,-0.848,-0.8787,-0.9057,-0.9301,-0.9381,-0.9464,-0.9531,-0.9393,-0.905,-0.8698,-0.8296,-0.7915,-0.7497,-0.7093,-0.6815,-0.6664,-0.6658,-0.6787,-0.6995,-0.7263,-0.7522,-0.7861,-0.8351,-0.8491,-0.8702,-0.9191,-0.936,-0.9709,-1.0376,-1.1098,0.0,-1.3062,-1.4196,-1.525,-1.6318,-1.7113,-1.7529,-1.7582,-1.7582,-1.7582,-1.7582,-1.7582,-1.7582,-1.7582,-1.7582,-1.7582,-1.7582,-1.7582,-1.7582,-1.7582,-1.7582,0.0,0.0,-1.7582,-1.7747,-1.7964,-1.822,-1.8447,-1.8687,-1.9053,-1.9349,-1.9674,0.0,0.0,0.0,0.0,0.0,0.0,0.0,-0.7607,-0.7356,-0.723,-0.7097,-0.6979,-0.6985,-0.6808,-0.6694,0.0,0.0,0.0,0.0,0.0,0.0,0.0,0.0,0.0,0.0,0.0,0.0,-0.6725,-0.6725,0.0,0.0,0.0,0.0,0.0,0.0,-0.6166,-0.5975,0.0,0.0,0.0,0.0,0.0,0.0,0.0,0.0,0.0,0.0,-0.7522,-0.7507,-0.8338,-0.8549,-0.852,-0.9119,-0.9227,-0.9179,-0.9656,-0.98,-0.9907,-1.0278,-1.0394,-1.0362,-1.0162,-0.9944,-0.9619,-0.9029,-0.8613,-0.8115,-0.7487,-0.709,-0.6786,-0.6563,-0.6736,-0.6865,-0.6705,-0.7266,-0.7729,-0.7841,-0.8078,-0.8378,-0.8734,-0.8937,-0.9278,-0.9926,-1.0643,-1.1513,-1.2558,-1.436,-1.5773,-1.6624,-1.7008,-1.7331,-1.7582,-1.7582,-1.7582,-1.7582,-1.7582,-1.7582,-1.7582,-1.7582,-1.7582,-1.7582,-1.7582,-1.7582,-1.7582,-1.7582,0.0,0.0,-1.7582,-1.7635,-1.7635,-1.7911,-1.8202,-1.8404,-1.8423,-1.8776,-1.9351,0.0,0.0,0.0,0.0,0.0,0.0,-0.7961,-0.7621,-0.7356,-0.7216,-0.7076,-0.7,-0.7,-0.6922,-0.6886,0.0,0.0,0.0,0.0,0.0,0.0,0.0,0.0,0.0,0.0,0.0,-0.6922,-0.6886,-0.6886,0.0,0.0,0.0,0.0,0.0,0.0,-0.6321,-0.6217,0.0,0.0,0.0,0.0,0.0,0.0,0.0,0.0,0.0,0.0,0.0,-0.8023,-0.8537,-0.8771,-0.8917,-0.9181,-0.939,-0.9556,-0.9913,-1.0375,-1.0778,-1.0952,-1.1055,-1.11,-1.0755,-1.0391,-0.9982,-0.9413,-0.8783,-0.827,-0.7936,-0.7381,-0.6978,-0.6977,-0.7009,-0.6984,-0.693,-0.729,-0.753,-0.7441,-0.7718,-0.7978,-0.8185,-0.8416,-0.8808,-0.9502,0.0,-1.1488,-1.3153,-1.433,-1.5405,-1.6424,-1.6908,-1.7331,-1.7582,-1.7582,-1.7582,-1.7582,-1.7582,-1.7582,-1.7582,-1.7582,-1.7582,-1.7582,-1.7582,-1.7582,-1.7582,-1.7582,0.0,0.0,-1.7582,-1.7582,-1.7635,-1.7911,-1.7995,-1.7946,-1.8224,-1.8443,-1.8687,0.0,0.0,0.0,0.0,0.0,-0.827,-0.7899,-0.7587,-0.7328,-0.7167,-0.7048,-0.7,-0.7,-0.7,-0.7,-0.7,0.0,0.0,0.0,0.0,0.0,0.0,0.0,0.0,0.0,0.0,0.0,-0.7,-0.7,-0.6985,0.0,0.0,-0.6872,-0.6751,0.0,0.0,0.0,0.0,0.0,0.0,0.0,0.0,0.0,0.0,0.0,0.0,0.0,0.0,0.0,0.0,0.0,-0.9111,-0.9164,-0.948,-0.984,-1.0045,-1.0556,-1.107,-1.114,-1.1331,-1.1424,-1.1139,-1.0696,-1.0236,-0.9793,-0.9053,-0.8442,-0.826,-0.7694,-0.7216,-0.7247,-0.7149,-0.705,-0.6935,-0.7163,-0.726,-0.7124,-0.7319,-0.7552,-0.7767,-0.8051,-0.8452,-0.9033,-1.0175,-1.1602,-1.3345,-1.4191,-1.5089,-1.6217,-1.6802,-1.7219,-1.7582,-1.7582,-1.7582,-1.7582,-1.7582,-1.7582,-1.7582,-1.7582,-1.7582,-1.7582,-1.7582,-1.7582,-1.7582,-1.7582,0.0,0.0,-1.7582,-1.7582,-1.7628,-1.7705,-1.765,-1.7502,-1.7782,-1.7955,-1.8138,0.0,0.0,0.0,0.0,0.0,0.0,-0.7774,-0.7524,-0.7307,-0.7042,-0.7,-0.7,-0.7,-0.7,-0.7,-0.7,0.0,0.0,0.0,0.0,0.0,0.0,0.0,0.0,0.0,0.0,0.0,-0.7,-0.7,-0.7,-0.7,-0.7,-0.6964,-0.6893,0.0,0.0,0.0,0.0,0.0,0.0,0.0,0.0,0.0,0.0,0.0,0.0,0.0,0.0,0.0,0.0,0.0,0.0,0.0,-0.9584,-0.9998,-1.0072,-1.0293,-1.0549,-1.0734,-1.1016,-1.1203,-1.1203,-1.0862,-1.0424,-1.0168,-0.9531,-0.8854,-0.8394,-0.7965,-0.7572,-0.716,-0.7039,-0.6894,-0.657,-0.6727,-0.6916,-0.6886,-0.6983,-0.7133,-0.745,-0.7781,-0.8175,-0.8579,-1.0352,-1.1907,-1.2908,-1.3981,0.0,-1.6217,-1.6577,-1.6995,-1.7582,-1.7582,-1.7582,-1.7582,-1.7582,-1.7582,-1.7582,-1.7582,-1.7582,-1.7582,-1.7582,-1.7582,0.0,0.0,0.0,0.0,-1.7582,-1.7582,-1.7555,-1.732,-1.7184,-1.7086,-1.7016,-1.7332,-1.7776,0.0,0.0,0.0,0.0,0.0,0.0,0.0,-0.7475,-0.7307,-0.7042,-0.7,-0.7,-0.7,-0.7,-0.7,-0.7,0.0,0.0,0.0,0.0,0.0,0.0,0.0,0.0,0.0,0.0,0.0,0.0,0.0,-0.7,-0.7,-0.7,-0.6979,-0.6964,-0.6914,-0.6851,0.0,0.0,0.0,0.0,0.0,0.0,0.0,0.0,0.0,0.0,0.0,0.0,0.0,0.0,0.0,0.0,0.0,0.0,0.0,-0.9494,-1.0202,-1.1004,-1.1071,-1.1253,-1.1405,-1.1067,-1.0893,-1.0605,-0.9988,-0.9444,-0.8924,-0.8409,-0.7979,-0.7612,-0.7295,-0.7173,-0.7028,-0.6754,-0.6818,-0.6798,-0.6542,-0.6793,-0.6968,-0.694,-0.7735,-0.8545,0.0,0.0,-1.159,-1.2634,-1.3714,0.0,-1.5725,-1.6358,-1.6995,-1.7582,-1.7582,-1.7582,-1.7582,-1.7582,-1.7582,-1.7582,-1.7582,-1.7582,-1.7582,-1.7582,-1.7582,0.0,0.0,0.0,0.0,-1.7582,-1.7468,-1.7326,-1.7239,-1.6948,-1.6603,-1.6884,-1.7182,-1.752,0.0,0.0,0.0,0.0,0.0,0.0,0.0,-0.7447,-0.7307,-0.7042,-0.7,-0.7,-0.7,-0.7,-0.7,-0.7,0.0,0.0,0.0,0.0,0.0,0.0,0.0,0.0,0.0,0.0,0.0,0.0,0.0,0.0,0.0,0.0,-0.7,-0.7,-0.6964,0.0,0.0,0.0,0.0,0.0,0.0,0.0,-0.8195,0.0,0.0,0.0,0.0,0.0,0.0,0.0,0.0,0.0,0.0,0.0,0.0,0.0,-0.9871,-1.0649,-1.0744,-1.1009,-1.1219,-1.0924,-1.0725,-1.0445,-0.9936,-0.9383,-0.888,-0.8548,-0.8184,-0.7809,-0.7494,-0.7367,-0.7177,-0.6933,-0.6885,-0.6777,-0.6474,-0.6763,-0.7022,-0.7037,-0.7776,0.0,0.0,-1.0149,-1.1165,-1.2097,-1.3265,0.0,-1.5238,-1.6099,-1.6842,-1.743,-1.7536,-1.7582,-1.7582,-1.7582,-1.7582,-1.7582,-1.7582,-1.7582,-1.7582,-1.7582,-1.7582,0.0,0.0,0.0,0.0,-1.7514,-1.7367,-1.7179,-1.6958,-1.6699,-1.6454,-1.6766,-1.7082,-1.7567,0.0,0.0,0.0,0.0,0.0,0.0,0.0,0.0,-0.7286,-0.7042,-0.7,-0.7006,-0.7,-0.7,-0.7006,-0.7,0.0,0.0,0.0,0.0,0.0,0.0,0.0,0.0,0.0,0.0,0.0,-0.7,-0.7,-0.7,-0.7,0.0,0.0,-0.7,-0.7,0.0,0.0,0.0,0.0,0.0,0.0,0.0,0.0,0.0,0.0,0.0,0.0,0.0,0.0,0.0,0.0,0.0,0.0,0.0,0.0,0.0,0.0,0.0,0.0,-1.0313,-1.0719,-1.0719,-1.0338,-0.9983,-0.9964,-0.9347,0.0,-0.8784,-0.849,-0.8139,-0.7779,-0.7555,-0.7347,-0.7066,-0.6953,-0.6848,-0.6655,-0.6851,-0.7139,-0.7559,-0.7832,0.0,-0.8742,-0.9674,-1.0616,-1.1423,-1.2631,0.0,-1.4888,-1.5779,-1.6537,-1.7173,-1.743,-1.7582,-1.7582,-1.7582,-1.7582,-1.7582,-1.7582,-1.7582,-1.7582,-1.7582,-1.7582,0.0,0.0,0.0,0.0,-1.7293,-1.7159,-1.7085,-1.6536,-1.6461,-1.6663,-1.6606,-1.7059,-1.7768,0.0,0.0,0.0,0.0,0.0,0.0,0.0,0.0,0.0,0.0,-0.6943,-0.695,-0.7006,-0.695,-0.695,0.0,0.0,0.0,0.0,0.0,0.0,0.0,0.0,0.0,0.0,0.0,0.0,-0.7,-0.7,-0.7,-0.7,-0.7,0.0,0.0,0.0,0.0,0.0,0.0,0.0,0.0,0.0,0.0,0.0,0.0,0.0,0.0,-0.8804,-0.8804,0.0,0.0,0.0,0.0,0.0,0.0,0.0,0.0,-0.9084,0.0,-0.937,0.0,-0.9972,-0.9972,-0.9867,-0.9708,0.0,-0.9245,-0.8979,-0.8568,-0.8584,-0.8493,-0.7967,-0.7783,-0.7617,-0.7353,-0.7072,-0.6877,-0.6828,-0.6909,-0.7133,-0.7569,-0.7832,-0.8233,-0.8742,-0.9527,-1.0357,-1.1217,0.0,-1.3525,-1.4439,-1.5465,-1.6258,-1.6789,-1.712,-1.7378,-1.7582,-1.7582,-1.7582,-1.7582,-1.7582,-1.7582,-1.7582,-1.7582,-1.7582,0.0,0.0,0.0,-1.728,-1.6934,-1.668,-1.6516,-1.6375,-1.6332,-1.632,-1.6522,-1.7059,-1.7815,0.0,0.0,0.0,0.0,0.0,0.0,0.0,0.0,0.0,0.0,0.0,0.0,0.0,0.0,0.0,0.0,0.0,0.0,0.0,0.0,0.0,0.0,0.0,0.0,0.0,0.0,0.0,0.0,0.0,-0.7,0.0,0.0,0.0,0.0,0.0,0.0,0.0,0.0,0.0,0.0,-0.8076,0.0,0.0,0.0,0.0,0.0,-0.8804,-0.8804,0.0,-0.8804,-0.8804,-0.8804,0.0,0.0,0.0,0.0,-0.8891,-0.9011,-0.9011,-0.9359,-0.9719,-0.9846,-0.978,-0.9673,-0.9624,-0.9511,-0.9314,-0.8933,-0.8927,-0.883,-0.8264,-0.8127,-0.7975,-0.7685,-0.7459,-0.7256,-0.7117,-0.6998,-0.713,-0.7536,-0.7738,-0.8046,0.0,-0.921,-0.9849,-1.0534,0.0,-1.2759,-1.3656,-1.4731,-1.5653,-1.6305,-1.6908,-1.7331,-1.7582,-1.7582,-1.7582,-1.7582,-1.7582,-1.7582,-1.7582,-1.7442,-1.7434,0.0,0.0,0.0,-1.6978,-1.6627,-1.6413,-1.6259,-1.6119,-1.6122,-1.6218,-1.6494,-1.7059,-1.7768,0.0,0.0,0.0,0.0,0.0,0.0,0.0,0.0,0.0,0.0,0.0,0.0,0.0,0.0,0.0,0.0,0.0,0.0,0.0,0.0,0.0,0.0,0.0,0.0,0.0,0.0,0.0,0.0,0.0,0.0,0.0,0.0,-0.7,0.0,0.0,0.0,0.0,0.0,0.0,0.0,-0.8277,0.0,0.0,0.0,0.0,0.0,0.0,0.0,0.0,-0.8804,-0.8804,-0.8804,-0.8804,0.0,0.0,0.0,0.0,0.0,-0.8864,-0.9239,-0.9673,-0.992,-0.9833,-0.9746,-0.9993,-0.983,-0.9592,-0.9418,-0.93,-0.9121,-0.8657,-0.8517,-0.8351,-0.8017,-0.784,-0.7634,-0.7372,-0.7119,-0.7166,-0.755,-0.7617,0.0,-0.8354,-0.8832,-0.9291,-0.9835,0.0,-1.1907,-1.285,-1.3948,-1.4902,-1.5765,-1.651,-1.7095,-1.7403,-1.7542,-1.7562,-1.7515,-1.7515,-1.7488,-1.7442,-1.7246,-1.7132,-1.7119,0.0,0.0,-1.6613,-1.6326,-1.6206,-1.6179,-1.5925,-1.5974,-1.6218,-1.6494,-1.7059,-1.7721,0.0,0.0,0.0,0.0,0.0,0.0,0.0,0.0,0.0,0.0,0.0,0.0,0.0,0.0,0.0,0.0,0.0,0.0,0.0,0.0,0.0,0.0,0.0,0.0,-0.7,0.0,0.0,0.0,0.0,0.0,-0.7,-0.7,-0.7,-0.7,0.0,0.0,0.0,0.0,0.0,0.0,0.0,0.0,0.0,0.0,0.0,0.0,0.0,0.0,0.0,-0.8804,-0.8804,-0.8804,-0.8804,0.0,0.0,0.0,0.0,0.0,-0.9078,-0.9211,-0.9291,-0.9337,-0.9532,-0.9722,-0.974,-0.9596,-0.9418,-0.9259,-0.9346,-0.9352,-0.8998,-0.8881,-0.8687,-0.8309,-0.7813,-0.7469,0.0,0.0,-0.7461,-0.7563,0.0,-0.7942,-0.8365,-0.8482,-0.884,0.0,0.0,-1.1378,-1.2456,-1.3263,-1.4162,-1.5176,-1.5573,-1.598,-1.65,-1.7237,-1.7514,-1.7266,-1.7266,-1.7088,-1.684,-1.6794,-1.6774,-1.676,0.0,-1.6339,-1.6319,-1.6019,-1.5899,-1.5892,-1.5798,-1.5974,-1.6218,-1.6494,-1.6911,-1.7567,0.0,0.0,0.0,0.0,0.0,0.0,0.0,0.0,0.0,0.0,0.0,0.0,0.0,0.0,0.0,0.0,0.0,0.0,0.0,0.0,0.0,0.0,-0.7,-0.7,-0.7,0.0,0.0,0.0,0.0,-0.7,-0.7,-0.7,-0.7108,-0.7261,0.0,0.0,0.0,0.0,0.0,0.0,0.0,0.0,0.0,0.0,0.0,0.0,0.0,0.0,0.0,0.0,-0.8804,-0.8804,-0.8804,0.0,0.0,0.0,0.0,0.0,-0.9131,-0.9331,-0.9559,-0.9873,-1.0084,-1.02,-1.023,-1.0287,-1.0206,-0.988,-0.9861,-0.9764,-0.922,-0.9094,-0.8862,-0.8221,-0.7863,-0.7627,-0.7566,-0.7484,-0.7517,0.0,0.0,-0.7921,-0.817,-0.8333,-0.863,0.0,0.0,0.0,-1.1697,-1.2506,-1.338,-1.4429,-1.4993,-1.5556,-1.6067,-1.6624,-1.6894,-1.6907,-1.6907,-1.684,-1.67,-1.6547,-1.6473,-1.646,0.0,-1.6032,-1.6019,-1.5838,-1.5784,-1.5784,-1.5784,-1.5879,-1.6076,-1.6595,-1.7012,-1.7466,0.0,0.0,0.0,0.0,0.0,0.0,0.0,0.0,0.0,0.0,0.0,0.0,0.0,0.0,0.0,0.0,0.0,0.0,0.0,0.0,-0.7213,-0.7213,-0.7213,-0.7146,-0.7006,0.0,-0.7,-0.7,-0.7073,-0.7146,-0.7213,-0.7213,-0.7355,-0.7598,0.0,0.0,-0.8025,-0.8301,0.0,0.0,0.0,0.0,0.0,0.0,0.0,0.0,0.0,0.0,0.0,0.0,0.0,0.0,0.0,0.0,0.0,-0.8804,-0.8851,-0.8944,-0.9237,-0.9531,-0.9897,-1.0483,-1.0629,-1.0638,-1.0764,-1.0857,-1.0789,-1.037,-1.0254,-0.9994,-0.9371,-0.9163,-0.8855,-0.8148,-0.7935,-0.7812,-0.7579,-0.7496,-0.7556,-0.7784,-0.7841,-0.7913,-0.7978,-0.8187,0.0,0.0,0.0,0.0,-1.097,-1.173,-1.2604,-1.359,-1.4362,-1.5014,-1.5613,-1.5961,-1.6298,-1.6607,-1.6607,-1.6567,-1.6493,-1.6273,-1.6166,-1.6152,-1.5925,-1.5784,-1.5784,-1.5784,-1.5784,-1.5784,-1.5784,-1.5832,-1.5974,-1.6602,-1.7019,-1.7419,0.0,0.0,0.0,0.0,0.0,0.0,0.0,0.0,0.0,0.0,0.0,0.0,0.0,0.0,0.0,0.0,0.0,0.0,0.0,0.0,-0.7839,-0.7839,-0.7839,-0.7579,-0.7013,-0.7,-0.7,-0.7,-0.7323,-0.7582,-0.7839,-0.7839,-0.7852,-0.7872,0.0,-0.8063,-0.8368,-0.8395,-0.8556,0.0,0.0,0.0,0.0,0.0,0.0,0.0,0.0,0.0,0.0,0.0,0.0,0.0,0.0,0.0,-0.8804,-0.8804,-0.8971,-0.9244,-0.9573,-0.9778,-1.0019,-1.0555,-1.0699,-1.077,-1.1017,-1.0689,-1.0358,-1.0313,-1.0038,-0.9776,-0.9529,-0.9009,-0.8539,-0.8235,-0.7985,-0.7801,-0.7692,0.0,-0.7787,-0.7811,-0.7887,-0.7978,-0.7988,0.0,0.0,0.0,0.0,0.0,-1.043,-1.0972,-1.1766,-1.2862,-1.338,-1.4009,-1.4798,-1.5319,-1.584,-1.6355,-1.6355,-1.6159,-1.5844,-1.5824,-1.5865,-1.5811,-1.5791,-1.5784,-1.5784,-1.5784,-1.5784,-1.5784,-1.5784,-1.5927,-1.617,-1.6224,-1.6683,-1.7326,0.0,0.0,0.0,0.0,0.0,0.0,0.0,0.0,0.0,0.0,0.0,0.0,0.0,0.0,0.0,0.0,0.0,0.0,0.0,0.0,-0.7905,-0.7905,-0.7905,-0.7799,-0.7572,-0.7566,-0.7566,-0.7566,-0.7679,-0.7792,-0.7905,-0.7905,0.0,0.0,0.0,-0.837,-0.8644,-0.8644,-0.8704,-0.8804,0.0,0.0,0.0,0.0,0.0,0.0,0.0,0.0,0.0,0.0,-0.8804,-0.8804,0.0,0.0,-0.8844,0.0,-0.9124,-0.9289,-0.9708,-0.9984,-1.0218,-1.0554,-1.0744,-1.0916,-1.1015,-1.0918,-1.0735,-1.0523,-1.0142,-0.9717,-0.9233,-0.8817,-0.8461,-0.8199,-0.8005,-0.7845,-0.7762,-0.7787,-0.7845,-0.7891,-0.7955,-0.7988,-0.7988,0.0,0.0,0.0,0.0,0.0,-0.9871,-1.056,-1.1389,-1.2273,-1.2899,-1.3624,-1.4442,-1.4975,-1.5462,-1.5807,-1.5944,-1.5939,-1.5784,-1.5784,-1.5784,-1.5784,-1.5784,-1.5784,-1.5784,-1.5784,-1.5784,-1.5784,-1.5784,-1.5879,-1.5981,-1.613,-1.6359,-1.6683,0.0,0.0,0.0,0.0,0.0,0.0,0.0,0.0,0.0,0.0,0.0,0.0,0.0,0.0,0.0,0.0,0.0,0.0,0.0,0.0,-0.8185,-0.8185,-0.8185,-0.8185,-0.8185,-0.8185,-0.8092,-0.7905,-0.7999,-0.8092,-0.8185,0.0,0.0,0.0,-0.8536,-0.8617,-0.8804,-0.8804,-0.8804,-0.8804,-0.8804,-0.8804,0.0,0.0,0.0,0.0,0.0,0.0,0.0,0.0,-0.8804,0.0,0.0,0.0,0.0,0.0,0.0,-0.9449,-0.9918,-1.0128,-1.0333,-1.0639,-1.0706,-1.0776,-1.0943,-1.0952,-1.0857,-1.0453,-0.9993,-0.9521,-0.9022,-0.873,-0.8452,0.0,-0.8034,-0.7937,-0.7797,-0.7851,-0.7874,-0.7978,-0.7988,-0.7988,0.0,0.0,0.0,0.0,0.0,0.0,0.0,-1.0167,-1.0949,-1.1834,-1.2613,-1.3383,-1.4148,-1.479,-1.522,-1.5493,-1.5683,-1.5784,-1.5784,-1.5784,-1.5784,-1.5784,-1.5784,-1.5784,-1.5784,-1.5784,-1.5784,-1.5784,-1.5784,-1.5784,-1.5825,-1.6028,-1.613,-1.6272,0.0,0.0,0.0,0.0,0.0,0.0,0.0,0.0,0.0,0.0,0.0,0.0,0.0,0.0,0.0,0.0,0.0,0.0,0.0,-0.8804,-0.8804,-0.8804,-0.8804,-0.8804,-0.8804,-0.8804,-0.8498,-0.7912,-0.8237,-0.8549,-0.8804,-0.8804,0.0,0.0,0.0,-0.8804,-0.8804,-0.8804,-0.8804,-0.8804,-0.8804,-0.8804,-0.8804,0.0,0.0,0.0,0.0,0.0,0.0,0.0,0.0,0.0,0.0,0.0,0.0,0.0,-0.9452,-0.979,-1.0182,-1.0192,-1.0263,-1.0857,-1.0524,-1.0259,-1.0774,-1.0723,-1.0463,-0.9984,-0.9538,-0.915,-0.9013,-0.8855,0.0,-0.7969,-0.8057,-0.8111,-0.7862,-0.7894,-0.7988,-0.7988,-0.7988,-0.7988,0.0,0.0,0.0,0.0,0.0,0.0,0.0,-0.9727,-1.0511,-1.1536,-1.237,-1.3141,-1.3902,-1.4688,-1.522,-1.5493,-1.5683,-1.5784,-1.5784,-1.5784,-1.5784,-1.5784,-1.5784,-1.5784,-1.5784,-1.5784,-1.5784,-1.5784,-1.5784,-1.5784,-1.5784,-1.5784,-1.5981,-1.6224,0.0,0.0,0.0,0.0,0.0,0.0,0.0,0.0,0.0,0.0,0.0,0.0,0.0,0.0,0.0,0.0,0.0,0.0,0.0,-0.8804,-0.8804,-0.8804,-0.8804,-0.8804,-0.8804,-0.8804,-0.8724,-0.8525,-0.8637,-0.8724,0.0,0.0,0.0,-0.8804,0.0,-0.8804,-0.8804,-0.8804,-0.8804,-0.8804,-0.8804,-0.8804,-0.8804,0.0,0.0,0.0,0.0,0.0,0.0,0.0,0.0,0.0,0.0,0.0,0.0,-0.9466,-0.9672,-0.9908,-1.0283,-1.0412,-1.0438,-1.0379,-1.0405,-1.0393,-1.0246,-1.0243,-1.0177,-0.9642,-0.93,-0.9027,-0.8843,-0.8532,0.0,-0.8137,-0.8073,-0.8023,-0.797,-0.7961,-0.7988,-0.7988,-0.7988,-0.7988,0.0,0.0,0.0,0.0,0.0,0.0,0.0,-0.962,-1.0413,-1.1292,-1.2078,-1.2856,-1.363,-1.44,-1.4933,-1.522,-1.5594,-1.5784,-1.5784,-1.5784,-1.5784,-1.5784,-1.5784,-1.5784,-1.5784,-1.5784,-1.5784,-1.5784,-1.5784,-1.5784,-1.5784,-1.5784,-1.5832,-1.5927,0.0,0.0,0.0,0.0,0.0,0.0,0.0,0.0,0.0,0.0,0.0,0.0,0.0,0.0,0.0,0.0,0.0,0.0,0.0,0.0,-0.8804,-0.8804,-0.8804,-0.8804,-0.8804,-0.8804,-0.8804,-0.8804,0.0,0.0,0.0,0.0,-0.8951,-0.8951,0.0,-0.8951,-0.8944,-0.8858,-0.8804,-0.8804,-0.8804,-0.8804,-0.8804,0.0,0.0,0.0,0.0,0.0,0.0,0.0,0.0,0.0,0.0,0.0,-0.9271,-0.9593,-0.9884,-1.0139,-1.0473,-1.0612,-1.0598,-1.0461,-1.0416,-1.0287,-0.9782,-0.9674,-0.9668,-0.9418,-0.9103,-0.8792,-0.8615,-0.8423,0.0,-0.8154,-0.8033,-0.7988,-0.7988,-0.7988,-0.7988,-0.7988,-0.7988,-0.7988,0.0,0.0,0.0,0.0,0.0,0.0,0.0,-0.9472,-1.0265,-1.1145,-1.1975,-1.2759,-1.3491,-1.4304,-1.4838,-1.5131,-1.5601,-1.5784,-1.5784,-1.5784,-1.5784,-1.5784,-1.5784,-1.5784,-1.5784,-1.5784,-1.5784,-1.5784,-1.5784,-1.5784,-1.5784,-1.5784,-1.5784,-1.5825,0.0,0.0,0.0,0.0,0.0,0.0,0.0,0.0,0.0,0.0,-0.8804,0.0,0.0,0.0,0.0,0.0,0.0,0.0,0.0,0.0,-0.8858,-0.8884,-0.8884,-0.8871,-0.8844,-0.8844,-0.8831,-0.8804,-0.8804,0.0,0.0,0.0,-0.9224,-0.9251,0.0,-0.9211,-0.9191,-0.8904,-0.8804,-0.8804,-0.8804,-0.8804,-0.8804,-0.8804,0.0,0.0,0.0,0.0,0.0,0.0,0.0,0.0,-0.8804,-0.8998,-0.9304,-0.9606,-0.9992,-1.0367,-1.0693,-1.0773,-1.0716,-1.0839,-1.0506,-1.0016,-0.9424,-0.91,-0.9044,-0.92,-0.8898,-0.856,-0.8407,-0.8382,-0.8283,-0.8038,-0.7988,-0.7988,-0.7988,-0.7988,-0.7988,-0.7988,-0.7988,0.0,0.0,0.0,0.0,0.0,0.0,0.0,0.0,-0.9327,-1.0068,-1.1145,-1.198,-1.271,-1.3491,-1.4256,-1.479,-1.5131,-1.5601,-1.5784,-1.5784,-1.5784,-1.5784,-1.5784,-1.5784,-1.5784,-1.5784,-1.5784,-1.5784,-1.5784,-1.5784,-1.5784,-1.5784,-1.5784,-1.5784,-1.5784,0.0,0.0,0.0,0.0,0.0,0.0,0.0,0.0,0.0,0.0,0.0,0.0,0.0,0.0,0.0,0.0,0.0,0.0,0.0,0.0,-0.9224,-0.9486,-0.9492,-0.9385,-0.9124,-0.9118,-0.9004,-0.8804,-0.8804,0.0,0.0,0.0,0.0,-0.9579,0.0,-0.9211,-0.9191,-0.8904,-0.8804,-0.8804,-0.8804,-0.8804,-0.8804,-0.8804,-0.8804,0.0,0.0,0.0,0.0,0.0,0.0,0.0,-0.8804,-0.9165,-0.9599,-0.9666,-1.0014,-1.0447,-1.071,-1.0797,-1.074,-1.0637,-1.023,-0.9729,-0.92,-0.8949,-0.8879,-0.8913,-0.8674,-0.8442,-0.8428,-0.8233,-0.8088,-0.7988,-0.7988,-0.7988,-0.7988,-0.7988,-0.7988,-0.7988,-0.7988,0.0,0.0,0.0,0.0,0.0,0.0,0.0,-0.8775,-0.9327,-1.0068,-1.1145,-1.1785,-1.2516,-1.3491,-1.4112,-1.464,0.0,-1.5601,-1.5784,-1.5784,-1.5784,-1.5784,-1.5784,-1.5784,-1.5784,-1.5784,-1.5784,-1.5784,-1.5784,-1.5784,-1.5784,-1.5784,-1.5784,-1.5784,-1.5784,0.0,0.0,0.0,0.0,0.0,0.0,0.0,0.0,0.0,0.0,0.0,0.0,0.0,0.0,0.0,0.0,0.0,0.0,0.0,0.0,0.0,0.0,-0.9715,-0.9546,-0.9217,-0.9211,-0.9071,-0.8804,-0.8804,0.0,0.0,0.0,0.0,-0.988,0.0,-0.9452,-0.9426,-0.8991,-0.8804,-0.8804,-0.8804,-0.8804,-0.8804,-0.8804,-0.8804,-0.8804,-0.8804,0.0,0.0,0.0,0.0,0.0,0.0,0.0,-0.9715,-0.9715,-1.012,-1.0621,-1.0767,-1.0892,-1.0906,-1.0559,-1.0159,-0.9626,-0.9034,-0.8864,-0.8726,-0.8482,-0.8283,-0.8187,-0.8187,-0.8088,-0.7988,-0.7988,-0.7988,-0.7988,-0.7988,-0.7988,-0.7988,-0.7988,-0.7988,0.0,0.0,0.0,0.0,0.0,0.0,-0.8233,-0.8775,-0.9179,-0.992,-1.0949,-1.1541,-1.2273,-1.3298,-1.3962,-1.4592,-1.5131,-1.5601,-1.5784,-1.5784,-1.5784,-1.5784,-1.5784,-1.5784,-1.5784,-1.5784,-1.5784,-1.5784,-1.5784,-1.5784,-1.5784,-1.5784,-1.5784,-1.5784,-1.5784,0.0,0.0,0.0,0.0,0.0,0.0,0.0,0.0,0.0,0.0,0.0,0.0,0.0,0.0,0.0,0.0,0.0,0.0,0.0,0.0,0.0,0.0,-0.9863,-0.9699,-0.9371,-0.9317,-0.9144,-0.8858,-0.8858,0.0,0.0,0.0,0.0,-1.018,0.0,-0.9715,-0.9675,-0.9058,-0.8804,-0.8811,-0.8864,-0.8858,-0.8884,-0.8938,-0.8958,-0.8951,-0.8905,-0.8858,-0.8851,0.0,0.0,0.0,0.0,0.0,-0.9715,-0.9715,-1.0255,-1.0839,-1.0805,-1.0987,-1.1059,-1.0674,-1.02,-0.9695,-0.9094,-0.8874,-0.8676,-0.8187,-0.8038,-0.7988,-0.7988,-0.7988,-0.7988,-0.7988,-0.7988,-0.7988,-0.7988,-0.7988,-0.7988,-0.7988,-0.7988,0.0,0.0,0.0,0.0,0.0,0.0,-0.8233,-0.8775,-0.9031,-0.9677,-1.0757,-1.134,-1.2073,-1.3098,-1.3865,-1.4538,-1.5131,-1.5601,-1.5784,-1.5784,-1.5784,-1.5784,-1.5784,-1.5784,-1.5784,-1.5784,-1.5784,-1.5784,-1.5784,-1.5784,-1.5784,-1.5784,-1.5784,-1.5784,-1.5784,0.0,0.0,0.0,0.0,0.0,0.0,0.0,0.0,0.0,0.0,-0.9466,-0.9639,0.0,0.0,0.0,0.0,0.0,0.0,0.0,0.0,0.0,0.0,-1.0472,-1.0332,-0.9977,-0.9753,-0.9479,-0.9158,-0.9158,0.0,0.0,0.0,0.0,-1.0506,0.0,-0.9715,-0.9675,-0.9058,-0.8804,-0.8831,-0.9051,-0.9158,-0.9184,-0.9466,-0.9566,-0.9532,-0.9244,-0.9158,-0.9118,0.0,-0.8804,0.0,0.0,0.0,-0.9715,-0.9715,-1.035,-1.1011,-1.0839,-1.0875,-1.0941,-1.0855,-1.0426,-0.9976,-0.9592,-0.9126,-0.8726,-0.8432,-0.8187,-0.7988,-0.7988,-0.7988,-0.7988,-0.7988,-0.7988,-0.7988,-0.7988,-0.7988,-0.7988,-0.7988,-0.7988,0.0,0.0,0.0,0.0,0.0,-0.7988,-0.8233,-0.8775,-0.9031,-0.9677,-1.0757,-1.134,-1.2073,-1.3098,-1.3667,-1.4346,-1.5131,-1.5601,-1.5784,-1.5784,-1.5784,-1.5784,-1.5784,-1.5784,-1.5784,-1.5784,-1.5784,-1.5784,-1.5784,-1.5784,-1.5784,-1.5784,-1.5784,-1.5784,-1.5784,0.0,0.0,0.0,0.0,0.0,0.0,0.0,0.0,0.0,0.0,0.0,-0.9836,0.0,0.0,0.0,0.0,0.0,0.0,0.0,0.0,0.0,-1.0593,-1.0593,-1.0452,-1.0127,-0.9993,-0.978,-0.9486,0.0,0.0,0.0,-0.9927,-1.0184,0.0,0.0,0.0,0.0,-0.9058,-0.8871,-0.9031,-0.9164,-0.9311,-0.9499,-0.9633,-0.9715,-0.9695,-0.9532,-0.9486,0.0,0.0,-0.9192,-0.9051,-0.9245,0.0,0.0,0.0,-1.0395,-1.0882,-1.0903,-1.0915,-1.0876,-1.0695,-1.0491,-1.0179,-0.9558,-0.9355,-0.9076,-0.8531,-0.8283,-0.8187,-0.8038,-0.7988,-0.7988,-0.7988,-0.7988,-0.7988,-0.7988,-0.7988,-0.7988,-0.7988,-0.7988,0.0,0.0,0.0,0.0,0.0,-0.7988,-0.8187,-0.8577,-0.8829,-0.9327,-1.0117,-1.0801,-1.1585,-1.2467,-1.3275,-1.4244,-1.5315,-1.5547,-1.5689,-1.5784,-1.5784,-1.5784,-1.5784,-1.5784,-1.5784,-1.5784,-1.5784,-1.5784,-1.5784,-1.5784,-1.5784,-1.5784,-1.5784,-1.5784,-1.5784,0.0,0.0,0.0,0.0,0.0,0.0,0.0,0.0,0.0,0.0,0.0,0.0,0.0,0.0,0.0,0.0,0.0,0.0,0.0,0.0,0.0,-1.0593,-1.0593,-1.0486,-1.0234,-1.0154,-1.0013,0.0,0.0,0.0,-1.0083,-1.0194,-1.0307,0.0,-0.9943,-0.9715,0.0,-0.9132,-0.9011,-0.9224,-0.9377,-0.9639,-0.9943,-0.9987,-1.006,-1.0107,-0.999,0.0,0.0,0.0,0.0,-0.9364,-0.9613,-0.9733,0.0,0.0,0.0,-1.0836,-1.104,-1.1043,-1.0994,-1.0739,-1.0588,-1.0356,-0.9815,-0.9603,-0.9371,-0.8821,-0.8581,-0.8432,-0.8237,-0.8088,-0.7988,-0.7988,-0.7988,-0.7988,-0.7988,-0.7988,-0.7988,-0.7988,-0.7988,-0.7988,0.0,0.0,0.0,0.0,-0.7988,-0.8137,-0.8382,-0.8577,-0.8977,-0.9579,-1.0314,-1.1096,-1.1883,-1.3033,-1.4142,-1.5207,-1.5397,-1.5588,-1.573,-1.5784,-1.5784,-1.5784,-1.5784,-1.5784,-1.5784,-1.5784,-1.5784,-1.5784,-1.5784,-1.5784,-1.5784,-1.5784,-1.5784,-1.5784,0.0,0.0,0.0,0.0,0.0,0.0,0.0,0.0,0.0,0.0,0.0,0.0,0.0,0.0,0.0,-1.0593,0.0,0.0,0.0,0.0,0.0,-1.0593,-1.0593,0.0,-1.0566,-1.0261,0.0,0.0,0.0,0.0,-1.0127,-1.0439,-1.0425,-1.0097,-0.982,-0.9715,-0.9688,0.0,0.0,-0.9257,-0.9817,-1.0247,-1.0579,-1.0854,-1.1096,-1.1229,0.0,0.0,0.0,0.0,0.0,0.0,0.0,0.0,-1.007,0.0,0.0,0.0,-1.1236,-1.1373,-1.1423,-1.1304,-1.0888,-1.0548,-1.0707,-0.9984,-0.9365,-0.9493,-0.9126,-0.8775,-0.8775,-0.8333,-0.7988,-0.7988,-0.7988,-0.7988,-0.7988,-0.7988,-0.7988,-0.7988,-0.7988,-0.7988,0.0,0.0,0.0,0.0,-0.7988,-0.8137,-0.8382,-0.8432,-0.8779,-0.9579,-1.0117,-1.0806,-1.159,-1.3136,-1.4052,-1.4394,-1.5159,-1.5493,-1.554,-1.573,-1.5784,-1.5784,-1.5784,-1.5784,-1.5784,-1.5784,-1.5784,-1.5784,-1.5784,-1.5784,-1.5784,-1.5784,-1.5784,-1.5784,0.0,0.0,0.0,0.0,0.0,0.0,0.0,0.0,0.0,0.0,0.0,0.0,0.0,-1.0214,-1.0385,-1.0573,-1.0593,0.0,0.0,0.0,0.0,-1.0593,-1.0593,-1.0593,-1.0593,-1.0486,0.0,0.0,0.0,-1.0432,-1.0439,-1.0546,-1.0432,-1.01,-0.9813,-0.9579,-0.9364,-0.9257,0.0,-0.9573,-1.0198,-1.0606,-1.0901,0.0,0.0,0.0,0.0,0.0,0.0,0.0,0.0,0.0,0.0,0.0,0.0,-1.0347,-1.0626,-1.0892,-1.1112,-1.1193,-1.1192,-1.1164,-1.1088,-1.0935,-1.0686,-1.0413,-1.0188,-0.9965,-0.9734,-0.9472,-0.913,-0.8634,-0.8237,-0.8237,-0.8088,-0.7988,-0.7988,-0.7988,-0.7988,-0.7988,-0.7988,-0.7988,0.0,0.0,0.0,0.0,0.0,-0.8038,-0.8137,-0.8283,-0.863,-0.9076,-0.9624,-1.0462,-1.1585,-1.2657,-1.348,-1.4052,-1.4532,-1.5016,-1.5493,-1.5588,-1.5683,-1.5784,-1.5784,-1.5784,-1.5784,-1.5784,-1.5784,-1.5784,-1.5784,-1.5784,-1.5784,-1.5784,-1.5784,-1.5784,0.0,0.0,0.0,0.0,0.0,0.0,0.0,0.0,0.0,0.0,0.0,0.0,0.0,0.0,-1.0234,-1.0566,-1.0593,-1.0593,-1.0593,-1.0593,-1.0593,-1.0593,-1.0593,-1.0593,-1.0593,0.0,0.0,0.0,0.0,0.0,0.0,-1.0486,-1.0254,-0.996,-0.9666,-0.9397,0.0,0.0,0.0,-0.9769,-1.0466,-1.0875,-1.1182,0.0,0.0,0.0,0.0,0.0,0.0,0.0,0.0,0.0,0.0,0.0,0.0,0.0,-1.0697,-1.0837,-1.0926,-1.1076,-1.1168,-1.1094,-1.1141,-1.1178,-1.0902,-1.0771,-1.0683,-1.0602,-1.0417,-1.0143,-0.9813,-0.9373,-0.8977,-0.8581,-0.8382,-0.8233,-0.8137,-0.8137,-0.8088,-0.7988,-0.7988,-0.7988,0.0,0.0,0.0,0.0,0.0,0.0,-0.7988,-0.8187,-0.8482,-0.8928,-0.9377,-1.0216,-1.1438,-1.2078,-1.2759,-1.3522,-1.3956,-1.4484,-1.5112,-1.5397,-1.5588,-1.5683,-1.5784,-1.5784,-1.5784,-1.5784,-1.5784,-1.5784,-1.5784,-1.5784,-1.5784,-1.5784,-1.5784,-1.5784,0.0,0.0,0.0,0.0,0.0,0.0,0.0,0.0,0.0,0.0,0.0,0.0,0.0,0.0,0.0,-1.0553,-1.0586,-1.0593,-1.0593,-1.0593,-1.0593,-1.0593,0.0,0.0,0.0,0.0,0.0,0.0,0.0,0.0,0.0,0.0,-0.9953,-0.9659,-0.9344,-0.9211,-0.9217,0.0,-0.9715,-0.9789,0.0,-1.1182,-1.1469,0.0,0.0,0.0,-1.2797,-1.261,0.0,-1.2027,0.0,0.0,0.0,0.0,0.0,0.0,0.0,-1.0949,0.0,0.0,0.0,-1.1119,-1.105,-1.1202,-1.1536,-1.1068,-1.075,-1.1443,-1.1205,-1.0847,-1.0849,-1.0592,-1.01,-0.9065,-0.8821,-0.8726,-0.8482,-0.8432,-0.8333,-0.8038,-0.8041,-0.7988,0.0,0.0,0.0,0.0,-0.7988,-0.7988,-0.7988,-0.7988,-0.8389,-0.9137,-0.943,-1.0117,-1.1145,-1.1438,-1.198,-1.2813,-1.3528,-1.4052,-1.4346,-1.5112,-1.5493,-1.5493,-1.573,-1.5784,-1.5784,-1.5784,-1.5784,-1.5784,-1.5784,-1.5784,-1.5784,-1.5784,-1.5784,-1.5784,0.0,0.0,0.0,0.0,0.0,0.0,0.0,0.0,0.0,0.0,0.0,0.0,0.0,0.0,0.0,-1.0234,-1.0466,-1.0593,-1.0593,-1.0593,-1.0593,-1.0593,-1.0593,-1.0593,0.0,0.0,0.0,0.0,0.0,0.0,0.0,0.0,0.0,0.0,-0.9251,-0.9098,-0.8931,-0.9466,0.0,-0.9809,-1.0868,-1.1483,0.0,0.0,0.0,0.0,0.0,-1.3033,-1.2913,0.0,-1.2342,-1.1984,0.0,0.0,0.0,0.0,0.0,0.0,-1.087,0.0,0.0,0.0,0.0,0.0,0.0,-1.1638,-1.1576,-1.1772,-1.1727,-1.1605,-1.1428,-1.1162,-1.0882,-1.056,-0.9734,-0.9084,-0.8985,-0.8829,-0.8676,-0.8577,-0.8382,-0.8283,0.0,0.0,0.0,0.0,-0.7988,-0.7988,-0.7988,-0.8187,-0.8382,-0.863,-0.9278,-0.9723,-1.0019,-1.0904,-1.1639,-1.2224,-1.2948,-1.3673,-1.4346,-1.4927,-1.5309,-1.5493,-1.573,-1.5784,-1.5784,-1.5784,-1.5784,-1.5784,-1.5784,-1.5784,-1.5784,-1.5784,-1.5784,-1.5784,0.0,0.0,0.0,0.0,0.0,0.0,0.0,0.0,0.0,0.0,0.0,0.0,0.0,0.0,0.0,-1.0077,-1.0274,-1.0374,-1.0374,-1.0291,-1.0224,-1.0224,-1.0224,-1.0224,-1.0224,0.0,0.0,0.0,0.0,0.0,0.0,0.0,0.0,0.0,0.0,0.0,0.0,0.0,0.0,0.0,-1.0955,0.0,0.0,-1.2703,-1.3126,0.0,0.0,0.0,-1.332,-1.318,-1.2878,0.0,0.0,0.0,0.0,0.0,0.0,0.0,0.0,0.0,0.0,0.0,0.0,0.0,-1.1721,-1.1811,-1.1946,0.0,-1.2298,-1.2249,-1.2182,-1.1992,-1.1805,-1.1667,-1.0758,-0.9934,-0.9752,-0.9472,-0.9225,-0.8977,-0.8832,-0.8634,0.0,-0.8237,-0.8137,-0.7988,-0.7988,-0.7988,-0.7988,-0.8137,-0.8283,-0.8382,-0.8977,-0.9377,-0.9579,-1.0462,-1.1194,-1.1834,-1.2613,-1.334,-1.3968,-1.4742,-1.5178,-1.5356,-1.5642,-1.5784,-1.5784,-1.5784,-1.5784,-1.5784,-1.5784,-1.5784,-1.5784,-1.5784,-1.5784,-1.5784,0.0,0.0,0.0,0.0,0.0,0.0,0.0,0.0,0.0,0.0,0.0,0.0,0.0,0.0,0.0,0.0,-1.0117,-1.0167,-1.0167,-0.9893,-0.9733,-0.9733,-0.9699,-0.9715,-0.9715,-0.9715,0.0,0.0,0.0,0.0,0.0,0.0,0.0,0.0,0.0,0.0,0.0,0.0,0.0,-0.9909,-1.0982,-1.1623,0.0,0.0,-1.3393,-1.3733,-1.4041,-1.3988,-1.374,-1.3673,-1.3293,0.0,0.0,0.0,0.0,0.0,-1.1042,0.0,0.0,0.0,0.0,0.0,0.0,0.0,-1.1721,-1.1828,-1.2082,0.0,-1.2801,-1.271,-1.2963,-1.2827,-1.2626,-1.2451,-1.1775,-1.1106,-1.0581,-1.0271,-0.9891,-0.9402,-0.932,-0.9084,-0.8581,-0.8482,-0.8333,-0.8088,-0.8038,-0.8038,-0.7988,-0.7988,-0.8088,-0.8333,-0.8627,-0.8977,-0.9525,-1.0068,-1.0752,-1.159,-1.2419,-1.3055,-1.3539,-1.4598,-1.5083,-1.5131,-1.5594,-1.5784,-1.5784,-1.5784,-1.5784,-1.5784,-1.5784,-1.5784,-1.5784,-1.5784,-1.5784,-1.5784,0.0,0.0,0.0,0.0,0.0,0.0,0.0,0.0,0.0,0.0,0.0,0.0,0.0,0.0,0.0,0.0,-1.0334,-1.0506,-1.0506,-1.0194,-1.0033,-1.0033,-0.9813,-0.9715,-0.9715,-0.9715,0.0,0.0,0.0,0.0,0.0,0.0,0.0,0.0,0.0,0.0,0.0,0.0,0.0,-1.0479,-1.1149,0.0,-1.2291,-1.2959,-1.3681,-1.4312,-1.4416,-1.4549,-1.4636,-1.4162,-1.3607,-1.3066,0.0,0.0,0.0,-1.1765,0.0,0.0,0.0,0.0,0.0,0.0,0.0,0.0,-1.1979,-1.2251,-1.2461,0.0,-1.2995,-1.3038,-1.3067,-1.276,-1.2657,-1.3047,-1.2498,-1.18,-1.1132,-1.0787,-1.0516,-1.0184,-0.9979,-0.9727,-0.9377,-0.8977,-0.8676,-0.8627,-0.8432,-0.8233,-0.7988,-0.7988,-0.8038,-0.8088,-0.8333,-0.863,-0.8973,-0.9719,-1.0462,-1.1292,-1.2322,-1.3055,-1.3539,-1.4598,-1.5083,-1.5131,-1.5594,-1.5784,-1.5784,-1.5784,-1.5784,-1.5784,-1.5784,-1.5784,-1.5784,-1.5784,-1.5784,-1.5784,0.0,0.0,0.0,0.0,0.0,0.0,0.0,0.0,0.0,0.0,0.0,0.0,0.0,0.0,0.0,0.0,0.0,0.0,0.0,-1.0067,-0.9833,-0.9657,-0.9511,-0.9392,-0.9252,-0.9245,-0.9245,0.0,0.0,0.0,0.0,0.0,0.0,0.0,0.0,0.0,0.0,0.0,-1.0374,-1.0847,-1.1249,0.0,-1.261,-1.3033,-1.3754,-1.4522,-1.4522,-1.4616,-1.4696,-1.4402,-1.3915,0.0,-1.3073,-1.271,-1.2288,0.0,-1.1698,-1.1363,0.0,0.0,0.0,-1.0872,0.0,0.0,0.0,-1.2179,-1.2521,-1.3063,-1.3212,-1.3345,-1.3689,-1.3384,-1.32,-1.3445,-1.2918,-1.2355,-1.1895,-1.1663,-1.1381,-1.0867,-1.0583,0.0,-0.9867,-0.9385,-0.898,-0.8817,-0.8676,-0.8482,-0.8237,-0.8187,-0.8137,-0.7988,-0.8283,-0.8531,-0.8775,-0.962,-1.0413,-1.1194,-1.2175,-1.291,-1.3539,-1.4454,-1.4981,-1.5131,-1.5594,-1.5784,-1.5784,-1.5784,-1.5784,-1.5784,-1.5784,-1.5784,-1.5784,-1.5784,-1.5784,-1.5784,0.0,0.0,0.0,0.0,0.0,0.0,0.0,0.0,0.0,0.0,0.0,0.0,0.0,0.0,0.0,0.0,0.0,0.0,0.0,-1.0013,-0.9719,-0.9397,-0.9271,-0.9104,-0.8871,-0.8838,-0.8804,-0.8804,0.0,0.0,0.0,0.0,0.0,0.0,0.0,0.0,0.0,0.0,0.0,-1.1189,0.0,-1.2058,-1.2817,-1.3093,-1.3788,-1.4623,-1.473,-1.4736,-1.4683,-1.4623,-1.4215,-1.364,-1.3387,-1.3046,0.0,0.0,0.0,0.0,0.0,0.0,0.0,0.0,0.0,-1.1274,0.0,0.0,0.0,-1.3213,-1.3373,0.0,0.0,0.0,0.0,0.0,0.0,0.0,0.0,-1.2644,0.0,-1.1434,-1.1207,0.0,-1.0371,-0.9806,-0.9361,-0.9011,-0.8954,-0.8829,-0.8584,-0.8482,-0.8333,-0.8088,-0.8333,-0.8577,-0.8775,-0.962,-1.0364,-1.1145,-1.198,-1.2759,-1.3443,-1.4304,-1.4838,-1.5131,-1.5594,-1.5784,-1.5784,-1.5784,-1.5784,-1.5784,-1.5784,-1.5784,-1.5784,-1.5784,-1.5784,-1.5784,-0.835,-0.8271,0.0,0.0,0.0,0.0,0.0,0.0,0.0,0.0,0.0,0.0,0.0,0.0,0.0,0.0,0.0,0.0,-1.0909,0.0,-1.0358,-0.9997,-0.9491,-0.9198,-0.9164,-0.8911,-0.8804,-0.8804,0.0,0.0,0.0,0.0,0.0,0.0,-0.9519,0.0,0.0,0.0,-1.1236,0.0,-1.2084,-1.2455,0.0,-1.3093,-1.3921,-1.5028,-1.5498,-1.5511,-1.5257,0.0,-1.4522,-1.3981,0.0,-1.3206,-1.2808,-1.2703,0.0,0.0,0.0,0.0,0.0,0.0,-1.1122,0.0,0.0,0.0,-1.2492,-1.3171,0.0,0.0,0.0,0.0,0.0,0.0,0.0,0.0,-1.3537,-1.3565,-1.3119,-1.1974,-1.1835,0.0,0.0,-1.0584,-1.0084,-0.9617,-0.9531,-0.9381,-0.9133,-0.8878,-0.8627,-0.8382,-0.8627,-0.8775,-0.8825,-0.962,-1.0265,-1.0855,-1.1878,-1.2662,-1.3195,-1.4208,-1.4838,-1.5131,-1.5594,-1.5784,-1.5784,-1.5784,-1.5784,-1.5784,-1.5784,-1.5784,-1.5784,-1.5784,-1.5784,-1.5784,-0.8055,-0.8002,0.0,0.0,0.0,0.0,0.0,0.0,0.0,0.0,0.0,0.0,0.0,0.0,0.0,0.0,0.0,-1.1342,0.0,0.0,0.0,-1.0388,-0.9973,-0.9564,-0.9217,-0.9091,-0.8951,-0.8804,-0.8804,0.0,0.0,0.0,0.0,0.0,-0.9806,0.0,-1.0854,0.0,-1.143,0.0,0.0,0.0,0.0,-1.3607,-1.4342,-1.5271,-1.5678,-1.5645,-1.5351,0.0,-1.4683,0.0,0.0,0.0,0.0,-1.2891,0.0,0.0,0.0,0.0,0.0,0.0,0.0,0.0,-1.2136,0.0,-1.2395,0.0,0.0,0.0,0.0,0.0,0.0,0.0,-1.3616,0.0,0.0,0.0,-1.3223,0.0,0.0,0.0,0.0,0.0,0.0,0.0,-1.0105,-0.986,-0.9476,-0.9327,-0.9076,-0.8627,-0.8726,-0.8874,-0.9031,-0.9673,-1.0364,-1.1047,-1.1785,-1.2565,-1.3346,-1.4112,-1.4688,-1.5131,-1.5594,-1.5784,-1.5784,-1.5784,-1.5784,-1.5784,-1.5784,-1.5784,-1.5784,-1.5784,-1.5784,-1.5784,-0.7547,0.0,0.0,0.0,0.0,0.0,0.0,0.0,0.0,0.0,0.0,0.0,-1.029,-1.0883,0.0,0.0,-1.1782,-1.1808,0.0,0.0,-1.1115,-1.075,-1.0309,-0.989,-0.9526,-0.9253,-0.9056,-0.8898,-0.8844,0.0,0.0,0.0,0.0,0.0,0.0,-1.0488,-1.1122,0.0,-1.177,-1.2438,-1.2605,-1.3206,-1.4028,-1.4249,-1.477,-1.5438,-1.5678,-1.5691,-1.5471,-1.5177,-1.4883,0.0,-1.3999,0.0,-1.3513,0.0,0.0,0.0,-1.2288,0.0,0.0,0.0,0.0,0.0,0.0,0.0,0.0,0.0,0.0,0.0,0.0,0.0,0.0,0.0,0.0,-1.3456,0.0,-1.3373,0.0,0.0,0.0,0.0,0.0,0.0,0.0,-1.0702,-1.0683,-1.0473,-0.9938,-0.9944,-0.9673,-0.9122,-0.9221,-0.9274,-0.943,-0.9969,-1.0556,-1.1194,-1.1834,-1.2565,-1.3394,-1.4112,-1.464,-1.5131,-1.5594,-1.5784,-1.5784,-1.5784,-1.5784,-1.5784,-1.5784,-1.5784,-1.5784,-1.5784,-1.5784,-1.5784,-0.6761,-0.6847,-0.6933,-0.6906,-0.682,0.0,0.0,0.0,0.0,0.0,0.0,0.0,-1.0317,0.0,0.0,0.0,0.0,-1.2899,-1.2311,0.0,-1.1709,-1.1114,-1.0392,-1.0091,-1.0262,-0.9447,-0.9072,-0.9198,-0.8918,0.0,0.0,0.0,0.0,0.0,-0.9987,-1.0569,-1.1415,-1.2017,-1.2445,-1.2817,-1.3367,-1.4128,-1.4968,0.0,-1.5169,-1.5438,-1.5678,0.0,0.0,-1.5478,-1.519,0.0,0.0,0.0,0.0,0.0,0.0,0.0,0.0,0.0,0.0,-1.2138,0.0,0.0,0.0,0.0,-1.2643,0.0,0.0,0.0,0.0,0.0,0.0,0.0,0.0,0.0,0.0,0.0,0.0,0.0,0.0,0.0,0.0,-1.1767,-1.1728,-1.1303,-1.1456,-1.132,-1.0805,-1.075,-1.0511,-0.9969,-1.0216,-1.0216,-0.9969,-1.0507,-1.09,-1.1194,-1.2029,-1.2662,-1.3147,-1.4208,-1.4838,-1.5131,-1.5594,-1.5784,-1.5784,-1.5784,-1.5784,-1.5784,-1.5784,-1.5784,-1.5784,-1.5784,-1.5784,-1.5784,-0.6274,-0.6196,-0.62,-0.6277,-0.6273,-0.6348,0.0,-0.7239,0.0,0.0,-0.9159,0.0,0.0,-1.1291,-1.1797,0.0,0.0,-1.264,-1.2441,-1.2216,0.0,-1.1495,-1.1042,-1.0573,0.0,-0.9804,-0.9472,-0.9079,-0.898,0.0,0.0,0.0,0.0,0.0,0.0,-1.0788,0.0,0.0,0.0,0.0,0.0,-1.4636,-1.5251,0.0,0.0,-1.5698,-1.5792,-1.5784,0.0,-1.5491,-1.5331,-1.5197,-1.4903,-1.4676,-1.4442,-1.4055,-1.3868,0.0,0.0,0.0,-1.2864,-1.2743,0.0,0.0,0.0,0.0,0.0,0.0,0.0,0.0,0.0,0.0,0.0,0.0,0.0,0.0,0.0,0.0,0.0,0.0,0.0,0.0,0.0,0.0,0.0,-1.175,-1.2079,-1.2045,-1.1357,-1.1521,-1.134,-1.0806,-1.0703,-1.0703,-1.0801,-1.0949,-1.1394,-1.198,-1.2467,-1.3007,-1.3636,-1.4352,-1.4838,-1.5131,-1.5594,-1.5784,-1.5784,-1.5784,-1.5784,-1.5784,-1.5784,-1.5784,-1.5784,-1.5784,-1.5784,-1.5784,-0.5739,-0.5622,-0.5626,-0.5896,-0.5981,-0.6151,0.0,0.0,0.0,0.0,-0.9169,0.0,-1.0685,0.0,-1.1851,0.0,-1.2525,-1.2566,-1.2525,-1.2231,0.0,-1.1655,-1.1199,-1.0723,0.0,0.0,-0.9631,-0.9246,0.0,-0.8959,0.0,0.0,0.0,0.0,0.0,-1.0685,-1.1332,-1.1989,-1.2606,0.0,0.0,-1.497,0.0,0.0,-1.5665,-1.5784,0.0,-1.5784,-1.5751,-1.5611,-1.5484,-1.5364,-1.5223,-1.5095,-1.4934,-1.4509,-1.4439,-1.4269,-1.3681,-1.352,0.0,-1.3162,-1.2988,0.0,-1.3154,0.0,0.0,0.0,0.0,0.0,0.0,0.0,0.0,0.0,0.0,0.0,0.0,-1.3132,0.0,0.0,0.0,0.0,0.0,-1.2739,-1.2782,-1.2301,-1.2709,-1.2655,0.0,0.0,-1.2185,-1.178,-1.1487,-1.1492,-1.1785,-1.1683,-1.1975,-1.2662,-1.291,-1.3394,-1.407,-1.4598,-1.4981,-1.5267,-1.5642,-1.5784,-1.5784,-1.5784,-1.5784,-1.5784,-1.5784,-1.5784,-1.5784,-1.5784,-1.5784,-1.5784,-0.5159,-0.5105,-0.525,-0.5698,-0.5925,-0.6167,0.0,0.0,-0.7661,0.0,-0.9168,-0.9933,-1.0192,-1.1267,-1.2021,-1.2266,-1.2521,-1.2655,-1.2564,-1.2199,0.0,0.0,-1.0871,-1.0558,-1.0643,0.0,0.0,0.0,0.0,0.0,0.0,0.0,0.0,0.0,-0.9843,0.0,-1.1138,-1.187,-1.2505,-1.3112,-1.4429,-1.5144,-1.5444,-1.5678,-1.5784,-1.5784,-1.5784,-1.5784,-1.5784,-1.5784,-1.5645,-1.5418,-1.5418,-1.5224,-1.5048,-1.5035,-1.5028,-1.4908,-1.4289,-1.4128,-1.3988,-1.34,0.0,0.0,0.0,0.0,-1.3455,0.0,0.0,0.0,0.0,0.0,0.0,0.0,0.0,0.0,0.0,0.0,0.0,0.0,0.0,0.0,-1.2837,-1.3063,-1.3147,-1.2934,-1.3248,-1.3238,0.0,0.0,-1.307,-1.2834,-1.2559,-1.2565,-1.2813,-1.257,-1.2662,-1.3147,-1.3443,-1.3823,-1.4346,-1.4885,-1.5267,-1.5493,-1.573,-1.5784,-1.5784,-1.5784,-1.5784,-1.5784,-1.5784,-1.5784,-1.5784,-1.5784,-1.5784,-1.5784,-0.5016,-0.5029,-0.5144,-0.5258,-0.5522,-0.5848,0.0,0.0,0.0,0.0,-0.8783,-0.9514,-1.0207,-1.0868,-1.1392,-1.1751,-1.2026,0.0,0.0,0.0,0.0,-1.1346,-1.0993,-1.0574,-1.004,-0.9968,-0.973,-0.9253,0.0,0.0,-0.9002,0.0,0.0,0.0,0.0,-1.0296,-1.1006,-1.1833,-1.2962,-1.418,-1.4563,-1.512,-1.5678,0.0,-1.5784,-1.5784,-1.5784,-1.5784,-1.5784,-1.5784,-1.5731,-1.5718,-1.5718,-1.5665,-1.5565,-1.5351,-1.5284,-1.5204,-1.4881,-1.478,-1.464,-1.4008,-1.3903,-1.3858,0.0,0.0,0.0,0.0,0.0,0.0,0.0,0.0,0.0,0.0,0.0,0.0,0.0,0.0,0.0,-1.3598,0.0,-1.3409,-1.2977,-1.3414,-1.3536,-1.3134,-1.3563,-1.3657,0.0,0.0,0.0,-1.3343,-1.3047,-1.305,-1.3298,-1.305,-1.3286,-1.401,-1.4058,-1.44,-1.4885,-1.5261,-1.5445,-1.5493,-1.573,-1.5784,-1.5784,-1.5784,-1.5784,-1.5784,-1.5784,-1.5784,-1.5784,-1.5784,-1.5784,-1.5784,-0.4772,-0.4837,-0.4962,-0.5067,0.0,0.0,-0.6169,-0.6814,0.0,-0.8035,-0.8689,0.0,-0.9942,-1.0405,-1.0795,-1.1197,-1.1288,0.0,-1.145,0.0,0.0,-1.0944,-1.0626,-1.0314,-0.9973,-0.9818,0.0,-0.9281,0.0,0.0,-0.8858,0.0,0.0,0.0,-0.9462,-0.9983,-1.0839,-1.1809,-1.3032,-1.4282,-1.4411,-1.4844,0.0,-1.5642,-1.5683,-1.5683,-1.5784,-1.5784,-1.5784,-1.5784,-1.5784,-1.5784,-1.5784,-1.5784,-1.5751,-1.5631,-1.5585,-1.5524,-1.5231,-1.515,-1.5089,-1.4626,-1.4469,-1.4425,-1.421,-1.4008,-1.3987,0.0,0.0,0.0,0.0,0.0,0.0,0.0,0.0,0.0,0.0,0.0,0.0,0.0,-1.3886,-1.3797,-1.3387,-1.3697,-1.3782,-1.3543,-1.3797,0.0,0.0,0.0,0.0,-1.3987,-1.372,-1.3754,-1.4214,-1.3919,-1.4112,-1.464,-1.464,-1.4879,-1.5267,-1.5445,-1.554,-1.5635,-1.5737,-1.5784,-1.5784,-1.5784,-1.5784,-1.5784,-1.5784,-1.5784,-1.5784,-1.5784,-1.5784,-1.5784,-0.4607,-0.4675,-0.4836,-0.5083,-0.5396,0.0,0.0,-0.6877,0.0,-0.7919,0.0,-0.921,-0.9402,-0.9848,-1.0265,-1.062,-1.0552,-1.0543,-1.0724,-1.0543,-1.0422,-1.0422,-1.0055,-0.9915,-1.0028,-0.9536,-0.9311,0.0,0.0,0.0,0.0,0.0,-0.8937,-0.9135,-0.9061,-0.961,-1.0692,-1.1709,-1.28,-1.3843,-1.405,-1.4476,-1.5083,-1.5356,-1.5452,-1.5499,-1.5689,-1.5784,-1.5784,-1.5784,-1.5784,-1.5784,-1.5784,-1.5784,-1.5784,-1.5784,-1.5784,-1.5724,-1.5524,-1.5451,-1.5384,-1.5142,-1.5068,-1.5055,-1.5015,-1.4744,-1.4499,-1.4506,-1.4501,-1.4475,0.0,0.0,0.0,0.0,0.0,0.0,0.0,0.0,0.0,0.0,0.0,0.0,-1.3859,-1.3894,-1.3923,-1.3892,-1.3908,0.0,0.0,0.0,0.0,-1.4587,-1.4353,-1.4509,-1.5077,0.0,-1.4885,-1.5124,-1.5124,-1.5267,-1.554,-1.554,-1.5635,-1.5784,-1.5784,-1.5784,-1.5784,-1.5784,-1.5784,-1.5784,-1.5784,-1.5784,-1.5784,-1.5784,-1.5784,-1.5784,-0.487,-0.4924,-0.5111,-0.5324,-0.5576,-0.595,-0.6469,-0.6737,-0.7017,-0.74,-0.8009,-0.844,-0.8575,-0.9296,-0.9806,-0.9871,-1.0233,0.0,0.0,0.0,0.0,-0.9823,-0.9618,-0.9356,-0.9043,-0.9348,-0.9451,0.0,0.0,0.0,0.0,0.0,0.0,-0.8882,-0.9082,-0.9781,-1.0889,-1.1322,0.0,-1.3338,-1.361,-1.4118,-1.479,-1.5077,-1.5172,-1.522,-1.5452,-1.5642,-1.5784,-1.5784,-1.5784,-1.5784,-1.5784,-1.5784,-1.5784,-1.5784,-1.5784,-1.5771,-1.5718,-1.5752,-1.5685,-1.5391,-1.5317,-1.5257,-1.5062,-1.4928,-1.4943,-1.5127,-1.4977,-1.4817,-1.4878,0.0,0.0,0.0,0.0,0.0,0.0,0.0,0.0,0.0,0.0,-1.4081,0.0,-1.408,-1.4006,0.0,0.0,0.0,0.0,0.0,0.0,0.0,-1.4536,0.0,0.0,0.0,-1.5172,-1.5452,-1.5452,-1.554,-1.5737,-1.5737,-1.5784,-1.5784,-1.5784,-1.5784,-1.5784,-1.5784,-1.5784,-1.5784,-1.5784,-1.5784,-1.5784,-1.5784,-1.5784,-1.5784,-0.5131,-0.5203,-0.5345,-0.5654,0.0,0.0,0.0,-0.6822,-0.7101,-0.751,-0.7918,-0.8257,-0.8466,-0.8874,-0.9147,-0.9234,-0.942,-0.9571,-0.9571,-0.9339,-0.9242,-0.9242,-0.9084,-0.8964,-0.8886,-0.9007,-0.904,-0.9024,0.0,0.0,0.0,0.0,0.0,-0.8477,-0.9086,-0.9802,0.0,0.0,0.0,-1.2609,-1.2974,-1.3438,-1.3919,-1.4496,-1.4688,-1.4742,-1.5172,-1.5452,-1.5642,-1.5778,-1.5784,-1.5784,-1.5784,-1.5784,-1.5784,-1.5784,-1.5784,-1.5784,-1.5784,-1.5784,-1.5751,-1.5658,-1.5618,-1.5585,-1.5444,-1.5297,-1.5229,-1.5327,-1.5232,-1.5053,-1.4874,-1.4791,0.0,0.0,0.0,0.0,0.0,0.0,0.0,0.0,0.0,0.0,0.0,0.0,0.0,0.0,0.0,-1.3808,0.0,0.0,0.0,0.0,0.0,0.0,0.0,0.0,0.0,-1.5642,-1.5642,-1.573,-1.5784,-1.5784,-1.5784,-1.5784,-1.5784,-1.5784,-1.5784,-1.5784,-1.5784,-1.5784,-1.5784,-1.5784,-1.5784,-1.5784,-1.5784,-1.5784,-0.5443,-0.5515,-0.5627,0.0,-0.623,-0.6494,-0.6749,-0.7021,-0.7279,-0.7679,-0.7902,-0.812,-0.842,-0.8523,-0.8593,-0.8715,-0.8775,-0.8825,-0.8825,-0.8726,-0.8726,-0.8726,-0.8608,-0.866,-0.8828,-0.8619,-0.8627,0.0,0.0,0.0,0.0,0.0,0.0,0.0,0.0,0.0,0.0,0.0,-1.1303,-1.183,-1.2265,-1.2692,-1.3098,-1.3769,-1.4106,-1.4298,-1.4742,-1.5124,-1.535,-1.5635,-1.5778,-1.5784,-1.5784,-1.5784,-1.5784,-1.5784,-1.5784,-1.5784,-1.5784,-1.5784,-1.5784,-1.5784,-1.5784,-1.5784,-1.5784,-1.5651,-1.5491,-1.5491,-1.5394,-1.5209,-1.4871,-1.4852,0.0,0.0,0.0,0.0,0.0,0.0,0.0,0.0,0.0,0.0,-1.4433,0.0,0.0,0.0,0.0,-1.3845,-1.3915,-1.4042,-1.4398,0.0,0.0,-1.5244,-1.5771,0.0,-1.5784,-1.5784,-1.5784,-1.5784,-1.5784,-1.5784,-1.5784,-1.5784,-1.5784,-1.5784,-1.5784,-1.5784,-1.5784,-1.5784,-1.5784,-1.5784,-1.5784,-1.5784,-1.5784,-1.5784,-0.5755,-0.5871,0.0,0.0,0.0,-0.6759,-0.7011,-0.7241,-0.7395,-0.744,-0.7641,-0.7828,-0.7856,-0.8178,-0.8418,-0.8428,-0.8676,-0.8825,-0.8825,-0.8581,-0.8432,-0.8432,-0.8418,-0.8392,-0.8286,-0.8517,-0.8653,0.0,0.0,0.0,0.0,0.0,0.0,0.0,0.0,0.0,0.0,-0.9928,-1.0454,-1.1144,-1.1561,-1.2167,-1.2861,-1.3098,-1.3491,-1.3979,-1.4256,-1.4538,-1.4831,-1.535,-1.5635,-1.5784,-1.5784,-1.5784,-1.5784,-1.5784,-1.5784,-1.5784,-1.5784,-1.5784,-1.5784,-1.5784,-1.5784,-1.5784,-1.5784,-1.5758,-1.5744,-1.5744,-1.5558,-1.5349,-1.5256,-1.5239,-1.5308,0.0,0.0,0.0,0.0,0.0,-1.4691,-1.4691,0.0,0.0,0.0,-1.3853,0.0,0.0,-1.3782,-1.3943,-1.4223,-1.4158,-1.4398,-1.4988,0.0,-1.5244,-1.5771,-1.5784,-1.5784,-1.5784,-1.5784,-1.5784,-1.5784,-1.5784,-1.5784,-1.5784,-1.5784,-1.5784,-1.5784,-1.5784,-1.5784,-1.5784,-1.5784,-1.5784,-1.5784,-1.5784,-1.5784,-1.5784,0.0,0.0,0.0,0.0,0.0,0.0,0.0,-0.7543,-0.7634,-0.7634,-0.7736,-0.7845,-0.7887,-0.805,-0.8137,-0.8137,-0.8237,-0.8333,-0.8333,-0.8237,-0.8137,-0.8137,-0.8137,-0.8167,-0.8215,-0.8222,-0.831,0.0,0.0,0.0,0.0,0.0,0.0,0.0,0.0,-0.8708,-0.9208,-0.9517,-0.9993,-1.0499,-1.1135,-1.156,-1.1932,-1.2662,-1.3055,-1.3298,-1.3877,-1.4208,-1.4544,-1.507,-1.5404,-1.5635,-1.5778,-1.5784,-1.5784,-1.5784,-1.5784,-1.5784,-1.5784,-1.5784,-1.5784,-1.5784,-1.5784,-1.5784,-1.5784,-1.5784,-1.5784,-1.5784,-1.5684,-1.5571,-1.5369,-1.5361,-1.5345,0.0,0.0,0.0,0.0,0.0,0.0,-1.4349,0.0,-1.3959,0.0,0.0,0.0,0.0,0.0,-1.3918,-1.4042,-1.4095,-1.4398,-1.4988,0.0,-1.5244,-1.5771,-1.5784,-1.5784,-1.5784,-1.5784,-1.5784,-1.5784,-1.5784,-1.5784,-1.5784,-1.5784,-1.5784,-1.5784,-1.5784,-1.5784,-1.5784,-1.5784,-1.5784,-1.5784,-1.5784,-1.5784,-1.5784,-0.6576,0.0,-0.6783,0.0,-0.72,-0.7363,-0.7621,-0.7746,-0.7828,-0.7872,-0.7879,-0.787,-0.7978,-0.7988,-0.7988,-0.7988,-0.7988,-0.7988,-0.7988,-0.7988,-0.7988,-0.7988,-0.7988,0.0,-0.8133,-0.8027,-0.8069,-0.8282,-0.7979,0.0,0.0,0.0,0.0,0.0,-0.8027,-0.8377,-0.8735,-0.9183,-0.9578,-0.9953,-1.0675,-1.1051,-1.1296,-1.2224,-1.2662,-1.291,-1.3539,-1.3925,-1.4304,-1.4892,-1.522,-1.5452,-1.573,-1.5784,-1.5784,-1.5784,-1.5784,-1.5784,-1.5784,-1.5784,-1.5784,-1.5784,-1.5784,-1.5784,-1.5784,-1.5784,-1.5784,-1.5784,-1.5784,-1.5718,-1.5565,-1.5524,-1.5458,-1.5205,0.0,0.0,0.0,0.0,0.0,0.0,-1.4166,-1.4052,-1.388,-1.3874,0.0,0.0,0.0,0.0,-1.4056,-1.4181,0.0,0.0,0.0,0.0,0.0,-1.5784,-1.5784,-1.5784,-1.5784,-1.5784,-1.5784,-1.5784,-1.5784,-1.5784,-1.5784,-1.5784,-1.5784,-1.5784,-1.5784,-1.5784,-1.5784,-1.5784,-1.5784,-1.5784,-1.5784,-1.5832,-0.6852,-0.6994,-0.7139,-0.7343,-0.7495,-0.7641,-0.7787,-0.7811,-0.7865,-0.7968,-0.7985,-0.7988,-0.7988,-0.7988,-0.7988,-0.7988,-0.7988,-0.7988,-0.7988,-0.7988,-0.7988,0.0,0.0,-0.7988,-0.7985,-0.814,-0.8048,-0.7724,0.0,0.0,-0.7319,0.0,-0.7486,-0.7797,-0.7801,-0.7982,-0.8344,-0.8798,-0.9164,-0.9464,-1.0138,-1.0708,-1.1247,-1.1785,-1.2322,-1.2861,-1.3346,-1.369,-1.4027,-1.4844,-1.5083,-1.5178,-1.5642,-1.5784,-1.5784,-1.5784,-1.5784,-1.5784,-1.5784,-1.5784,-1.5784,-1.5784,-1.5784,-1.5784,-1.5784,-1.5784,-1.5784,-1.5784,-1.5784,-1.5784,-1.5778,-1.5778,-1.5724,-1.5534,0.0,0.0,0.0,0.0,0.0,-1.4604,-1.4363,-1.4084,-1.3824,-1.3798,0.0,0.0,0.0,0.0,0.0,0.0,0.0,-1.4995,-1.5244,0.0,-1.5778,-1.5784,-1.5784,-1.5784,-1.5784,-1.5784,-1.5784,-1.5784,-1.5784,-1.5784,-1.5784,-1.5784,-1.5784,-1.5784,-1.5784,-1.5784,-1.5784,-1.5784,-1.5784,-1.5784,-1.5784,-1.5832,-0.7377,-0.7424,-0.7499,-0.7645,-0.7709,-0.7794,-0.7894,-0.7917,-0.7934,-0.7982,-0.7988,-0.7988,-0.7988,-0.7988,-0.7988,0.0,-0.7988,-0.7988,0.0,-0.7988,-0.7988,-0.7988,-0.7988,-0.7988,-0.7988,-0.7941,-0.7962,-0.8055,0.0,0.0,0.0,-0.7779,-0.7741,-0.775,-0.7816,-0.798,-0.8232,-0.8568,-0.8945,-0.9351,-1.0092,-1.0507,-1.0752,-1.1639,-1.2127,-1.237,-1.3201,-1.3539,-1.3732,-1.455,-1.4838,-1.4885,-1.522,-1.5547,-1.5784,-1.5784,-1.5784,-1.5784,-1.5784,-1.5784,-1.5784,-1.5784,-1.5784,-1.5784,-1.5784,-1.5784,-1.5784,-1.5784,-1.5784,-1.5784,-1.5784,-1.5689,-1.5588,-1.5493,-1.5356,0.0,0.0,0.0,-1.42,-1.3637,-1.3496,-1.3487,-1.3591,-1.3611,0.0,0.0,0.0,0.0,0.0,0.0,0.0,0.0,-1.5351,0.0,-1.5778,-1.5784,-1.5784,-1.5784,-1.5784,-1.5784,-1.5784,-1.5784,-1.5784,-1.5784,-1.5784,-1.5784,-1.5784,-1.5784,-1.5784,-1.5784,-1.5784,-1.5784,-1.5784,-1.5784,-1.5927,-1.6076,-0.7668,-0.7678,-0.7726,-0.7872,-0.7896,-0.788,-0.7975,-0.7988,-0.7988,-0.7988,-0.7988,-0.7988,-0.7988,-0.7988,0.0,-0.7988,-0.7988,-0.7988,-0.7988,-0.7988,-0.7988,-0.7988,-0.7988,-0.7988,-0.7988,-0.7897,0.0,-0.8059,-0.7858,-0.783,-0.7827,-0.7827,-0.7809,-0.7722,-0.782,-0.7952,-0.8147,-0.8533,-0.8837,-0.913,-1.0019,-1.0413,-1.0507,-1.1487,-1.1927,-1.2127,-1.2953,-1.3298,-1.3491,-1.4304,-1.4544,-1.4592,-1.4987,-1.5315,-1.5547,-1.5642,-1.5689,-1.5683,-1.5784,-1.5784,-1.5784,-1.5784,-1.5784,-1.5784,-1.5784,-1.5784,-1.5784,-1.5784,-1.5784,-1.5784,-1.5784,-1.5635,-1.5452,-1.5356,-1.5029,-1.4646,-1.4208,0.0,-1.3657,0.0,0.0,0.0,0.0,-1.3383,-1.3707,0.0,0.0,0.0,0.0,0.0,0.0,-1.5384,-1.5504,0.0,-1.5784,-1.5784,-1.5784,-1.5784,-1.5784,-1.5784,-1.5784,-1.5784,-1.5784,-1.5784,-1.5784,-1.5784,-1.5784,-1.5784,-1.5784,-1.5784,-1.5784,-1.5784,-1.5832,-1.5927,-1.6076,-1.6224,-0.7801,-0.7828,-0.7872,0.0,-0.7988,0.0,-0.7988,-0.7988,-0.7988,-0.7988,-0.7988,-0.7988,-0.7988,-0.7988,-0.7988,-0.7988,0.0,0.0,0.0,-0.7988,-0.7988,-0.7988,-0.7988,-0.7988,-0.7988,-0.7988,-0.7921,-0.7828,-0.7695,-0.7631,-0.7631,-0.7631,-0.7699,-0.7828,-0.7828,-0.7906,-0.8038,-0.8581,-0.8825,-0.8874,-0.9965,-1.0359,-1.0511,-1.1292,-1.1736,-1.2029,-1.257,-1.2905,-1.3195,-1.3962,-1.425,-1.4346,-1.4838,-1.4987,-1.5035,-1.5356,-1.5493,-1.5493,-1.5689,-1.5737,-1.5737,-1.5737,-1.5784,-1.5784,-1.5784,-1.5784,-1.5784,-1.5784,-1.5784,-1.5784,-1.5784,-1.5594,-1.5356,-1.5077,-1.4592,-1.416,-1.3883,0.0,0.0,0.0,0.0,0.0,0.0,-1.318,-1.3502,0.0,0.0,0.0,0.0,0.0,-1.5424,-1.5424,-1.5691,-1.5784,-1.5784,-1.5784,-1.5784,-1.5784,-1.5784,-1.5784,-1.5784,-1.5784,-1.5784,-1.5784,-1.5784,-1.5784,-1.5784,-1.5784,-1.5784,-1.5784,-1.5784,-1.5832,-1.5879,-1.6123,-1.6224,-1.6359,0.0,0.0,-0.7948,-0.7982,-0.7988,-0.7988,-0.7988,-0.7988,-0.7988,-0.7988,-0.7988,-0.7988,-0.7988,-0.7988,-0.7988,-0.7988,-0.7988,-0.7988,-0.7988,-0.7988,-0.7988,-0.7988,-0.7988,-0.7988,-0.7988,-0.7988,-0.7971,-0.7934,-0.7901,-0.7887,-0.7887,-0.7887,-0.7904,-0.7934,-0.7934,-0.7958,-0.8038,-0.8581,-0.8825,-0.8874,-0.9719,-1.0216,-1.0462,-1.1047,-1.1438,-1.178,-1.2322,-1.2662,-1.291,-1.3292,-1.3534,-1.3727,-1.3829,-1.3877,-1.407,-1.4933,-1.5172,-1.5226,-1.5267,-1.5274,-1.5274,-1.5274,-1.5404,-1.5588,-1.5778,-1.5784,-1.5784,-1.5784,-1.5784,-1.5737,-1.5588,-1.5356,-1.5029,-1.4592,-1.4214,-1.3781,-1.3152,-1.2958,0.0,0.0,-1.2419,-1.264,-1.278,-1.3208,-1.3754,0.0,0.0,0.0,0.0,-1.5678,-1.5732,-1.5732,-1.5792,-1.5784,-1.5784,-1.5784,-1.5784,-1.5784,-1.5784,-1.5784,-1.5784,-1.5784,-1.5784,-1.5784,-1.5784,-1.5784,-1.5784,-1.5784,-1.5784,-1.5784,-1.5784,-1.5927,-1.6123,-1.6177,-1.6548,-1.7052,-0.7988,-0.7988,-0.7988,-0.7988,-0.7988,-0.7988,-0.7988,-0.7988,-0.7988,-0.7988,-0.7988,-0.7988,-0.7988,-0.7988,-0.7988,-0.7988,-0.7988,-0.7988,-0.7988,-0.7988,-0.7988,-0.7988,-0.7988,-0.7988,-0.7988,-0.7988,-0.7988,-0.7988,-0.7988,-0.7988,-0.7988,-0.7988,-0.7988,-0.7988,-0.7988,-0.7988,-0.8038,-0.8432,-0.8676,-0.8874,-0.9525,-0.9969,-1.0265,-1.0654,-1.0998,-1.1292,-1.1683,-1.2024,-1.2322,-1.2662,-1.2856,-1.3055,-1.3249,-1.3298,-1.3443,-1.4166,-1.455,-1.479,-1.5035,-1.5083,-1.5131,-1.5267,-1.5404,-1.554,-1.5737,-1.5784,-1.5784,-1.5784,-1.5784,-1.573,-1.554,-1.5267,-1.4933,-1.4394,-1.3871,-1.3346,-1.2861,-1.2467,0.0,-1.1834,-1.2029,-1.2322,-1.2565,-1.3152,-1.3775,-1.4496,-1.4885,0.0,-1.5635,-1.5737,-1.5784,-1.5784,-1.5784,-1.5784,-1.5784,-1.5784,-1.5784,-1.5784,-1.5784,-1.5784,-1.5784,-1.5784,-1.5784,-1.5784,-1.5784,-1.5784,-1.5784,-1.5784,-1.5879,-1.5974,-1.5974,-1.6163,-1.6407,-1.6636,-1.6965,-1.7372,-0.7988,-0.7988,-0.7988,-0.7988,-0.7988,-0.7988,-0.7988,-0.7988,-0.7988,-0.7988,-0.7988,-0.7988,-0.7988,-0.7988,-0.7988,-0.7988,-0.7988,-0.7988,-0.7988,-0.7988,-0.7988,-0.7988,-0.7988,-0.7988,-0.7988,-0.7988,-0.7988,-0.7988,-0.7988,-0.7988,-0.7988,-0.7988,-0.7988,-0.7988,-0.7988,-0.7988,-0.8041,-0.8283,-0.8531,-0.8775,-0.9278,-0.9673,-0.9969,-1.0167,-1.0462,-1.0757,-1.0998,-1.1243,-1.1536,-1.198,-1.2224,-1.237,-1.2759,-1.2953,-1.305,-1.3298,-1.3727,-1.425,-1.479,-1.4939,-1.5029,-1.5356,-1.5452,-1.5499,-1.573,-1.5784,-1.5784,-1.5784,-1.5784,-1.5689,-1.5499,-1.5172,-1.479,-1.4202,-1.3528,-1.2953,-1.2662,0.0,-1.1585,-1.1585,-1.1834,-1.2127,-1.2419,-1.3147,-1.3775,-1.4298,-1.4885,-1.5267,-1.554,-1.573,-1.5784,-1.5784,-1.5784,-1.5784,-1.5784,-1.5784,-1.5784,-1.5784,-1.5784,-1.5784,-1.5784,-1.5784,-1.5784,-1.5784,-1.5784,-1.5825,-1.5879,-1.5879,-1.6028,-1.6265,-1.6265,-1.6447,-1.677,-1.7185,-1.7419,-1.7652,-0.7988,-0.7988,-0.7988,-0.7988,-0.7988,-0.7988,-0.7988,-0.7988,-0.7988,-0.7988,-0.7988,-0.7988,-0.7988,-0.7988,-0.7988,-0.7988,-0.7988,-0.7988,-0.7988,-0.7988,-0.7988,-0.7988,-0.7988,-0.7988,-0.7988,-0.7988,-0.7988,-0.7988,-0.7988,-0.7988,-0.7988,-0.7988,-0.7988,-0.7988,-0.7988,-0.7988,-0.8041,-0.8283,-0.8432,-0.8482,-0.8775,-0.9225,-0.9677,-0.9727,-1.0019,-1.0462,-1.0507,-1.0708,-1.0953,-1.0998,-1.134,-1.1736,-1.1829,-1.2127,-1.2565,-1.2813,-1.3104,-1.3389,-1.3925,-1.4262,-1.4544,-1.5029,-1.5178,-1.5267,-1.5689,-1.5784,-1.5784,-1.5784,-1.5642,-1.5452,-1.5226,-1.4736,-1.4154,-1.3389,-1.305,-1.2613,-1.1883,0.0,-1.1585,-1.1585,-1.1834,-1.2175,-1.2716,-1.3431,-1.4052,-1.4592,-1.5118,-1.5547,-1.573,-1.5784,-1.5784,-1.5784,-1.5784,-1.5784,-1.5784,-1.5784,-1.5784,-1.5784,-1.5784,-1.5784,-1.5784,-1.5784,-1.5784,-1.5784,-1.5784,-1.5927,-1.613,-1.613,-1.6312,-1.6541,-1.6541,-1.6817,-1.7232,-1.7552,-1.8025,-1.8635,-0.7988,-0.7988,-0.7988,-0.7988,-0.7988,-0.7988,-0.7988,-0.7988,-0.7988,-0.7988,-0.7988,-0.7988,-0.7988,-0.7988,-0.7988,-0.7988,-0.7988,-0.7988,-0.7988,-0.7988,-0.7988,-0.7988,-0.7988,-0.7988,-0.7988,-0.7988,-0.7988,-0.7988,-0.7988,-0.7988,-0.7988,-0.7988,-0.7988,-0.7988,-0.7988,-0.7988,-0.7988,-0.8137,-0.8283,-0.8432,-0.8531,-0.8825,-0.9175,-0.9175,-0.9324,-0.9567,-0.9723,-0.992,-1.0167,-1.0314,-1.0605,-1.0998,-1.1292,-1.1536,-1.1878,-1.2419,-1.3055,-1.3588,-1.3835,-1.4214,-1.4592,-1.4981,-1.5226,-1.5404,-1.5737,-1.5784,-1.5784,-1.5642,-1.554,-1.535,-1.4783,-1.4496,-1.401,-1.3098,-1.2613,0.0,0.0,-1.134,-1.1292,-1.159,-1.198,-1.2419,-1.2905,-1.3673,-1.4346,-1.4885,-1.5261,-1.5588,-1.5778,-1.5784,-1.5784,-1.5784,-1.5784,-1.5784,-1.5784,-1.5784,-1.5784,-1.5784,-1.5784,-1.5784,-1.5784,-1.5927,-1.6028,-1.6028,-1.6163,-1.6305,-1.6407,-1.6407,-1.6636,-1.6958,-1.6958,-1.7372,-1.7978,-1.821,-1.8673,-1.9279,-0.7988,-0.7988,-0.7988,-0.7988,-0.7988,-0.7988,-0.7988,-0.7988,-0.7988,-0.7988,-0.7988,-0.7988,-0.7988,-0.7988,-0.7988,-0.7988,-0.7988,-0.7988,-0.7988,-0.7988,-0.7988,-0.7988,-0.7988,-0.7988,-0.7988,-0.7988,-0.7988,-0.7988,-0.7988,-0.7988,-0.7988,-0.7988,-0.7988,-0.7988,-0.7988,-0.7988,-0.7988,-0.7988,-0.8137,-0.8283,-0.8283,-0.8482,-0.8726,-0.8726,-0.8726,-0.8825,-0.9031,-0.9232,-0.9476,-0.9723,-0.9969,-1.0314,-1.085,-1.11,-1.134,-1.2078,-1.3001,-1.3835,-1.4027,-1.4406,-1.479,-1.5124,-1.5356,-1.554,-1.5737,-1.5784,-1.573,-1.554,-1.5445,-1.5166,-1.4442,-1.4154,-1.3721,-1.2759,0.0,0.0,0.0,-1.1051,-1.0998,-1.1634,-1.2127,-1.2613,-1.3244,-1.3962,-1.464,-1.5172,-1.5452,-1.5635,-1.5778,-1.5784,-1.5784,-1.5784,-1.5784,-1.5784,-1.5784,-1.5784,-1.5784,-1.5784,-1.5784,-1.5832,-1.5879,-1.6123,-1.6218,-1.6312,-1.6494,-1.6636,-1.6683,-1.6723,-1.7005,-1.7426,-1.752,-1.7978,-1.8589,-1.892,-1.9371,-1.9874,-0.7988,-0.7988,-0.7988,-0.7988,-0.7988,-0.7988,-0.7988,-0.7988,-0.7988,-0.7988,-0.7988,-0.7988,-0.7988,-0.7988,-0.7988,-0.7988,-0.7988,-0.7988,-0.7988,-0.7988,-0.7988,-0.7988,-0.7988,-0.7988,-0.7988,-0.7988,-0.7988,-0.7988,-0.7988,-0.7988,-0.7988,-0.7988,-0.7988,-0.7988,-0.7988,-0.7988,-0.7988,-0.7988,-0.7988,-0.8038,-0.8038,-0.8187,-0.8432,-0.8432,-0.8577,-0.8825,-0.8825,-0.8825,-0.8874,-0.9183,-0.943,-0.9776,-1.0314,-1.0801,-1.1292,-1.1878,-1.2759,-1.3684,-1.4454,-1.4688,-1.4831,-1.535,-1.5493,-1.554,-1.5737,-1.5784,-1.573,-1.554,-1.5315,-1.4981,-1.4394,-1.3673,-1.2953,-1.2175,0.0,0.0,-1.0904,-1.0801,-1.1096,-1.1883,-1.2224,-1.2802,-1.3763,-1.4346,-1.4879,-1.5445,-1.5642,-1.5784,-1.5784,-1.5784,-1.5784,-1.5784,-1.5784,-1.5784,-1.5784,-1.5784,-1.5784,-1.5784,-1.5784,-1.5927,-1.6177,-1.6177,-1.6359,-1.6581,-1.6581,-1.673,-1.6979,-1.7145,-1.7434,-1.7721,-1.8218,-1.8542,-1.8874,-1.9563,-2.0019,-2.0382,-0.7988,-0.7988,-0.7988,-0.7988,-0.7988,-0.7988,-0.7988,-0.7988,-0.7988,-0.7988,-0.7988,-0.7988,-0.7988,-0.7988,-0.7988,-0.7988,-0.7988,-0.7988,-0.7988,-0.7988,-0.7988,-0.7988,-0.7988,-0.7988,-0.7988,-0.7988,-0.7988,-0.7988,-0.7988,-0.7988,-0.7988,-0.7988,-0.7988,-0.7988,-0.7988,-0.7988,-0.7988,-0.7988,-0.7988,-0.7988,-0.7988,-0.8038,-0.8137,-0.8137,-0.8237,-0.8283,-0.8283,-0.8432,-0.8581,-0.8878,-0.913,-0.948,-1.0167,-1.056,-1.0953,-1.2127,-1.3098,-1.3913,-1.4742,-1.4939,-1.5029,-1.5404,-1.5588,-1.573,-1.5784,-1.5683,-1.5547,-1.5315,-1.4927,-1.44,-1.3678,-1.3195,-1.2613,-1.1683,0.0,-1.09,-1.0806,-1.0659,-1.09,-1.1883,-1.237,-1.2996,-1.3811,-1.4544,-1.5124,-1.5493,-1.5689,-1.5784,-1.5784,-1.5784,-1.5784,-1.5784,-1.5784,-1.5784,-1.5784,-1.5784,-1.5784,-1.5784,-1.5784,-1.5927,-1.6224,-1.6359,-1.6595,-1.6878,-1.716,-1.7347,-1.7495,-1.7893,-1.8172,-1.8458,-1.895,-1.9417,-1.9791,-2.0246,-2.0699,-2.1239,-0.7739,-0.7739,-0.7739,-0.7739,-0.7739,-0.7789,-0.7842,-0.7892,-0.7892,-0.7988,-0.7988,-0.7988,-0.7988,-0.7988,-0.7988,-0.7988,-0.7988,-0.7988,-0.7988,-0.7988,-0.7988,-0.7988,-0.7988,-0.7988,-0.7988,-0.7988,-0.7988,-0.7988,-0.7988,-0.7988,-0.7988,-0.7988,-0.7988,-0.7988,-0.7988,-0.7988,-0.7988,-0.7988,-0.7988,-0.7988,-0.7988,-0.7988,-0.7988,-0.7988,-0.7988,-0.7988,-0.7988,-0.8137,-0.8333,-0.8676,-0.8928,-0.9229,-1.0117,-1.0708,-1.1292,-1.2516,-1.3431,-1.4196,-1.4885,-1.5178,-1.5267,-1.5547,-1.5683,-1.5784,-1.5737,-1.5588,-1.5404,-1.4933,-1.449,-1.3908,-1.3147,-1.271,-1.2127,-1.1243,-1.0806,-1.056,-1.0654,-1.0605,-1.09,-1.198,-1.2565,-1.3244,-1.4058,-1.4736,-1.5226,-1.5588,-1.5737,-1.5784,-1.5784,-1.5784,-1.5784,-1.5784,-1.5784,-1.5784,-1.5784,-1.5784,-1.5784,-1.5784,-1.5784,-1.5974,-1.6312,-1.6541,-1.6777,-1.7113,-1.7535,-1.7768,-1.7861,-1.8357,-1.8773,-1.9096,-1.96,-2.0102,-2.0555,-2.088,-2.1374,-2.183,-0.7188,-0.7188,-0.7188,-0.7188,-0.7188,-0.7288,-0.7547,-0.7596,-0.7696,-0.7942,-0.7988,-0.7988,-0.7988,-0.7988,-0.7988,-0.7988,-0.7988,-0.7988,-0.7988,-0.7988,-0.7988,-0.7988,-0.7988,-0.7988,-0.7988,-0.7988,-0.7988,-0.7988,-0.7988,-0.7988,-0.7988,-0.7988,-0.7988,-0.7988,-0.7988,-0.7988,-0.7988,-0.7988,-0.7988,-0.7988,-0.7988,-0.7988,-0.7988,-0.7988,-0.7988,-0.7988,-0.7988,-0.7988,-0.8088,-0.863,-0.8825,-0.8973,-1.0064,-1.134,-1.2467,-1.2953,-1.3673,-1.4442,-1.4939,-1.5315,-1.554,-1.5737,-1.5784,-1.5737,-1.554,-1.5493,-1.5255,-1.4442,-1.41,-1.3667,-1.2953,-1.2127,-1.1438,-1.09,-1.0364,-1.0068,-1.0364,-1.0605,-1.1194,-1.2273,-1.2807,-1.3534,-1.4592,-1.4933,-1.5322,-1.5784,-1.5784,-1.5784,-1.5784,-1.5784,-1.5784,-1.5784,-1.5784,-1.5784,-1.5784,-1.5784,-1.5784,-1.5784,-1.5784,-1.6062,-1.6588,-1.6588,-1.6864,-1.7333,-1.7581,-1.7861,-1.8133,-1.8596,-1.9096,-1.9646,-2.0147,-2.06,-2.1042,-2.1553,-2.1874,-2.2185,-0.6892,-0.6942,-0.6992,-0.7188,-0.7188,-0.7238,-0.7291,-0.7341,-0.7338,-0.7437,-0.7437,-0.7437,-0.7437,-0.7593,-0.7693,-0.7693,-0.7892,-0.7988,-0.7988,-0.7988,-0.7988,-0.7988,-0.7988,-0.7988,-0.7988,-0.7988,-0.7988,-0.7988,-0.7988,-0.7988,-0.7988,-0.7988,-0.7988,-0.7988,-0.7988,-0.7988,-0.7988,-0.7988,-0.7988,-0.7988,-0.7988,-0.7988,-0.7988,-0.7988,-0.7988,-0.7988,-0.7988,-0.7988,-0.8088,-0.863,-0.8825,-0.9023,-1.0261,-1.1487,-1.2467,-1.2953,-1.3823,-1.464,-1.5035,-1.541,-1.5737,-1.5778,-1.5689,-1.5588,-1.5493,-1.5064,-1.4538,-1.41,-1.3528,-1.2905,-1.2127,-1.159,-1.1096,-1.0364,-1.0117,-1.0068,-1.0364,-1.0605,-1.1194,-1.2273,-1.299,-1.3715,-1.4592,-1.5118,-1.5499,-1.5784,-1.5784,-1.5784,-1.5784,-1.5784,-1.5784,-1.5784,-1.5784,-1.5784,-1.5784,-1.5784,-1.5784,-1.5784,-1.5784,-1.6062,-1.6588,-1.6588,-1.6965,-1.7621,-1.7854,-1.8226,-1.8643,-1.9288,-1.9791,-2.0147,-2.097,-2.1374,-2.1553,-2.2043,-2.2353,-2.2627,-0.6092,-0.6142,-0.6242,-0.6537,-0.6587,-0.6587,-0.6689,-0.6739,-0.6739,-0.6886,-0.6989,-0.7039,-0.7039,-0.7291,-0.7444,-0.7444,-0.7693,-0.7842,-0.7842,-0.7939,-0.7988,-0.7988,-0.7988,-0.7988,-0.7988,-0.7988,-0.7988,-0.7988,-0.7988,-0.7988,-0.7988,-0.7988,-0.7988,-0.7988,-0.7988,-0.7988,-0.7988,-0.7988,-0.7988,-0.7988,-0.7988,-0.7988,-0.7988,-0.7988,-0.7988,-0.7988,-0.7988,-0.7988,-0.8088,-0.863,-0.9072,-0.9616,-1.0654,-1.1688,-1.2662,-1.3238,-1.4112,-1.4933,-1.5172,-1.5499,-1.5784,-1.5683,-1.5588,-1.5397,-1.5112,-1.4634,-1.4154,-1.357,-1.2948,-1.2273,-1.159,-1.1047,-1.056,-1.0068,-1.0019,-1.0117,-1.0507,-1.09,-1.1487,-1.2565,-1.3281,-1.3956,-1.479,-1.5261,-1.5588,-1.5784,-1.5784,-1.5784,-1.5784,-1.5784,-1.5784,-1.5784,-1.5784,-1.5784,-1.5784,-1.5784,-1.5784,-1.5784,-1.5784,-1.6062,-1.6588,-1.6588,-1.7012,-1.7721,-1.8087,-1.8496,-1.9004,-1.9745,-2.0337,-2.0798,-2.1463,-2.1865,-2.2176,-2.2441,-2.2706,-2.2925,-0.5039,-0.509,-0.519,-0.5486,-0.5536,-0.5586,-0.5842,-0.5892,-0.5989,-0.6237,-0.6489,-0.6645,-0.6645,-0.6942,-0.7089,-0.7089,-0.7341,-0.7547,-0.7547,-0.7793,-0.7939,-0.7942,-0.7942,-0.7992,-0.7988,-0.7988,-0.7988,-0.7988,-0.7988,-0.7988,-0.7988,-0.7988,-0.7988,-0.7988,-0.7988,-0.7988,-0.7988,-0.7988,-0.7988,-0.7988,-0.7988,-0.7988,-0.7988,-0.7988,-0.7988,-0.7988,-0.7988,-0.7988,-0.8088,-0.863,-0.9517,-1.0511,-1.1047,-1.1932,-1.2953,-1.3667,-1.4496,-1.5178,-1.5452,-1.5635,-1.5737,-1.5547,-1.5445,-1.5207,-1.449,-1.425,-1.3913,-1.2953,-1.2322,-1.178,-1.1194,-1.0511,-0.9969,-0.9969,-0.9969,-1.0167,-1.0703,-1.1292,-1.1975,-1.3001,-1.3624,-1.425,-1.5035,-1.5356,-1.5588,-1.5778,-1.5784,-1.5784,-1.5784,-1.5784,-1.5784,-1.5784,-1.5784,-1.5784,-1.5784,-1.5784,-1.5784,-1.5784,-1.5784,-1.6062,-1.6588,-1.6588,-1.7012,-1.7768,-1.8265,-1.8773,-1.9325,-2.0011,-2.0744,-2.1437,-2.1651,-2.2176,-2.2803,-2.2803,-2.2925,-2.3091,-0.4183,-0.4284,-0.4435,-0.4885,-0.4985,-0.4985,-0.5035,-0.5035,-0.5085,-0.5135,-0.5388,-0.5541,-0.5541,-0.5992,-0.6242,-0.6242,-0.6692,-0.7045,-0.7288,-0.7338,-0.749,-0.7696,-0.7696,-0.7793,-0.7988,-0.7988,-0.7988,-0.7988,-0.7988,-0.7988,-0.7988,-0.7988,-0.7988,-0.7988,-0.7988,-0.7988,-0.7988,-0.7988,-0.7988,-0.7988,-0.7988,-0.7988,-0.7988,-0.7988,-0.7988,-0.7988,-0.7988,-0.7988,-0.8088,-0.863,-0.9517,-1.0511,-1.1047,-1.1932,-1.2953,-1.3667,-1.4496,-1.5178,-1.5452,-1.554,-1.5499,-1.5267,-1.4879,-1.449,-1.4346,-1.3673,-1.2953,-1.2322,-1.1731,-1.1145,-1.0413,-1.0117,-0.992,-0.9727,-0.9871,-1.0167,-1.0703,-1.1438,-1.2224,-1.3001,-1.3919,-1.4694,-1.5083,-1.5499,-1.5737,-1.5784,-1.5784,-1.5784,-1.5784,-1.5784,-1.5784,-1.5784,-1.5784,-1.5784,-1.5784,-1.5784,-1.5784,-1.5784,-1.5784,-1.6062,-1.6588,-1.6588,-1.7106,-1.804,-1.8357,-1.8958,-1.9791,-2.0329,-2.0961,-2.1696,-2.2087,-2.2485,-2.2803,-2.2969,-2.3047,-2.3091,-0.3328,-0.3429,-0.358,-0.3982,-0.4033,-0.4033,-0.4033,-0.4033,-0.4033,-0.4033,-0.4384,-0.4638,-0.4638,-0.5087,-0.5489,-0.5591,-0.5992,-0.6339,-0.6589,-0.6892,-0.7092,-0.7194,-0.7447,-0.7646,-0.7793,-0.7942,-0.7988,-0.7988,-0.7988,-0.7988,-0.7988,-0.7988,-0.7988,-0.7988,-0.7988,-0.7988,-0.7988,-0.7988,-0.7988,-0.7988,-0.7988,-0.7988,-0.7988,-0.7988,-0.7988,-0.7988,-0.7988,-0.8187,-0.8432,-0.8726,-0.9517,-1.0511,-1.1047,-1.1932,-1.2953,-1.3859,-1.4592,-1.5172,-1.5547,-1.5588,-1.5397,-1.5029,-1.4394,-1.3859,-1.3769,-1.3147,-1.2419,-1.178,-1.1096,-1.0462,-0.992,-0.9723,-0.9579,-0.943,-0.9875,-1.0364,-1.09,-1.1683,-1.2511,-1.3383,-1.4208,-1.4885,-1.541,-1.5642,-1.5784,-1.5784,-1.5784,-1.5784,-1.5784,-1.5784,-1.5784,-1.5784,-1.5784,-1.5784,-1.5784,-1.5784,-1.5784,-1.5784,-1.5784,-1.6021,-1.64,-1.6541,-1.7059,-1.7947,-1.8404,-1.9058,-1.9799,-2.051,-2.1132,-2.1731,-2.222,-2.2618,-2.2969,-2.3057,-2.3091,-2.3091,-0.2473,-0.2523,-0.2624,-0.2876,-0.2927,-0.2927,-0.2927,-0.2977,-0.2977,-0.2977,-0.3481,-0.3781,-0.3781,-0.4234,-0.4636,-0.4989,-0.5188,-0.5486,-0.5842,-0.6292,-0.6592,-0.6742,-0.7144,-0.7444,-0.7596,-0.7793,-0.7939,-0.7988,-0.7988,-0.7988,-0.7988,-0.7988,-0.7988,-0.7988,-0.7988,-0.7988,-0.7988,-0.7988,-0.7988,-0.7988,-0.7988,-0.7988,-0.7988,-0.7988,-0.7988,-0.7988,-0.7988,-0.8333,-0.8825,-0.8825,-0.9517,-1.0511,-1.1047,-1.1932,-1.3007,-1.3962,-1.4592,-1.5131,-1.5547,-1.5547,-1.5255,-1.4736,-1.4004,-1.3323,-1.3001,-1.2516,-1.198,-1.1145,-1.0413,-0.9875,-0.9579,-0.9331,-0.9236,-0.9331,-0.9969,-1.0654,-1.1243,-1.2024,-1.2899,-1.3859,-1.449,-1.507,-1.573,-1.5784,-1.5784,-1.5784,-1.5784,-1.5784,-1.5784,-1.5784,-1.5784,-1.5784,-1.5784,-1.5784,-1.5784,-1.5784,-1.5784,-1.5784,-1.5784,-1.5927,-1.6224,-1.6494,-1.6965,-1.7675,-1.8411,-1.9066,-1.9671,-2.06,-2.123,-2.1731,-2.222,-2.2662,-2.3047,-2.3101,-2.3091,-2.3091,-0.1364,-0.1414,-0.1515,-0.1765,-0.1815,-0.1815,-0.1815,-0.2017,-0.2169,-0.2169,-0.2623,-0.2977,-0.2977,-0.3229,-0.3632,-0.4133,-0.4183,-0.4535,-0.524,-0.5391,-0.5739,-0.6437,-0.6537,-0.6889,-0.7596,-0.7646,-0.7743,-0.7988,-0.7988,-0.7988,-0.7988,-0.7988,-0.7988,-0.7988,-0.7988,-0.7988,-0.7988,-0.7988,-0.7988,-0.7988,-0.7988,-0.7988,-0.7988,-0.7988,-0.7988,-0.7988,-0.7988,-0.8333,-0.8825,-0.8825,-0.9517,-1.0511,-1.1047,-1.1932,-1.2953,-1.3715,-1.4346,-1.4838,-1.5124,-1.5029,-1.4736,-1.4442,-1.3769,-1.2996,-1.2322,-1.1731,-1.1145,-1.0314,-0.9875,-0.9579,-0.9282,-0.9232,-0.9331,-0.9826,-1.0364,-1.0998,-1.178,-1.2511,-1.3286,-1.4154,-1.4921,-1.5493,-1.5784,-1.5784,-1.5784,-1.5784,-1.5784,-1.5784,-1.5784,-1.5784,-1.5784,-1.5784,-1.5784,-1.5784,-1.5784,-1.5784,-1.5784,-1.5784,-1.5784,-1.5927,-1.6224,-1.6494,-1.6864,-1.738,-1.8218,-1.8958,-1.9646,-2.0419,-2.1105,-2.1731,-2.222,-2.2574,-2.2838,-2.3057,-2.3091,-2.3091,-0.096,-0.096,-0.101,-0.111,-0.1161,-0.1161,-0.1161,-0.1262,-0.1312,-0.1312,-0.1666,-0.1919,-0.1919,-0.227,-0.2724,-0.3278,-0.333,-0.363,-0.4282,-0.4435,-0.4836,-0.5486,-0.5939,-0.6389,-0.6942,-0.7394,-0.7646,-0.7793,-0.7942,-0.7988,-0.7988,-0.7988,-0.7988,-0.7988,-0.7988,-0.7988,-0.7988,-0.7988,-0.7988,-0.7988,-0.7988,-0.7988,-0.7988,-0.7988,-0.7988,-0.7988,-0.7988,-0.8333,-0.8825,-0.8825,-0.9517,-1.0511,-1.1047,-1.1932,-1.2953,-1.3667,-1.4298,-1.4742,-1.5035,-1.479,-1.4394,-1.3956,-1.3136,-1.2268,-1.1487,-1.0801,-1.0216,-0.9875,-0.9426,-0.9126,-0.8977,-0.8977,-0.913,-0.9673,-1.0364,-1.1096,-1.1883,-1.2748,-1.3715,-1.4825,-1.5397,-1.5683,-1.5778,-1.5784,-1.5784,-1.5784,-1.5784,-1.5784,-1.5784,-1.5784,-1.5784,-1.5784,-1.5784,-1.5784,-1.5784,-1.5784,-1.5784,-1.5784,-1.5784,-1.5879,-1.5981,-1.6265,-1.6636,-1.72,-1.7939,-1.8589,-1.9234,-2.0102,-2.0835,-2.1365,-2.182,-2.2309,-2.2794,-2.2882,-2.3013,-2.3091]}]]